<?xml version="1.0" encoding="UTF-8" standalone="no" ?>
<gpx xmlns="http://www.topografix.com/GPX/1/1" xmlns:xsi="http://www.w3.org/2001/XMLSchema-instance" xsi:schemaLocation="http://www.topografix.com/GPX/1/1 http://www.topografix.com/GPX/1/1/gpx.xsd" version="1.1" creator="VisuGPX - https://www.visugpx.com">
  <metadata>
    <name>19/05/2022</name>
    <desc><![CDATA[boucle au départ du camping du Salagou puis petite boucle aux bories puis tour du mont Caylus et retour par Clermont l'hérault]]></desc>
  </metadata>
  <trk>
    <name><![CDATA[19/05/2022_1]]></name>
    <trkseg>
      <trkpt lat="43.6455" lon="3.38987">
        <ele>150.6</ele>
        <time>2022-05-19T06:10:51Z</time>
      </trkpt>
      <trkpt lat="43.64545" lon="3.38979">
        <ele>146.4</ele>
        <time>2022-05-19T06:10:54Z</time>
      </trkpt>
      <trkpt lat="43.64541" lon="3.38976">
        <ele>146.4</ele>
        <time>2022-05-19T06:10:56Z</time>
      </trkpt>
      <trkpt lat="43.64539" lon="3.38976">
        <ele>146.4</ele>
        <time>2022-05-19T06:10:57Z</time>
      </trkpt>
      <trkpt lat="43.64534" lon="3.38979">
        <ele>146.6</ele>
        <time>2022-05-19T06:11:00Z</time>
      </trkpt>
      <trkpt lat="43.64519" lon="3.38991">
        <ele>146.8</ele>
        <time>2022-05-19T06:11:08Z</time>
      </trkpt>
      <trkpt lat="43.64512" lon="3.39">
        <ele>147.2</ele>
        <time>2022-05-19T06:11:12Z</time>
      </trkpt>
      <trkpt lat="43.64504" lon="3.39012">
        <ele>147.6</ele>
        <time>2022-05-19T06:11:17Z</time>
      </trkpt>
      <trkpt lat="43.64487" lon="3.39027">
        <ele>148.2</ele>
        <time>2022-05-19T06:11:25Z</time>
      </trkpt>
      <trkpt lat="43.64483" lon="3.39031">
        <ele>148.2</ele>
        <time>2022-05-19T06:11:27Z</time>
      </trkpt>
      <trkpt lat="43.64466" lon="3.39047">
        <ele>149.2</ele>
        <time>2022-05-19T06:11:35Z</time>
      </trkpt>
      <trkpt lat="43.64459" lon="3.39053">
        <ele>149.4</ele>
        <time>2022-05-19T06:11:38Z</time>
      </trkpt>
      <trkpt lat="43.64447" lon="3.39064">
        <ele>150</ele>
        <time>2022-05-19T06:11:44Z</time>
      </trkpt>
      <trkpt lat="43.64439" lon="3.39072">
        <ele>150.4</ele>
        <time>2022-05-19T06:11:48Z</time>
      </trkpt>
      <trkpt lat="43.64435" lon="3.39081">
        <ele>150.6</ele>
        <time>2022-05-19T06:11:51Z</time>
      </trkpt>
      <trkpt lat="43.64434" lon="3.39085">
        <ele>150.6</ele>
        <time>2022-05-19T06:11:52Z</time>
      </trkpt>
      <trkpt lat="43.64421" lon="3.39117">
        <ele>151.2</ele>
        <time>2022-05-19T06:12:02Z</time>
      </trkpt>
      <trkpt lat="43.64415" lon="3.39129">
        <ele>151.4</ele>
        <time>2022-05-19T06:12:06Z</time>
      </trkpt>
      <trkpt lat="43.64404" lon="3.39157">
        <ele>152</ele>
        <time>2022-05-19T06:12:15Z</time>
      </trkpt>
      <trkpt lat="43.64393" lon="3.39186">
        <ele>152.4</ele>
        <time>2022-05-19T06:12:23Z</time>
      </trkpt>
      <trkpt lat="43.64392" lon="3.39189">
        <ele>152.4</ele>
        <time>2022-05-19T06:12:24Z</time>
      </trkpt>
      <trkpt lat="43.64383" lon="3.39209">
        <ele>152.8</ele>
        <time>2022-05-19T06:12:30Z</time>
      </trkpt>
      <trkpt lat="43.64372" lon="3.39237">
        <ele>153.2</ele>
        <time>2022-05-19T06:12:38Z</time>
      </trkpt>
      <trkpt lat="43.64365" lon="3.39252">
        <ele>153.6</ele>
        <time>2022-05-19T06:12:42Z</time>
      </trkpt>
      <trkpt lat="43.6435" lon="3.39285">
        <ele>154.6</ele>
        <time>2022-05-19T06:12:52Z</time>
      </trkpt>
      <trkpt lat="43.64349" lon="3.39289">
        <ele>154.6</ele>
        <time>2022-05-19T06:12:53Z</time>
      </trkpt>
      <trkpt lat="43.64338" lon="3.39314">
        <ele>155.2</ele>
        <time>2022-05-19T06:13:00Z</time>
      </trkpt>
      <trkpt lat="43.64334" lon="3.39325">
        <ele>155.4</ele>
        <time>2022-05-19T06:13:03Z</time>
      </trkpt>
      <trkpt lat="43.64327" lon="3.39339">
        <ele>155.8</ele>
        <time>2022-05-19T06:13:07Z</time>
      </trkpt>
      <trkpt lat="43.64313" lon="3.39371">
        <ele>156.6</ele>
        <time>2022-05-19T06:13:16Z</time>
      </trkpt>
      <trkpt lat="43.64311" lon="3.39378">
        <ele>156.8</ele>
        <time>2022-05-19T06:13:18Z</time>
      </trkpt>
      <trkpt lat="43.64302" lon="3.39399">
        <ele>157.4</ele>
        <time>2022-05-19T06:13:24Z</time>
      </trkpt>
      <trkpt lat="43.64296" lon="3.39411">
        <ele>157.8</ele>
        <time>2022-05-19T06:13:28Z</time>
      </trkpt>
      <trkpt lat="43.64289" lon="3.39431">
        <ele>158.4</ele>
        <time>2022-05-19T06:13:34Z</time>
      </trkpt>
      <trkpt lat="43.64282" lon="3.39448">
        <ele>159</ele>
        <time>2022-05-19T06:13:39Z</time>
      </trkpt>
      <trkpt lat="43.64275" lon="3.39464">
        <ele>159.2</ele>
        <time>2022-05-19T06:13:44Z</time>
      </trkpt>
      <trkpt lat="43.64265" lon="3.39488">
        <ele>160</ele>
        <time>2022-05-19T06:13:51Z</time>
      </trkpt>
      <trkpt lat="43.6426" lon="3.39502">
        <ele>160.4</ele>
        <time>2022-05-19T06:13:55Z</time>
      </trkpt>
      <trkpt lat="43.64254" lon="3.39518">
        <ele>161</ele>
        <time>2022-05-19T06:14:00Z</time>
      </trkpt>
      <trkpt lat="43.64248" lon="3.39531">
        <ele>161.4</ele>
        <time>2022-05-19T06:14:04Z</time>
      </trkpt>
      <trkpt lat="43.64243" lon="3.39543">
        <ele>162</ele>
        <time>2022-05-19T06:14:08Z</time>
      </trkpt>
      <trkpt lat="43.64236" lon="3.3956">
        <ele>162.6</ele>
        <time>2022-05-19T06:14:13Z</time>
      </trkpt>
      <trkpt lat="43.64228" lon="3.39579">
        <ele>163.2</ele>
        <time>2022-05-19T06:14:19Z</time>
      </trkpt>
      <trkpt lat="43.64226" lon="3.39586">
        <ele>163.6</ele>
        <time>2022-05-19T06:14:21Z</time>
      </trkpt>
      <trkpt lat="43.64218" lon="3.39605">
        <ele>164.2</ele>
        <time>2022-05-19T06:14:27Z</time>
      </trkpt>
      <trkpt lat="43.64215" lon="3.39611">
        <ele>164.4</ele>
        <time>2022-05-19T06:14:29Z</time>
      </trkpt>
      <trkpt lat="43.64208" lon="3.39627">
        <ele>165</ele>
        <time>2022-05-19T06:14:34Z</time>
      </trkpt>
      <trkpt lat="43.64204" lon="3.39637">
        <ele>165.2</ele>
        <time>2022-05-19T06:14:37Z</time>
      </trkpt>
      <trkpt lat="43.64198" lon="3.3965">
        <ele>165.8</ele>
        <time>2022-05-19T06:14:41Z</time>
      </trkpt>
      <trkpt lat="43.64188" lon="3.3967">
        <ele>166.4</ele>
        <time>2022-05-19T06:14:47Z</time>
      </trkpt>
      <trkpt lat="43.64182" lon="3.39682">
        <ele>167</ele>
        <time>2022-05-19T06:14:51Z</time>
      </trkpt>
      <trkpt lat="43.64174" lon="3.39697">
        <ele>167.6</ele>
        <time>2022-05-19T06:14:56Z</time>
      </trkpt>
      <trkpt lat="43.64172" lon="3.397">
        <ele>167.6</ele>
        <time>2022-05-19T06:14:57Z</time>
      </trkpt>
      <trkpt lat="43.64166" lon="3.39716">
        <ele>168.4</ele>
        <time>2022-05-19T06:15:02Z</time>
      </trkpt>
      <trkpt lat="43.64162" lon="3.39727">
        <ele>168.8</ele>
        <time>2022-05-19T06:15:05Z</time>
      </trkpt>
      <trkpt lat="43.64156" lon="3.3975">
        <ele>169.6</ele>
        <time>2022-05-19T06:15:11Z</time>
      </trkpt>
      <trkpt lat="43.64152" lon="3.39761">
        <ele>169.8</ele>
        <time>2022-05-19T06:15:14Z</time>
      </trkpt>
      <trkpt lat="43.64148" lon="3.39779">
        <ele>170.4</ele>
        <time>2022-05-19T06:15:19Z</time>
      </trkpt>
      <trkpt lat="43.64145" lon="3.39784">
        <ele>170.4</ele>
        <time>2022-05-19T06:15:20Z</time>
      </trkpt>
      <trkpt lat="43.64141" lon="3.39793">
        <ele>170.8</ele>
        <time>2022-05-19T06:15:23Z</time>
      </trkpt>
      <trkpt lat="43.64132" lon="3.39817">
        <ele>171.8</ele>
        <time>2022-05-19T06:15:30Z</time>
      </trkpt>
      <trkpt lat="43.64121" lon="3.39847">
        <ele>172.8</ele>
        <time>2022-05-19T06:15:39Z</time>
      </trkpt>
      <trkpt lat="43.6412" lon="3.39855">
        <ele>173</ele>
        <time>2022-05-19T06:15:41Z</time>
      </trkpt>
      <trkpt lat="43.64117" lon="3.39883">
        <ele>174</ele>
        <time>2022-05-19T06:15:49Z</time>
      </trkpt>
      <trkpt lat="43.64117" lon="3.39887">
        <ele>174.2</ele>
        <time>2022-05-19T06:15:50Z</time>
      </trkpt>
      <trkpt lat="43.64119" lon="3.39913">
        <ele>175</ele>
        <time>2022-05-19T06:15:57Z</time>
      </trkpt>
      <trkpt lat="43.64121" lon="3.39924">
        <ele>175.4</ele>
        <time>2022-05-19T06:16:00Z</time>
      </trkpt>
      <trkpt lat="43.64122" lon="3.39935">
        <ele>175.6</ele>
        <time>2022-05-19T06:16:03Z</time>
      </trkpt>
      <trkpt lat="43.64125" lon="3.39958">
        <ele>176.2</ele>
        <time>2022-05-19T06:16:09Z</time>
      </trkpt>
      <trkpt lat="43.64126" lon="3.39966">
        <ele>176.4</ele>
        <time>2022-05-19T06:16:11Z</time>
      </trkpt>
      <trkpt lat="43.6413" lon="3.39986">
        <ele>176.8</ele>
        <time>2022-05-19T06:16:16Z</time>
      </trkpt>
      <trkpt lat="43.64135" lon="3.40014">
        <ele>177.4</ele>
        <time>2022-05-19T06:16:23Z</time>
      </trkpt>
      <trkpt lat="43.64139" lon="3.40038">
        <ele>178.2</ele>
        <time>2022-05-19T06:16:29Z</time>
      </trkpt>
      <trkpt lat="43.64143" lon="3.40058">
        <ele>178.6</ele>
        <time>2022-05-19T06:16:34Z</time>
      </trkpt>
      <trkpt lat="43.64144" lon="3.40066">
        <ele>178.8</ele>
        <time>2022-05-19T06:16:36Z</time>
      </trkpt>
      <trkpt lat="43.64152" lon="3.40091">
        <ele>179.4</ele>
        <time>2022-05-19T06:16:42Z</time>
      </trkpt>
      <trkpt lat="43.64152" lon="3.40094">
        <ele>179.6</ele>
        <time>2022-05-19T06:16:43Z</time>
      </trkpt>
      <trkpt lat="43.64158" lon="3.4012">
        <ele>180.6</ele>
        <time>2022-05-19T06:16:50Z</time>
      </trkpt>
      <trkpt lat="43.64158" lon="3.40124">
        <ele>180.6</ele>
        <time>2022-05-19T06:16:51Z</time>
      </trkpt>
      <trkpt lat="43.64162" lon="3.40141">
        <ele>181</ele>
        <time>2022-05-19T06:16:56Z</time>
      </trkpt>
      <trkpt lat="43.64167" lon="3.40162">
        <ele>181.8</ele>
        <time>2022-05-19T06:17:02Z</time>
      </trkpt>
      <trkpt lat="43.6417" lon="3.40181">
        <ele>182.6</ele>
        <time>2022-05-19T06:17:08Z</time>
      </trkpt>
      <trkpt lat="43.64172" lon="3.40192">
        <ele>182.8</ele>
        <time>2022-05-19T06:17:11Z</time>
      </trkpt>
      <trkpt lat="43.64174" lon="3.40207">
        <ele>183.4</ele>
        <time>2022-05-19T06:17:15Z</time>
      </trkpt>
      <trkpt lat="43.64179" lon="3.40227">
        <ele>183.8</ele>
        <time>2022-05-19T06:17:20Z</time>
      </trkpt>
      <trkpt lat="43.64181" lon="3.40235">
        <ele>184</ele>
        <time>2022-05-19T06:17:22Z</time>
      </trkpt>
      <trkpt lat="43.64183" lon="3.40258">
        <ele>185</ele>
        <time>2022-05-19T06:17:28Z</time>
      </trkpt>
      <trkpt lat="43.64185" lon="3.40263">
        <ele>185</ele>
        <time>2022-05-19T06:17:29Z</time>
      </trkpt>
      <trkpt lat="43.64192" lon="3.40295">
        <ele>186</ele>
        <time>2022-05-19T06:17:37Z</time>
      </trkpt>
      <trkpt lat="43.64198" lon="3.40326">
        <ele>186.4</ele>
        <time>2022-05-19T06:17:45Z</time>
      </trkpt>
      <trkpt lat="43.64201" lon="3.40345">
        <ele>187</ele>
        <time>2022-05-19T06:17:50Z</time>
      </trkpt>
      <trkpt lat="43.64202" lon="3.40351">
        <ele>187.2</ele>
        <time>2022-05-19T06:17:52Z</time>
      </trkpt>
      <trkpt lat="43.64204" lon="3.40371">
        <ele>188</ele>
        <time>2022-05-19T06:17:58Z</time>
      </trkpt>
      <trkpt lat="43.64206" lon="3.4038">
        <ele>188.2</ele>
        <time>2022-05-19T06:18:00Z</time>
      </trkpt>
      <trkpt lat="43.6421" lon="3.40401">
        <ele>189</ele>
        <time>2022-05-19T06:18:06Z</time>
      </trkpt>
      <trkpt lat="43.6421" lon="3.40405">
        <ele>189.2</ele>
        <time>2022-05-19T06:18:07Z</time>
      </trkpt>
      <trkpt lat="43.64215" lon="3.4043">
        <ele>189.8</ele>
        <time>2022-05-19T06:18:14Z</time>
      </trkpt>
      <trkpt lat="43.64219" lon="3.40451">
        <ele>190.2</ele>
        <time>2022-05-19T06:18:19Z</time>
      </trkpt>
      <trkpt lat="43.64223" lon="3.40467">
        <ele>190.4</ele>
        <time>2022-05-19T06:18:23Z</time>
      </trkpt>
      <trkpt lat="43.64228" lon="3.40495">
        <ele>191</ele>
        <time>2022-05-19T06:18:30Z</time>
      </trkpt>
      <trkpt lat="43.6423" lon="3.40503">
        <ele>191.2</ele>
        <time>2022-05-19T06:18:32Z</time>
      </trkpt>
      <trkpt lat="43.64235" lon="3.4053">
        <ele>192</ele>
        <time>2022-05-19T06:18:39Z</time>
      </trkpt>
      <trkpt lat="43.64238" lon="3.4054">
        <ele>192.6</ele>
        <time>2022-05-19T06:18:42Z</time>
      </trkpt>
      <trkpt lat="43.64241" lon="3.40559">
        <ele>193.2</ele>
        <time>2022-05-19T06:18:47Z</time>
      </trkpt>
      <trkpt lat="43.64243" lon="3.40571">
        <ele>193.6</ele>
        <time>2022-05-19T06:18:50Z</time>
      </trkpt>
      <trkpt lat="43.64246" lon="3.40587">
        <ele>194.2</ele>
        <time>2022-05-19T06:18:54Z</time>
      </trkpt>
      <trkpt lat="43.64248" lon="3.40598">
        <ele>194.6</ele>
        <time>2022-05-19T06:18:57Z</time>
      </trkpt>
      <trkpt lat="43.64252" lon="3.40625">
        <ele>195.2</ele>
        <time>2022-05-19T06:19:04Z</time>
      </trkpt>
      <trkpt lat="43.64252" lon="3.40629">
        <ele>195.4</ele>
        <time>2022-05-19T06:19:05Z</time>
      </trkpt>
      <trkpt lat="43.64252" lon="3.40648">
        <ele>196</ele>
        <time>2022-05-19T06:19:10Z</time>
      </trkpt>
      <trkpt lat="43.64249" lon="3.40668">
        <ele>196.4</ele>
        <time>2022-05-19T06:19:15Z</time>
      </trkpt>
      <trkpt lat="43.64248" lon="3.40679">
        <ele>196.8</ele>
        <time>2022-05-19T06:19:18Z</time>
      </trkpt>
      <trkpt lat="43.6425" lon="3.40696">
        <ele>197.4</ele>
        <time>2022-05-19T06:19:23Z</time>
      </trkpt>
      <trkpt lat="43.64251" lon="3.40698">
        <ele>197.6</ele>
        <time>2022-05-19T06:19:24Z</time>
      </trkpt>
      <trkpt lat="43.64258" lon="3.40704">
        <ele>198</ele>
        <time>2022-05-19T06:19:29Z</time>
      </trkpt>
      <trkpt lat="43.64268" lon="3.40713">
        <ele>198</ele>
        <time>2022-05-19T06:19:37Z</time>
      </trkpt>
      <trkpt lat="43.64268" lon="3.40714">
        <ele>198</ele>
        <time>2022-05-19T06:19:38Z</time>
      </trkpt>
      <trkpt lat="43.64273" lon="3.40719">
        <ele>198</ele>
        <time>2022-05-19T06:19:43Z</time>
      </trkpt>
      <trkpt lat="43.64279" lon="3.40724">
        <ele>198.4</ele>
        <time>2022-05-19T06:19:50Z</time>
      </trkpt>
      <trkpt lat="43.6428" lon="3.40724">
        <ele>198.4</ele>
        <time>2022-05-19T06:19:52Z</time>
      </trkpt>
      <trkpt lat="43.64283" lon="3.40728">
        <ele>198.6</ele>
        <time>2022-05-19T06:19:56Z</time>
      </trkpt>
      <trkpt lat="43.64284" lon="3.40729">
        <ele>198.6</ele>
        <time>2022-05-19T06:19:57Z</time>
      </trkpt>
      <trkpt lat="43.64292" lon="3.40742">
        <ele>199</ele>
        <time>2022-05-19T06:20:05Z</time>
      </trkpt>
      <trkpt lat="43.64301" lon="3.40756">
        <ele>199.2</ele>
        <time>2022-05-19T06:20:11Z</time>
      </trkpt>
      <trkpt lat="43.64312" lon="3.40767">
        <ele>199</ele>
        <time>2022-05-19T06:20:15Z</time>
      </trkpt>
      <trkpt lat="43.64328" lon="3.40771">
        <ele>198.6</ele>
        <time>2022-05-19T06:20:20Z</time>
      </trkpt>
      <trkpt lat="43.64343" lon="3.40772">
        <ele>198.6</ele>
        <time>2022-05-19T06:20:26Z</time>
      </trkpt>
      <trkpt lat="43.64362" lon="3.40779">
        <ele>198.8</ele>
        <time>2022-05-19T06:20:33Z</time>
      </trkpt>
      <trkpt lat="43.64373" lon="3.40786">
        <ele>198.6</ele>
        <time>2022-05-19T06:20:36Z</time>
      </trkpt>
      <trkpt lat="43.64381" lon="3.40794">
        <ele>198.4</ele>
        <time>2022-05-19T06:20:38Z</time>
      </trkpt>
      <trkpt lat="43.64405" lon="3.4082">
        <ele>197.8</ele>
        <time>2022-05-19T06:20:44Z</time>
      </trkpt>
      <trkpt lat="43.6442" lon="3.40831">
        <ele>197.4</ele>
        <time>2022-05-19T06:20:48Z</time>
      </trkpt>
      <trkpt lat="43.64424" lon="3.40833">
        <ele>197.4</ele>
        <time>2022-05-19T06:20:49Z</time>
      </trkpt>
      <trkpt lat="43.64447" lon="3.40846">
        <ele>197</ele>
        <time>2022-05-19T06:20:56Z</time>
      </trkpt>
      <trkpt lat="43.64454" lon="3.4085">
        <ele>197.2</ele>
        <time>2022-05-19T06:21:02Z</time>
      </trkpt>
      <trkpt lat="43.64454" lon="3.4085">
        <ele>197.4</ele>
        <time>2022-05-19T06:21:20Z</time>
      </trkpt>
      <trkpt lat="43.64454" lon="3.4085">
        <ele>197.8</ele>
        <time>2022-05-19T06:21:45Z</time>
      </trkpt>
      <trkpt lat="43.64455" lon="3.4085">
        <ele>197.8</ele>
        <time>2022-05-19T06:21:48Z</time>
      </trkpt>
      <trkpt lat="43.64456" lon="3.40848">
        <ele>197.8</ele>
        <time>2022-05-19T06:21:50Z</time>
      </trkpt>
      <trkpt lat="43.64455" lon="3.40846">
        <ele>197.8</ele>
        <time>2022-05-19T06:21:51Z</time>
      </trkpt>
      <trkpt lat="43.64452" lon="3.4085">
        <ele>197.8</ele>
        <time>2022-05-19T06:21:55Z</time>
      </trkpt>
      <trkpt lat="43.64447" lon="3.40866">
        <ele>198</ele>
        <time>2022-05-19T06:22:02Z</time>
      </trkpt>
      <trkpt lat="43.64445" lon="3.40877">
        <ele>198.4</ele>
        <time>2022-05-19T06:22:06Z</time>
      </trkpt>
      <trkpt lat="43.64443" lon="3.40885">
        <ele>199.2</ele>
        <time>2022-05-19T06:22:09Z</time>
      </trkpt>
      <trkpt lat="43.64442" lon="3.40891">
        <ele>199.6</ele>
        <time>2022-05-19T06:22:11Z</time>
      </trkpt>
      <trkpt lat="43.64438" lon="3.40908">
        <ele>200</ele>
        <time>2022-05-19T06:22:16Z</time>
      </trkpt>
      <trkpt lat="43.64438" lon="3.40937">
        <ele>199.6</ele>
        <time>2022-05-19T06:22:23Z</time>
      </trkpt>
      <trkpt lat="43.64445" lon="3.40966">
        <ele>199.2</ele>
        <time>2022-05-19T06:22:30Z</time>
      </trkpt>
      <trkpt lat="43.64452" lon="3.40996">
        <ele>199.4</ele>
        <time>2022-05-19T06:22:38Z</time>
      </trkpt>
      <trkpt lat="43.64464" lon="3.41022">
        <ele>199.8</ele>
        <time>2022-05-19T06:22:46Z</time>
      </trkpt>
      <trkpt lat="43.64475" lon="3.41037">
        <ele>200</ele>
        <time>2022-05-19T06:22:52Z</time>
      </trkpt>
      <trkpt lat="43.64484" lon="3.41047">
        <ele>200.2</ele>
        <time>2022-05-19T06:22:58Z</time>
      </trkpt>
      <trkpt lat="43.64497" lon="3.41065">
        <ele>200.6</ele>
        <time>2022-05-19T06:23:05Z</time>
      </trkpt>
      <trkpt lat="43.64499" lon="3.41068">
        <ele>200.6</ele>
        <time>2022-05-19T06:23:06Z</time>
      </trkpt>
      <trkpt lat="43.64504" lon="3.41076">
        <ele>201</ele>
        <time>2022-05-19T06:23:09Z</time>
      </trkpt>
      <trkpt lat="43.64515" lon="3.41095">
        <ele>201.4</ele>
        <time>2022-05-19T06:23:16Z</time>
      </trkpt>
      <trkpt lat="43.64521" lon="3.41116">
        <ele>201.4</ele>
        <time>2022-05-19T06:23:21Z</time>
      </trkpt>
      <trkpt lat="43.6453" lon="3.41149">
        <ele>201</ele>
        <time>2022-05-19T06:23:28Z</time>
      </trkpt>
      <trkpt lat="43.64537" lon="3.4117">
        <ele>200.6</ele>
        <time>2022-05-19T06:23:34Z</time>
      </trkpt>
      <trkpt lat="43.6454" lon="3.41171">
        <ele>200.6</ele>
        <time>2022-05-19T06:23:35Z</time>
      </trkpt>
      <trkpt lat="43.64545" lon="3.41169">
        <ele>200.6</ele>
        <time>2022-05-19T06:23:37Z</time>
      </trkpt>
      <trkpt lat="43.64563" lon="3.41155">
        <ele>200.6</ele>
        <time>2022-05-19T06:23:45Z</time>
      </trkpt>
      <trkpt lat="43.6458" lon="3.41146">
        <ele>201.2</ele>
        <time>2022-05-19T06:23:52Z</time>
      </trkpt>
      <trkpt lat="43.64589" lon="3.41141">
        <ele>201.8</ele>
        <time>2022-05-19T06:23:56Z</time>
      </trkpt>
      <trkpt lat="43.64601" lon="3.41133">
        <ele>202.6</ele>
        <time>2022-05-19T06:24:02Z</time>
      </trkpt>
      <trkpt lat="43.64603" lon="3.41131">
        <ele>202.8</ele>
        <time>2022-05-19T06:24:03Z</time>
      </trkpt>
      <trkpt lat="43.64616" lon="3.41125">
        <ele>203.8</ele>
        <time>2022-05-19T06:24:10Z</time>
      </trkpt>
      <trkpt lat="43.64618" lon="3.41126">
        <ele>204.6</ele>
        <time>2022-05-19T06:24:14Z</time>
      </trkpt>
      <trkpt lat="43.64618" lon="3.41126">
        <ele>204.8</ele>
        <time>2022-05-19T06:24:17Z</time>
      </trkpt>
      <trkpt lat="43.64618" lon="3.41126">
        <ele>205</ele>
        <time>2022-05-19T06:24:34Z</time>
      </trkpt>
      <trkpt lat="43.64623" lon="3.4113">
        <ele>205.2</ele>
        <time>2022-05-19T06:25:14Z</time>
      </trkpt>
      <trkpt lat="43.64632" lon="3.41144">
        <ele>205.6</ele>
        <time>2022-05-19T06:25:20Z</time>
      </trkpt>
      <trkpt lat="43.64635" lon="3.41149">
        <ele>205.8</ele>
        <time>2022-05-19T06:25:22Z</time>
      </trkpt>
      <trkpt lat="43.64647" lon="3.41167">
        <ele>207</ele>
        <time>2022-05-19T06:25:29Z</time>
      </trkpt>
      <trkpt lat="43.64658" lon="3.41177">
        <ele>207.8</ele>
        <time>2022-05-19T06:25:36Z</time>
      </trkpt>
      <trkpt lat="43.64659" lon="3.41177">
        <ele>207.8</ele>
        <time>2022-05-19T06:25:37Z</time>
      </trkpt>
      <trkpt lat="43.64666" lon="3.41174">
        <ele>208.4</ele>
        <time>2022-05-19T06:25:42Z</time>
      </trkpt>
      <trkpt lat="43.64671" lon="3.4117">
        <ele>209</ele>
        <time>2022-05-19T06:25:46Z</time>
      </trkpt>
      <trkpt lat="43.64674" lon="3.41167">
        <ele>210</ele>
        <time>2022-05-19T06:25:49Z</time>
      </trkpt>
      <trkpt lat="43.6468" lon="3.41162">
        <ele>211.2</ele>
        <time>2022-05-19T06:25:54Z</time>
      </trkpt>
      <trkpt lat="43.64685" lon="3.4116">
        <ele>212.2</ele>
        <time>2022-05-19T06:25:58Z</time>
      </trkpt>
      <trkpt lat="43.64687" lon="3.41158">
        <ele>212.6</ele>
        <time>2022-05-19T06:26:00Z</time>
      </trkpt>
      <trkpt lat="43.64688" lon="3.41157">
        <ele>212.8</ele>
        <time>2022-05-19T06:26:01Z</time>
      </trkpt>
      <trkpt lat="43.64691" lon="3.41157">
        <ele>213.6</ele>
        <time>2022-05-19T06:26:03Z</time>
      </trkpt>
      <trkpt lat="43.64695" lon="3.41159">
        <ele>214</ele>
        <time>2022-05-19T06:26:06Z</time>
      </trkpt>
      <trkpt lat="43.64698" lon="3.41163">
        <ele>214.6</ele>
        <time>2022-05-19T06:26:09Z</time>
      </trkpt>
      <trkpt lat="43.64701" lon="3.41169">
        <ele>215.6</ele>
        <time>2022-05-19T06:26:14Z</time>
      </trkpt>
      <trkpt lat="43.64702" lon="3.4117">
        <ele>215.8</ele>
        <time>2022-05-19T06:26:15Z</time>
      </trkpt>
      <trkpt lat="43.64706" lon="3.41184">
        <ele>216.4</ele>
        <time>2022-05-19T06:26:22Z</time>
      </trkpt>
      <trkpt lat="43.64711" lon="3.41195">
        <ele>216.8</ele>
        <time>2022-05-19T06:26:28Z</time>
      </trkpt>
      <trkpt lat="43.64714" lon="3.41201">
        <ele>217</ele>
        <time>2022-05-19T06:26:32Z</time>
      </trkpt>
      <trkpt lat="43.64722" lon="3.4121">
        <ele>217.8</ele>
        <time>2022-05-19T06:26:40Z</time>
      </trkpt>
      <trkpt lat="43.64724" lon="3.41212">
        <ele>218.2</ele>
        <time>2022-05-19T06:26:42Z</time>
      </trkpt>
      <trkpt lat="43.64729" lon="3.41216">
        <ele>219</ele>
        <time>2022-05-19T06:26:47Z</time>
      </trkpt>
      <trkpt lat="43.64733" lon="3.41219">
        <ele>219.6</ele>
        <time>2022-05-19T06:26:50Z</time>
      </trkpt>
      <trkpt lat="43.64735" lon="3.41221">
        <ele>220</ele>
        <time>2022-05-19T06:26:52Z</time>
      </trkpt>
      <trkpt lat="43.64742" lon="3.41226">
        <ele>221</ele>
        <time>2022-05-19T06:26:58Z</time>
      </trkpt>
      <trkpt lat="43.64744" lon="3.41226">
        <ele>221</ele>
        <time>2022-05-19T06:26:59Z</time>
      </trkpt>
      <trkpt lat="43.64751" lon="3.41231">
        <ele>222.2</ele>
        <time>2022-05-19T06:27:06Z</time>
      </trkpt>
      <trkpt lat="43.64752" lon="3.41231">
        <ele>222.6</ele>
        <time>2022-05-19T06:27:10Z</time>
      </trkpt>
      <trkpt lat="43.64753" lon="3.41232">
        <ele>222.6</ele>
        <time>2022-05-19T06:27:11Z</time>
      </trkpt>
      <trkpt lat="43.64757" lon="3.41238">
        <ele>222.8</ele>
        <time>2022-05-19T06:27:14Z</time>
      </trkpt>
      <trkpt lat="43.64766" lon="3.4125">
        <ele>223.2</ele>
        <time>2022-05-19T06:27:20Z</time>
      </trkpt>
      <trkpt lat="43.64775" lon="3.41266">
        <ele>224.4</ele>
        <time>2022-05-19T06:27:28Z</time>
      </trkpt>
      <trkpt lat="43.64781" lon="3.41275">
        <ele>225.6</ele>
        <time>2022-05-19T06:27:33Z</time>
      </trkpt>
      <trkpt lat="43.6479" lon="3.41285">
        <ele>226</ele>
        <time>2022-05-19T06:27:39Z</time>
      </trkpt>
      <trkpt lat="43.64796" lon="3.4129">
        <ele>226.8</ele>
        <time>2022-05-19T06:27:43Z</time>
      </trkpt>
      <trkpt lat="43.64798" lon="3.41294">
        <ele>227.2</ele>
        <time>2022-05-19T06:27:45Z</time>
      </trkpt>
      <trkpt lat="43.64804" lon="3.41302">
        <ele>227.8</ele>
        <time>2022-05-19T06:27:49Z</time>
      </trkpt>
      <trkpt lat="43.64809" lon="3.41307">
        <ele>228</ele>
        <time>2022-05-19T06:27:52Z</time>
      </trkpt>
      <trkpt lat="43.64817" lon="3.41321">
        <ele>228.8</ele>
        <time>2022-05-19T06:27:59Z</time>
      </trkpt>
      <trkpt lat="43.6482" lon="3.41325">
        <ele>229</ele>
        <time>2022-05-19T06:28:01Z</time>
      </trkpt>
      <trkpt lat="43.64828" lon="3.41341">
        <ele>229.6</ele>
        <time>2022-05-19T06:28:09Z</time>
      </trkpt>
      <trkpt lat="43.64831" lon="3.41346">
        <ele>229.8</ele>
        <time>2022-05-19T06:28:11Z</time>
      </trkpt>
      <trkpt lat="43.64838" lon="3.41364">
        <ele>230.4</ele>
        <time>2022-05-19T06:28:21Z</time>
      </trkpt>
      <trkpt lat="43.64838" lon="3.41367">
        <ele>230.4</ele>
        <time>2022-05-19T06:28:25Z</time>
      </trkpt>
      <trkpt lat="43.64837" lon="3.41368">
        <ele>230.4</ele>
        <time>2022-05-19T06:28:26Z</time>
      </trkpt>
      <trkpt lat="43.64828" lon="3.41378">
        <ele>230.2</ele>
        <time>2022-05-19T06:28:31Z</time>
      </trkpt>
      <trkpt lat="43.64825" lon="3.41389">
        <ele>230</ele>
        <time>2022-05-19T06:28:34Z</time>
      </trkpt>
      <trkpt lat="43.64825" lon="3.41392">
        <ele>229.8</ele>
        <time>2022-05-19T06:28:35Z</time>
      </trkpt>
      <trkpt lat="43.64828" lon="3.41413">
        <ele>229.6</ele>
        <time>2022-05-19T06:28:42Z</time>
      </trkpt>
      <trkpt lat="43.64835" lon="3.41435">
        <ele>229.8</ele>
        <time>2022-05-19T06:28:50Z</time>
      </trkpt>
      <trkpt lat="43.64843" lon="3.41449">
        <ele>230.2</ele>
        <time>2022-05-19T06:28:56Z</time>
      </trkpt>
      <trkpt lat="43.6485" lon="3.41459">
        <ele>230.6</ele>
        <time>2022-05-19T06:29:01Z</time>
      </trkpt>
      <trkpt lat="43.64856" lon="3.41466">
        <ele>231.2</ele>
        <time>2022-05-19T06:29:05Z</time>
      </trkpt>
      <trkpt lat="43.64862" lon="3.41475">
        <ele>231.8</ele>
        <time>2022-05-19T06:29:10Z</time>
      </trkpt>
      <trkpt lat="43.64863" lon="3.41477">
        <ele>232</ele>
        <time>2022-05-19T06:29:11Z</time>
      </trkpt>
      <trkpt lat="43.64865" lon="3.41484">
        <ele>232.8</ele>
        <time>2022-05-19T06:29:14Z</time>
      </trkpt>
      <trkpt lat="43.64866" lon="3.41489">
        <ele>233.2</ele>
        <time>2022-05-19T06:29:16Z</time>
      </trkpt>
      <trkpt lat="43.64866" lon="3.41497">
        <ele>233.8</ele>
        <time>2022-05-19T06:29:19Z</time>
      </trkpt>
      <trkpt lat="43.64869" lon="3.4151">
        <ele>235</ele>
        <time>2022-05-19T06:29:25Z</time>
      </trkpt>
      <trkpt lat="43.64872" lon="3.41515">
        <ele>235.8</ele>
        <time>2022-05-19T06:29:28Z</time>
      </trkpt>
      <trkpt lat="43.64874" lon="3.41518">
        <ele>236</ele>
        <time>2022-05-19T06:29:30Z</time>
      </trkpt>
      <trkpt lat="43.64876" lon="3.41521">
        <ele>236.4</ele>
        <time>2022-05-19T06:29:32Z</time>
      </trkpt>
      <trkpt lat="43.6488" lon="3.41524">
        <ele>237.2</ele>
        <time>2022-05-19T06:29:36Z</time>
      </trkpt>
      <trkpt lat="43.64884" lon="3.41528">
        <ele>238.2</ele>
        <time>2022-05-19T06:29:40Z</time>
      </trkpt>
      <trkpt lat="43.64891" lon="3.41538">
        <ele>239.4</ele>
        <time>2022-05-19T06:29:47Z</time>
      </trkpt>
      <trkpt lat="43.64892" lon="3.41539">
        <ele>239.6</ele>
        <time>2022-05-19T06:29:48Z</time>
      </trkpt>
      <trkpt lat="43.64898" lon="3.4155">
        <ele>240.6</ele>
        <time>2022-05-19T06:29:55Z</time>
      </trkpt>
      <trkpt lat="43.64899" lon="3.41553">
        <ele>241.2</ele>
        <time>2022-05-19T06:29:57Z</time>
      </trkpt>
      <trkpt lat="43.64901" lon="3.41558">
        <ele>241.8</ele>
        <time>2022-05-19T06:30:00Z</time>
      </trkpt>
      <trkpt lat="43.64901" lon="3.41563">
        <ele>242.2</ele>
        <time>2022-05-19T06:30:03Z</time>
      </trkpt>
      <trkpt lat="43.64899" lon="3.41568">
        <ele>242.4</ele>
        <time>2022-05-19T06:30:05Z</time>
      </trkpt>
      <trkpt lat="43.64894" lon="3.41577">
        <ele>242.6</ele>
        <time>2022-05-19T06:30:09Z</time>
      </trkpt>
      <trkpt lat="43.64889" lon="3.41587">
        <ele>242.6</ele>
        <time>2022-05-19T06:30:13Z</time>
      </trkpt>
      <trkpt lat="43.64881" lon="3.41603">
        <ele>242.6</ele>
        <time>2022-05-19T06:30:20Z</time>
      </trkpt>
      <trkpt lat="43.64881" lon="3.41611">
        <ele>243</ele>
        <time>2022-05-19T06:30:24Z</time>
      </trkpt>
      <trkpt lat="43.64882" lon="3.41613">
        <ele>243.2</ele>
        <time>2022-05-19T06:30:25Z</time>
      </trkpt>
      <trkpt lat="43.64884" lon="3.41615">
        <ele>243.6</ele>
        <time>2022-05-19T06:30:27Z</time>
      </trkpt>
      <trkpt lat="43.64893" lon="3.41624">
        <ele>244.6</ele>
        <time>2022-05-19T06:30:33Z</time>
      </trkpt>
      <trkpt lat="43.64895" lon="3.41625">
        <ele>245</ele>
        <time>2022-05-19T06:30:34Z</time>
      </trkpt>
      <trkpt lat="43.649" lon="3.41631">
        <ele>245.8</ele>
        <time>2022-05-19T06:30:38Z</time>
      </trkpt>
      <trkpt lat="43.64904" lon="3.41634">
        <ele>246.4</ele>
        <time>2022-05-19T06:30:41Z</time>
      </trkpt>
      <trkpt lat="43.64909" lon="3.41638">
        <ele>246.8</ele>
        <time>2022-05-19T06:30:45Z</time>
      </trkpt>
      <trkpt lat="43.64914" lon="3.4164">
        <ele>247.4</ele>
        <time>2022-05-19T06:30:48Z</time>
      </trkpt>
      <trkpt lat="43.64916" lon="3.41641">
        <ele>247.4</ele>
        <time>2022-05-19T06:30:49Z</time>
      </trkpt>
      <trkpt lat="43.64924" lon="3.41643">
        <ele>248</ele>
        <time>2022-05-19T06:30:54Z</time>
      </trkpt>
      <trkpt lat="43.64931" lon="3.41644">
        <ele>248.4</ele>
        <time>2022-05-19T06:30:58Z</time>
      </trkpt>
      <trkpt lat="43.64936" lon="3.41646">
        <ele>248.8</ele>
        <time>2022-05-19T06:31:02Z</time>
      </trkpt>
      <trkpt lat="43.64938" lon="3.41648">
        <ele>248.8</ele>
        <time>2022-05-19T06:31:04Z</time>
      </trkpt>
      <trkpt lat="43.64939" lon="3.41649">
        <ele>249.2</ele>
        <time>2022-05-19T06:31:05Z</time>
      </trkpt>
      <trkpt lat="43.64944" lon="3.41653">
        <ele>250.4</ele>
        <time>2022-05-19T06:31:09Z</time>
      </trkpt>
      <trkpt lat="43.64947" lon="3.41655">
        <ele>250.6</ele>
        <time>2022-05-19T06:31:11Z</time>
      </trkpt>
      <trkpt lat="43.64958" lon="3.41664">
        <ele>251.2</ele>
        <time>2022-05-19T06:31:19Z</time>
      </trkpt>
      <trkpt lat="43.64959" lon="3.41666">
        <ele>251.2</ele>
        <time>2022-05-19T06:31:20Z</time>
      </trkpt>
      <trkpt lat="43.64962" lon="3.4167">
        <ele>251.4</ele>
        <time>2022-05-19T06:31:22Z</time>
      </trkpt>
      <trkpt lat="43.64965" lon="3.41674">
        <ele>251.4</ele>
        <time>2022-05-19T06:31:25Z</time>
      </trkpt>
      <trkpt lat="43.64967" lon="3.41674">
        <ele>251.4</ele>
        <time>2022-05-19T06:31:30Z</time>
      </trkpt>
      <trkpt lat="43.6497" lon="3.41676">
        <ele>251.8</ele>
        <time>2022-05-19T06:31:40Z</time>
      </trkpt>
      <trkpt lat="43.6497" lon="3.41676">
        <ele>252.4</ele>
        <time>2022-05-19T06:31:44Z</time>
      </trkpt>
      <trkpt lat="43.6497" lon="3.41676">
        <ele>253.2</ele>
        <time>2022-05-19T06:31:50Z</time>
      </trkpt>
      <trkpt lat="43.64971" lon="3.41676">
        <ele>253.2</ele>
        <time>2022-05-19T06:31:52Z</time>
      </trkpt>
      <trkpt lat="43.64971" lon="3.41676">
        <ele>253.6</ele>
        <time>2022-05-19T06:32:00Z</time>
      </trkpt>
      <trkpt lat="43.64974" lon="3.41678">
        <ele>253.4</ele>
        <time>2022-05-19T06:32:23Z</time>
      </trkpt>
      <trkpt lat="43.64976" lon="3.41685">
        <ele>253.2</ele>
        <time>2022-05-19T06:32:27Z</time>
      </trkpt>
      <trkpt lat="43.64977" lon="3.41688">
        <ele>253</ele>
        <time>2022-05-19T06:32:29Z</time>
      </trkpt>
      <trkpt lat="43.64983" lon="3.417">
        <ele>252.4</ele>
        <time>2022-05-19T06:32:35Z</time>
      </trkpt>
      <trkpt lat="43.64984" lon="3.41703">
        <ele>252.2</ele>
        <time>2022-05-19T06:32:37Z</time>
      </trkpt>
      <trkpt lat="43.64989" lon="3.41714">
        <ele>252</ele>
        <time>2022-05-19T06:32:44Z</time>
      </trkpt>
      <trkpt lat="43.64995" lon="3.41721">
        <ele>251.8</ele>
        <time>2022-05-19T06:32:49Z</time>
      </trkpt>
      <trkpt lat="43.65002" lon="3.41728">
        <ele>251.6</ele>
        <time>2022-05-19T06:32:54Z</time>
      </trkpt>
      <trkpt lat="43.6501" lon="3.41741">
        <ele>251.6</ele>
        <time>2022-05-19T06:33:01Z</time>
      </trkpt>
      <trkpt lat="43.65013" lon="3.41744">
        <ele>251.4</ele>
        <time>2022-05-19T06:33:03Z</time>
      </trkpt>
      <trkpt lat="43.65015" lon="3.41748">
        <ele>251.2</ele>
        <time>2022-05-19T06:33:06Z</time>
      </trkpt>
      <trkpt lat="43.65016" lon="3.41749">
        <ele>251</ele>
        <time>2022-05-19T06:33:07Z</time>
      </trkpt>
      <trkpt lat="43.65022" lon="3.41751">
        <ele>251</ele>
        <time>2022-05-19T06:33:12Z</time>
      </trkpt>
      <trkpt lat="43.65024" lon="3.41752">
        <ele>251</ele>
        <time>2022-05-19T06:33:13Z</time>
      </trkpt>
      <trkpt lat="43.65029" lon="3.41755">
        <ele>251.4</ele>
        <time>2022-05-19T06:33:22Z</time>
      </trkpt>
      <trkpt lat="43.6503" lon="3.41756">
        <ele>251.6</ele>
        <time>2022-05-19T06:33:32Z</time>
      </trkpt>
      <trkpt lat="43.65032" lon="3.41757">
        <ele>252.2</ele>
        <time>2022-05-19T06:33:41Z</time>
      </trkpt>
      <trkpt lat="43.65036" lon="3.41761">
        <ele>252.4</ele>
        <time>2022-05-19T06:33:45Z</time>
      </trkpt>
      <trkpt lat="43.65039" lon="3.41763">
        <ele>252.8</ele>
        <time>2022-05-19T06:33:52Z</time>
      </trkpt>
      <trkpt lat="43.65039" lon="3.41763">
        <ele>252.6</ele>
        <time>2022-05-19T06:33:54Z</time>
      </trkpt>
      <trkpt lat="43.65043" lon="3.41769">
        <ele>252.6</ele>
        <time>2022-05-19T06:34:05Z</time>
      </trkpt>
      <trkpt lat="43.65047" lon="3.41775">
        <ele>252.4</ele>
        <time>2022-05-19T06:34:09Z</time>
      </trkpt>
      <trkpt lat="43.6505" lon="3.41778">
        <ele>252.4</ele>
        <time>2022-05-19T06:34:11Z</time>
      </trkpt>
      <trkpt lat="43.65056" lon="3.41788">
        <ele>252.4</ele>
        <time>2022-05-19T06:34:17Z</time>
      </trkpt>
      <trkpt lat="43.65068" lon="3.41799">
        <ele>252.8</ele>
        <time>2022-05-19T06:34:24Z</time>
      </trkpt>
      <trkpt lat="43.6507" lon="3.41802">
        <ele>253.2</ele>
        <time>2022-05-19T06:34:26Z</time>
      </trkpt>
      <trkpt lat="43.65079" lon="3.41815">
        <ele>254.4</ele>
        <time>2022-05-19T06:34:32Z</time>
      </trkpt>
      <trkpt lat="43.6508" lon="3.41817">
        <ele>254.4</ele>
        <time>2022-05-19T06:34:33Z</time>
      </trkpt>
      <trkpt lat="43.65085" lon="3.41829">
        <ele>254.8</ele>
        <time>2022-05-19T06:34:40Z</time>
      </trkpt>
      <trkpt lat="43.65092" lon="3.41841">
        <ele>255.4</ele>
        <time>2022-05-19T06:34:47Z</time>
      </trkpt>
      <trkpt lat="43.65092" lon="3.41843">
        <ele>255.4</ele>
        <time>2022-05-19T06:34:48Z</time>
      </trkpt>
      <trkpt lat="43.651" lon="3.41854">
        <ele>256.2</ele>
        <time>2022-05-19T06:34:55Z</time>
      </trkpt>
      <trkpt lat="43.65104" lon="3.41857">
        <ele>256.6</ele>
        <time>2022-05-19T06:34:58Z</time>
      </trkpt>
      <trkpt lat="43.65106" lon="3.41865">
        <ele>257.2</ele>
        <time>2022-05-19T06:35:02Z</time>
      </trkpt>
      <trkpt lat="43.65109" lon="3.41868">
        <ele>257.8</ele>
        <time>2022-05-19T06:35:04Z</time>
      </trkpt>
      <trkpt lat="43.65115" lon="3.41878">
        <ele>258.4</ele>
        <time>2022-05-19T06:35:09Z</time>
      </trkpt>
      <trkpt lat="43.65118" lon="3.41882">
        <ele>258.8</ele>
        <time>2022-05-19T06:35:12Z</time>
      </trkpt>
      <trkpt lat="43.65123" lon="3.41885">
        <ele>259</ele>
        <time>2022-05-19T06:35:16Z</time>
      </trkpt>
      <trkpt lat="43.65127" lon="3.41886">
        <ele>259</ele>
        <time>2022-05-19T06:35:19Z</time>
      </trkpt>
      <trkpt lat="43.65129" lon="3.41889">
        <ele>259.2</ele>
        <time>2022-05-19T06:35:21Z</time>
      </trkpt>
      <trkpt lat="43.65131" lon="3.41891">
        <ele>259.2</ele>
        <time>2022-05-19T06:35:23Z</time>
      </trkpt>
      <trkpt lat="43.65136" lon="3.41895">
        <ele>259.2</ele>
        <time>2022-05-19T06:35:27Z</time>
      </trkpt>
      <trkpt lat="43.65142" lon="3.41898">
        <ele>259.2</ele>
        <time>2022-05-19T06:35:34Z</time>
      </trkpt>
      <trkpt lat="43.65142" lon="3.41898">
        <ele>258.6</ele>
        <time>2022-05-19T06:35:52Z</time>
      </trkpt>
      <trkpt lat="43.65149" lon="3.41903">
        <ele>258.2</ele>
        <time>2022-05-19T06:36:19Z</time>
      </trkpt>
      <trkpt lat="43.65159" lon="3.41907">
        <ele>257.4</ele>
        <time>2022-05-19T06:36:23Z</time>
      </trkpt>
      <trkpt lat="43.65165" lon="3.41907">
        <ele>257.2</ele>
        <time>2022-05-19T06:36:25Z</time>
      </trkpt>
      <trkpt lat="43.65176" lon="3.41907">
        <ele>256.4</ele>
        <time>2022-05-19T06:36:29Z</time>
      </trkpt>
      <trkpt lat="43.65178" lon="3.41907">
        <ele>256.2</ele>
        <time>2022-05-19T06:36:30Z</time>
      </trkpt>
      <trkpt lat="43.65183" lon="3.41906">
        <ele>255.2</ele>
        <time>2022-05-19T06:36:32Z</time>
      </trkpt>
      <trkpt lat="43.65186" lon="3.41905">
        <ele>254.8</ele>
        <time>2022-05-19T06:36:34Z</time>
      </trkpt>
      <trkpt lat="43.65189" lon="3.41905">
        <ele>254.8</ele>
        <time>2022-05-19T06:36:35Z</time>
      </trkpt>
      <trkpt lat="43.65193" lon="3.41903">
        <ele>254.6</ele>
        <time>2022-05-19T06:36:37Z</time>
      </trkpt>
      <trkpt lat="43.65196" lon="3.41903">
        <ele>254.2</ele>
        <time>2022-05-19T06:36:39Z</time>
      </trkpt>
      <trkpt lat="43.65197" lon="3.41903">
        <ele>253.8</ele>
        <time>2022-05-19T06:36:40Z</time>
      </trkpt>
      <trkpt lat="43.65199" lon="3.41902">
        <ele>253.6</ele>
        <time>2022-05-19T06:36:41Z</time>
      </trkpt>
      <trkpt lat="43.65206" lon="3.41899">
        <ele>253</ele>
        <time>2022-05-19T06:36:44Z</time>
      </trkpt>
      <trkpt lat="43.65211" lon="3.41898">
        <ele>252.8</ele>
        <time>2022-05-19T06:36:46Z</time>
      </trkpt>
      <trkpt lat="43.65219" lon="3.41897">
        <ele>252.8</ele>
        <time>2022-05-19T06:36:52Z</time>
      </trkpt>
      <trkpt lat="43.6522" lon="3.41896">
        <ele>253.2</ele>
        <time>2022-05-19T06:36:59Z</time>
      </trkpt>
      <trkpt lat="43.6522" lon="3.41896">
        <ele>253</ele>
        <time>2022-05-19T06:37:09Z</time>
      </trkpt>
      <trkpt lat="43.65227" lon="3.41896">
        <ele>252.6</ele>
        <time>2022-05-19T06:37:54Z</time>
      </trkpt>
      <trkpt lat="43.65232" lon="3.41895">
        <ele>252.6</ele>
        <time>2022-05-19T06:37:56Z</time>
      </trkpt>
      <trkpt lat="43.65256" lon="3.41888">
        <ele>252.2</ele>
        <time>2022-05-19T06:38:03Z</time>
      </trkpt>
      <trkpt lat="43.65278" lon="3.41887">
        <ele>251.8</ele>
        <time>2022-05-19T06:38:08Z</time>
      </trkpt>
      <trkpt lat="43.65301" lon="3.41879">
        <ele>251.4</ele>
        <time>2022-05-19T06:38:14Z</time>
      </trkpt>
      <trkpt lat="43.65305" lon="3.41878">
        <ele>251.4</ele>
        <time>2022-05-19T06:38:15Z</time>
      </trkpt>
      <trkpt lat="43.65323" lon="3.41872">
        <ele>251.2</ele>
        <time>2022-05-19T06:38:20Z</time>
      </trkpt>
      <trkpt lat="43.65327" lon="3.41871">
        <ele>251.2</ele>
        <time>2022-05-19T06:38:21Z</time>
      </trkpt>
      <trkpt lat="43.6534" lon="3.41872">
        <ele>251</ele>
        <time>2022-05-19T06:38:24Z</time>
      </trkpt>
      <trkpt lat="43.65368" lon="3.41866">
        <ele>250.6</ele>
        <time>2022-05-19T06:38:30Z</time>
      </trkpt>
      <trkpt lat="43.65372" lon="3.41864">
        <ele>250.4</ele>
        <time>2022-05-19T06:38:31Z</time>
      </trkpt>
      <trkpt lat="43.65393" lon="3.41861">
        <ele>249.8</ele>
        <time>2022-05-19T06:38:36Z</time>
      </trkpt>
      <trkpt lat="43.65405" lon="3.41858">
        <ele>249.6</ele>
        <time>2022-05-19T06:38:39Z</time>
      </trkpt>
      <trkpt lat="43.65415" lon="3.41853">
        <ele>249.4</ele>
        <time>2022-05-19T06:38:41Z</time>
      </trkpt>
      <trkpt lat="43.65421" lon="3.4185">
        <ele>249.2</ele>
        <time>2022-05-19T06:38:42Z</time>
      </trkpt>
      <trkpt lat="43.65425" lon="3.41847">
        <ele>249.2</ele>
        <time>2022-05-19T06:38:43Z</time>
      </trkpt>
      <trkpt lat="43.65436" lon="3.41842">
        <ele>248.4</ele>
        <time>2022-05-19T06:38:46Z</time>
      </trkpt>
      <trkpt lat="43.65439" lon="3.4184">
        <ele>248.2</ele>
        <time>2022-05-19T06:38:47Z</time>
      </trkpt>
      <trkpt lat="43.65453" lon="3.41828">
        <ele>247.4</ele>
        <time>2022-05-19T06:38:52Z</time>
      </trkpt>
      <trkpt lat="43.65459" lon="3.41824">
        <ele>247</ele>
        <time>2022-05-19T06:38:54Z</time>
      </trkpt>
      <trkpt lat="43.65471" lon="3.41813">
        <ele>246</ele>
        <time>2022-05-19T06:38:58Z</time>
      </trkpt>
      <trkpt lat="43.65474" lon="3.4181">
        <ele>245.8</ele>
        <time>2022-05-19T06:38:59Z</time>
      </trkpt>
      <trkpt lat="43.6548" lon="3.41802">
        <ele>245.6</ele>
        <time>2022-05-19T06:39:02Z</time>
      </trkpt>
      <trkpt lat="43.65483" lon="3.418">
        <ele>245.6</ele>
        <time>2022-05-19T06:39:03Z</time>
      </trkpt>
      <trkpt lat="43.65492" lon="3.418">
        <ele>245.2</ele>
        <time>2022-05-19T06:39:06Z</time>
      </trkpt>
      <trkpt lat="43.65495" lon="3.41798">
        <ele>244.8</ele>
        <time>2022-05-19T06:39:07Z</time>
      </trkpt>
      <trkpt lat="43.65496" lon="3.41797">
        <ele>244.4</ele>
        <time>2022-05-19T06:39:08Z</time>
      </trkpt>
      <trkpt lat="43.65498" lon="3.41792">
        <ele>244</ele>
        <time>2022-05-19T06:39:10Z</time>
      </trkpt>
      <trkpt lat="43.655" lon="3.4179">
        <ele>243.6</ele>
        <time>2022-05-19T06:39:11Z</time>
      </trkpt>
      <trkpt lat="43.65502" lon="3.41788">
        <ele>243.6</ele>
        <time>2022-05-19T06:39:12Z</time>
      </trkpt>
      <trkpt lat="43.65505" lon="3.41781">
        <ele>242.6</ele>
        <time>2022-05-19T06:39:16Z</time>
      </trkpt>
      <trkpt lat="43.65506" lon="3.41781">
        <ele>242.6</ele>
        <time>2022-05-19T06:39:17Z</time>
      </trkpt>
      <trkpt lat="43.65506" lon="3.41781">
        <ele>242.2</ele>
        <time>2022-05-19T06:39:23Z</time>
      </trkpt>
      <trkpt lat="43.65506" lon="3.41781">
        <ele>241.4</ele>
        <time>2022-05-19T06:39:31Z</time>
      </trkpt>
      <trkpt lat="43.65506" lon="3.41781">
        <ele>243.2</ele>
        <time>2022-05-19T06:41:36Z</time>
      </trkpt>
      <trkpt lat="43.65508" lon="3.41776">
        <ele>241.4</ele>
        <time>2022-05-19T06:42:31Z</time>
      </trkpt>
      <trkpt lat="43.65509" lon="3.41775">
        <ele>241.4</ele>
        <time>2022-05-19T06:42:32Z</time>
      </trkpt>
      <trkpt lat="43.65516" lon="3.41761">
        <ele>241.8</ele>
        <time>2022-05-19T06:42:38Z</time>
      </trkpt>
      <trkpt lat="43.65525" lon="3.41742">
        <ele>242</ele>
        <time>2022-05-19T06:42:44Z</time>
      </trkpt>
      <trkpt lat="43.65533" lon="3.41724">
        <ele>242</ele>
        <time>2022-05-19T06:42:49Z</time>
      </trkpt>
      <trkpt lat="43.65539" lon="3.41697">
        <ele>242</ele>
        <time>2022-05-19T06:42:56Z</time>
      </trkpt>
      <trkpt lat="43.6554" lon="3.41694">
        <ele>242.2</ele>
        <time>2022-05-19T06:42:57Z</time>
      </trkpt>
      <trkpt lat="43.65542" lon="3.41685">
        <ele>242.6</ele>
        <time>2022-05-19T06:43:02Z</time>
      </trkpt>
      <trkpt lat="43.65542" lon="3.41684">
        <ele>243</ele>
        <time>2022-05-19T06:43:07Z</time>
      </trkpt>
      <trkpt lat="43.65542" lon="3.41684">
        <ele>243</ele>
        <time>2022-05-19T06:43:08Z</time>
      </trkpt>
      <trkpt lat="43.65542" lon="3.41684">
        <ele>243</ele>
        <time>2022-05-19T06:43:21Z</time>
      </trkpt>
      <trkpt lat="43.65542" lon="3.41682">
        <ele>243</ele>
        <time>2022-05-19T06:43:23Z</time>
      </trkpt>
      <trkpt lat="43.65541" lon="3.41676">
        <ele>243</ele>
        <time>2022-05-19T06:43:26Z</time>
      </trkpt>
      <trkpt lat="43.65538" lon="3.41663">
        <ele>244</ele>
        <time>2022-05-19T06:43:33Z</time>
      </trkpt>
      <trkpt lat="43.65534" lon="3.41652">
        <ele>245</ele>
        <time>2022-05-19T06:43:38Z</time>
      </trkpt>
      <trkpt lat="43.65534" lon="3.41649">
        <ele>245.2</ele>
        <time>2022-05-19T06:43:40Z</time>
      </trkpt>
      <trkpt lat="43.65533" lon="3.41647">
        <ele>245.4</ele>
        <time>2022-05-19T06:43:41Z</time>
      </trkpt>
      <trkpt lat="43.65528" lon="3.41639">
        <ele>246</ele>
        <time>2022-05-19T06:43:46Z</time>
      </trkpt>
      <trkpt lat="43.65527" lon="3.41637">
        <ele>246</ele>
        <time>2022-05-19T06:43:47Z</time>
      </trkpt>
      <trkpt lat="43.65522" lon="3.41626">
        <ele>246.4</ele>
        <time>2022-05-19T06:43:53Z</time>
      </trkpt>
      <trkpt lat="43.65521" lon="3.41625">
        <ele>246.6</ele>
        <time>2022-05-19T06:43:54Z</time>
      </trkpt>
      <trkpt lat="43.65518" lon="3.41622">
        <ele>246.6</ele>
        <time>2022-05-19T06:43:57Z</time>
      </trkpt>
      <trkpt lat="43.65515" lon="3.41617">
        <ele>247</ele>
        <time>2022-05-19T06:44:00Z</time>
      </trkpt>
      <trkpt lat="43.65514" lon="3.41616">
        <ele>247</ele>
        <time>2022-05-19T06:44:02Z</time>
      </trkpt>
      <trkpt lat="43.65511" lon="3.41613">
        <ele>247.2</ele>
        <time>2022-05-19T06:44:04Z</time>
      </trkpt>
      <trkpt lat="43.65505" lon="3.41604">
        <ele>248</ele>
        <time>2022-05-19T06:44:11Z</time>
      </trkpt>
      <trkpt lat="43.65503" lon="3.416">
        <ele>248.2</ele>
        <time>2022-05-19T06:44:13Z</time>
      </trkpt>
      <trkpt lat="43.65497" lon="3.41594">
        <ele>249.2</ele>
        <time>2022-05-19T06:44:19Z</time>
      </trkpt>
      <trkpt lat="43.65496" lon="3.41592">
        <ele>249.4</ele>
        <time>2022-05-19T06:44:20Z</time>
      </trkpt>
      <trkpt lat="43.65495" lon="3.4159">
        <ele>250</ele>
        <time>2022-05-19T06:44:25Z</time>
      </trkpt>
      <trkpt lat="43.65495" lon="3.4159">
        <ele>250.4</ele>
        <time>2022-05-19T06:44:29Z</time>
      </trkpt>
      <trkpt lat="43.65495" lon="3.4159">
        <ele>250.6</ele>
        <time>2022-05-19T06:44:34Z</time>
      </trkpt>
      <trkpt lat="43.6549" lon="3.41583">
        <ele>250.8</ele>
        <time>2022-05-19T06:45:39Z</time>
      </trkpt>
      <trkpt lat="43.65481" lon="3.41573">
        <ele>251.2</ele>
        <time>2022-05-19T06:45:45Z</time>
      </trkpt>
      <trkpt lat="43.65478" lon="3.4157">
        <ele>251.6</ele>
        <time>2022-05-19T06:45:47Z</time>
      </trkpt>
      <trkpt lat="43.65474" lon="3.41563">
        <ele>252.4</ele>
        <time>2022-05-19T06:45:52Z</time>
      </trkpt>
      <trkpt lat="43.65473" lon="3.41562">
        <ele>252.6</ele>
        <time>2022-05-19T06:45:53Z</time>
      </trkpt>
      <trkpt lat="43.65471" lon="3.41561">
        <ele>253</ele>
        <time>2022-05-19T06:45:54Z</time>
      </trkpt>
      <trkpt lat="43.65466" lon="3.41555">
        <ele>253.6</ele>
        <time>2022-05-19T06:45:59Z</time>
      </trkpt>
      <trkpt lat="43.65464" lon="3.41551">
        <ele>254.4</ele>
        <time>2022-05-19T06:46:02Z</time>
      </trkpt>
      <trkpt lat="43.65462" lon="3.41546">
        <ele>255</ele>
        <time>2022-05-19T06:46:04Z</time>
      </trkpt>
      <trkpt lat="43.65459" lon="3.41537">
        <ele>255.6</ele>
        <time>2022-05-19T06:46:09Z</time>
      </trkpt>
      <trkpt lat="43.65458" lon="3.41532">
        <ele>256</ele>
        <time>2022-05-19T06:46:11Z</time>
      </trkpt>
      <trkpt lat="43.65454" lon="3.41521">
        <ele>257</ele>
        <time>2022-05-19T06:46:17Z</time>
      </trkpt>
      <trkpt lat="43.65453" lon="3.41519">
        <ele>257.2</ele>
        <time>2022-05-19T06:46:19Z</time>
      </trkpt>
      <trkpt lat="43.65452" lon="3.41519">
        <ele>257.6</ele>
        <time>2022-05-19T06:46:22Z</time>
      </trkpt>
      <trkpt lat="43.65448" lon="3.41513">
        <ele>258</ele>
        <time>2022-05-19T06:46:28Z</time>
      </trkpt>
      <trkpt lat="43.65446" lon="3.41513">
        <ele>258.4</ele>
        <time>2022-05-19T06:46:32Z</time>
      </trkpt>
      <trkpt lat="43.65446" lon="3.41513">
        <ele>258.8</ele>
        <time>2022-05-19T06:46:35Z</time>
      </trkpt>
      <trkpt lat="43.65444" lon="3.41511">
        <ele>259.4</ele>
        <time>2022-05-19T06:46:38Z</time>
      </trkpt>
      <trkpt lat="43.65444" lon="3.41511">
        <ele>259.6</ele>
        <time>2022-05-19T06:46:42Z</time>
      </trkpt>
      <trkpt lat="43.65442" lon="3.4151">
        <ele>259.8</ele>
        <time>2022-05-19T06:46:43Z</time>
      </trkpt>
      <trkpt lat="43.65434" lon="3.41506">
        <ele>260.2</ele>
        <time>2022-05-19T06:46:49Z</time>
      </trkpt>
      <trkpt lat="43.65431" lon="3.41504">
        <ele>260.4</ele>
        <time>2022-05-19T06:46:50Z</time>
      </trkpt>
      <trkpt lat="43.65423" lon="3.415">
        <ele>261.4</ele>
        <time>2022-05-19T06:46:55Z</time>
      </trkpt>
      <trkpt lat="43.65422" lon="3.41499">
        <ele>261.6</ele>
        <time>2022-05-19T06:46:56Z</time>
      </trkpt>
      <trkpt lat="43.65417" lon="3.41496">
        <ele>262.6</ele>
        <time>2022-05-19T06:47:00Z</time>
      </trkpt>
      <trkpt lat="43.65417" lon="3.41496">
        <ele>263</ele>
        <time>2022-05-19T06:47:02Z</time>
      </trkpt>
      <trkpt lat="43.65415" lon="3.41495">
        <ele>263.6</ele>
        <time>2022-05-19T06:47:07Z</time>
      </trkpt>
      <trkpt lat="43.65412" lon="3.41493">
        <ele>264</ele>
        <time>2022-05-19T06:47:10Z</time>
      </trkpt>
      <trkpt lat="43.6541" lon="3.41492">
        <ele>264.6</ele>
        <time>2022-05-19T06:47:16Z</time>
      </trkpt>
      <trkpt lat="43.6541" lon="3.41492">
        <ele>264.6</ele>
        <time>2022-05-19T06:47:17Z</time>
      </trkpt>
      <trkpt lat="43.65407" lon="3.41487">
        <ele>265.2</ele>
        <time>2022-05-19T06:47:24Z</time>
      </trkpt>
      <trkpt lat="43.65405" lon="3.41485">
        <ele>265.8</ele>
        <time>2022-05-19T06:47:29Z</time>
      </trkpt>
      <trkpt lat="43.65404" lon="3.41483">
        <ele>265.8</ele>
        <time>2022-05-19T06:47:31Z</time>
      </trkpt>
      <trkpt lat="43.65402" lon="3.41475">
        <ele>266</ele>
        <time>2022-05-19T06:47:35Z</time>
      </trkpt>
      <trkpt lat="43.65403" lon="3.4146">
        <ele>266.8</ele>
        <time>2022-05-19T06:47:42Z</time>
      </trkpt>
      <trkpt lat="43.65403" lon="3.4146">
        <ele>266.8</ele>
        <time>2022-05-19T06:47:43Z</time>
      </trkpt>
      <trkpt lat="43.65401" lon="3.41456">
        <ele>267</ele>
        <time>2022-05-19T06:47:45Z</time>
      </trkpt>
      <trkpt lat="43.65399" lon="3.41454">
        <ele>267.4</ele>
        <time>2022-05-19T06:47:48Z</time>
      </trkpt>
      <trkpt lat="43.65393" lon="3.41447">
        <ele>267.8</ele>
        <time>2022-05-19T06:47:52Z</time>
      </trkpt>
      <trkpt lat="43.65389" lon="3.41442">
        <ele>268.6</ele>
        <time>2022-05-19T06:47:56Z</time>
      </trkpt>
      <trkpt lat="43.65389" lon="3.4144">
        <ele>269</ele>
        <time>2022-05-19T06:47:57Z</time>
      </trkpt>
      <trkpt lat="43.65385" lon="3.41434">
        <ele>269.4</ele>
        <time>2022-05-19T06:48:02Z</time>
      </trkpt>
      <trkpt lat="43.65384" lon="3.41434">
        <ele>269.8</ele>
        <time>2022-05-19T06:48:05Z</time>
      </trkpt>
      <trkpt lat="43.65384" lon="3.41434">
        <ele>270.2</ele>
        <time>2022-05-19T06:48:08Z</time>
      </trkpt>
      <trkpt lat="43.65384" lon="3.41431">
        <ele>270.6</ele>
        <time>2022-05-19T06:48:16Z</time>
      </trkpt>
      <trkpt lat="43.65385" lon="3.41429">
        <ele>270.8</ele>
        <time>2022-05-19T06:48:24Z</time>
      </trkpt>
      <trkpt lat="43.65385" lon="3.41429">
        <ele>270.8</ele>
        <time>2022-05-19T06:48:27Z</time>
      </trkpt>
      <trkpt lat="43.65384" lon="3.41423">
        <ele>270.8</ele>
        <time>2022-05-19T06:48:29Z</time>
      </trkpt>
      <trkpt lat="43.65384" lon="3.4142">
        <ele>270.8</ele>
        <time>2022-05-19T06:48:30Z</time>
      </trkpt>
      <trkpt lat="43.65382" lon="3.41408">
        <ele>271</ele>
        <time>2022-05-19T06:48:34Z</time>
      </trkpt>
      <trkpt lat="43.65379" lon="3.41401">
        <ele>271.4</ele>
        <time>2022-05-19T06:48:37Z</time>
      </trkpt>
      <trkpt lat="43.65372" lon="3.41396">
        <ele>272</ele>
        <time>2022-05-19T06:48:42Z</time>
      </trkpt>
      <trkpt lat="43.65368" lon="3.41393">
        <ele>272.4</ele>
        <time>2022-05-19T06:48:45Z</time>
      </trkpt>
      <trkpt lat="43.65365" lon="3.41389">
        <ele>273</ele>
        <time>2022-05-19T06:48:48Z</time>
      </trkpt>
      <trkpt lat="43.65361" lon="3.41384">
        <ele>273.6</ele>
        <time>2022-05-19T06:48:52Z</time>
      </trkpt>
      <trkpt lat="43.65359" lon="3.41382">
        <ele>273.8</ele>
        <time>2022-05-19T06:48:54Z</time>
      </trkpt>
      <trkpt lat="43.65359" lon="3.41382">
        <ele>274.2</ele>
        <time>2022-05-19T06:48:55Z</time>
      </trkpt>
      <trkpt lat="43.65357" lon="3.41381">
        <ele>274.8</ele>
        <time>2022-05-19T06:48:58Z</time>
      </trkpt>
      <trkpt lat="43.65355" lon="3.41377">
        <ele>275.2</ele>
        <time>2022-05-19T06:49:01Z</time>
      </trkpt>
      <trkpt lat="43.65352" lon="3.41374">
        <ele>275.2</ele>
        <time>2022-05-19T06:49:03Z</time>
      </trkpt>
      <trkpt lat="43.65347" lon="3.41365">
        <ele>275.8</ele>
        <time>2022-05-19T06:49:08Z</time>
      </trkpt>
      <trkpt lat="43.65346" lon="3.41363">
        <ele>276.6</ele>
        <time>2022-05-19T06:49:10Z</time>
      </trkpt>
      <trkpt lat="43.65345" lon="3.41362">
        <ele>276.8</ele>
        <time>2022-05-19T06:49:11Z</time>
      </trkpt>
      <trkpt lat="43.65341" lon="3.4136">
        <ele>277.4</ele>
        <time>2022-05-19T06:49:14Z</time>
      </trkpt>
      <trkpt lat="43.65339" lon="3.41361">
        <ele>278</ele>
        <time>2022-05-19T06:49:16Z</time>
      </trkpt>
      <trkpt lat="43.65338" lon="3.41361">
        <ele>278.2</ele>
        <time>2022-05-19T06:49:17Z</time>
      </trkpt>
      <trkpt lat="43.65338" lon="3.41362">
        <ele>278.6</ele>
        <time>2022-05-19T06:49:19Z</time>
      </trkpt>
      <trkpt lat="43.65338" lon="3.41362">
        <ele>279</ele>
        <time>2022-05-19T06:49:20Z</time>
      </trkpt>
      <trkpt lat="43.65335" lon="3.41363">
        <ele>279.8</ele>
        <time>2022-05-19T06:49:26Z</time>
      </trkpt>
      <trkpt lat="43.65333" lon="3.41364">
        <ele>280</ele>
        <time>2022-05-19T06:49:29Z</time>
      </trkpt>
      <trkpt lat="43.6533" lon="3.4136">
        <ele>280.4</ele>
        <time>2022-05-19T06:49:34Z</time>
      </trkpt>
      <trkpt lat="43.65326" lon="3.41353">
        <ele>280.8</ele>
        <time>2022-05-19T06:49:42Z</time>
      </trkpt>
      <trkpt lat="43.65323" lon="3.41349">
        <ele>281</ele>
        <time>2022-05-19T06:49:50Z</time>
      </trkpt>
      <trkpt lat="43.65321" lon="3.41348">
        <ele>281</ele>
        <time>2022-05-19T06:49:56Z</time>
      </trkpt>
      <trkpt lat="43.65321" lon="3.41347">
        <ele>281</ele>
        <time>2022-05-19T06:51:53Z</time>
      </trkpt>
      <trkpt lat="43.65316" lon="3.41341">
        <ele>281</ele>
        <time>2022-05-19T06:52:08Z</time>
      </trkpt>
      <trkpt lat="43.65306" lon="3.41328">
        <ele>281</ele>
        <time>2022-05-19T06:52:15Z</time>
      </trkpt>
      <trkpt lat="43.65301" lon="3.41318">
        <ele>281</ele>
        <time>2022-05-19T06:52:20Z</time>
      </trkpt>
      <trkpt lat="43.65301" lon="3.41316">
        <ele>281</ele>
        <time>2022-05-19T06:52:21Z</time>
      </trkpt>
      <trkpt lat="43.65302" lon="3.41313">
        <ele>280.8</ele>
        <time>2022-05-19T06:52:23Z</time>
      </trkpt>
      <trkpt lat="43.65304" lon="3.41308">
        <ele>280.4</ele>
        <time>2022-05-19T06:52:26Z</time>
      </trkpt>
      <trkpt lat="43.65305" lon="3.41297">
        <ele>278.8</ele>
        <time>2022-05-19T06:52:32Z</time>
      </trkpt>
      <trkpt lat="43.65308" lon="3.41292">
        <ele>278</ele>
        <time>2022-05-19T06:52:34Z</time>
      </trkpt>
      <trkpt lat="43.65308" lon="3.41291">
        <ele>277.4</ele>
        <time>2022-05-19T06:52:35Z</time>
      </trkpt>
      <trkpt lat="43.65307" lon="3.41287">
        <ele>276.2</ele>
        <time>2022-05-19T06:52:37Z</time>
      </trkpt>
      <trkpt lat="43.65305" lon="3.41285">
        <ele>275.8</ele>
        <time>2022-05-19T06:52:39Z</time>
      </trkpt>
      <trkpt lat="43.65301" lon="3.41279">
        <ele>275</ele>
        <time>2022-05-19T06:52:43Z</time>
      </trkpt>
      <trkpt lat="43.65298" lon="3.41272">
        <ele>274.4</ele>
        <time>2022-05-19T06:52:46Z</time>
      </trkpt>
      <trkpt lat="43.65295" lon="3.41269">
        <ele>273.8</ele>
        <time>2022-05-19T06:52:49Z</time>
      </trkpt>
      <trkpt lat="43.65294" lon="3.41268">
        <ele>273.4</ele>
        <time>2022-05-19T06:52:51Z</time>
      </trkpt>
      <trkpt lat="43.65292" lon="3.41267">
        <ele>273</ele>
        <time>2022-05-19T06:52:58Z</time>
      </trkpt>
      <trkpt lat="43.65292" lon="3.41267">
        <ele>272.8</ele>
        <time>2022-05-19T06:53:03Z</time>
      </trkpt>
      <trkpt lat="43.65292" lon="3.41267">
        <ele>272.8</ele>
        <time>2022-05-19T06:53:10Z</time>
      </trkpt>
      <trkpt lat="43.65292" lon="3.41266">
        <ele>272.4</ele>
        <time>2022-05-19T06:53:22Z</time>
      </trkpt>
      <trkpt lat="43.65291" lon="3.41265">
        <ele>272.6</ele>
        <time>2022-05-19T06:53:34Z</time>
      </trkpt>
      <trkpt lat="43.65297" lon="3.41268">
        <ele>273.2</ele>
        <time>2022-05-19T06:53:55Z</time>
      </trkpt>
      <trkpt lat="43.65299" lon="3.41271">
        <ele>273.2</ele>
        <time>2022-05-19T06:54:03Z</time>
      </trkpt>
      <trkpt lat="43.65301" lon="3.41274">
        <ele>273.4</ele>
        <time>2022-05-19T06:54:11Z</time>
      </trkpt>
      <trkpt lat="43.65303" lon="3.41278">
        <ele>273.8</ele>
        <time>2022-05-19T06:54:18Z</time>
      </trkpt>
      <trkpt lat="43.65303" lon="3.41278">
        <ele>273.8</ele>
        <time>2022-05-19T06:54:21Z</time>
      </trkpt>
      <trkpt lat="43.65308" lon="3.41285">
        <ele>274</ele>
        <time>2022-05-19T06:54:27Z</time>
      </trkpt>
      <trkpt lat="43.65312" lon="3.41287">
        <ele>274.6</ele>
        <time>2022-05-19T06:54:34Z</time>
      </trkpt>
      <trkpt lat="43.65312" lon="3.41287">
        <ele>274.4</ele>
        <time>2022-05-19T06:54:41Z</time>
      </trkpt>
      <trkpt lat="43.65316" lon="3.41288">
        <ele>274.2</ele>
        <time>2022-05-19T06:54:47Z</time>
      </trkpt>
      <trkpt lat="43.65317" lon="3.41289">
        <ele>274.2</ele>
        <time>2022-05-19T06:54:48Z</time>
      </trkpt>
      <trkpt lat="43.65329" lon="3.41295">
        <ele>274</ele>
        <time>2022-05-19T06:54:54Z</time>
      </trkpt>
      <trkpt lat="43.65352" lon="3.41309">
        <ele>272.8</ele>
        <time>2022-05-19T06:55:03Z</time>
      </trkpt>
      <trkpt lat="43.65359" lon="3.41313">
        <ele>272</ele>
        <time>2022-05-19T06:55:08Z</time>
      </trkpt>
      <trkpt lat="43.65359" lon="3.41313">
        <ele>271.6</ele>
        <time>2022-05-19T06:55:12Z</time>
      </trkpt>
      <trkpt lat="43.65359" lon="3.41313">
        <ele>270.8</ele>
        <time>2022-05-19T06:55:20Z</time>
      </trkpt>
      <trkpt lat="43.65359" lon="3.41313">
        <ele>270.6</ele>
        <time>2022-05-19T06:55:28Z</time>
      </trkpt>
      <trkpt lat="43.65359" lon="3.41312">
        <ele>270.2</ele>
        <time>2022-05-19T06:57:44Z</time>
      </trkpt>
      <trkpt lat="43.65359" lon="3.41312">
        <ele>270.4</ele>
        <time>2022-05-19T06:57:48Z</time>
      </trkpt>
      <trkpt lat="43.65359" lon="3.41311">
        <ele>270.6</ele>
        <time>2022-05-19T06:58:29Z</time>
      </trkpt>
      <trkpt lat="43.65361" lon="3.41308">
        <ele>270.4</ele>
        <time>2022-05-19T06:58:31Z</time>
      </trkpt>
      <trkpt lat="43.65361" lon="3.41305">
        <ele>270.4</ele>
        <time>2022-05-19T06:58:32Z</time>
      </trkpt>
      <trkpt lat="43.65357" lon="3.41288">
        <ele>270</ele>
        <time>2022-05-19T06:58:37Z</time>
      </trkpt>
      <trkpt lat="43.6535" lon="3.41271">
        <ele>269.4</ele>
        <time>2022-05-19T06:58:41Z</time>
      </trkpt>
      <trkpt lat="43.65347" lon="3.41262">
        <ele>268.8</ele>
        <time>2022-05-19T06:58:44Z</time>
      </trkpt>
      <trkpt lat="43.65343" lon="3.41253">
        <ele>268</ele>
        <time>2022-05-19T06:58:48Z</time>
      </trkpt>
      <trkpt lat="43.65341" lon="3.41252">
        <ele>267.8</ele>
        <time>2022-05-19T06:58:49Z</time>
      </trkpt>
      <trkpt lat="43.6534" lon="3.41244">
        <ele>267</ele>
        <time>2022-05-19T06:58:54Z</time>
      </trkpt>
      <trkpt lat="43.6534" lon="3.41241">
        <ele>266.8</ele>
        <time>2022-05-19T06:58:55Z</time>
      </trkpt>
      <trkpt lat="43.65345" lon="3.41228">
        <ele>266</ele>
        <time>2022-05-19T06:58:59Z</time>
      </trkpt>
      <trkpt lat="43.65346" lon="3.41224">
        <ele>265.8</ele>
        <time>2022-05-19T06:59:00Z</time>
      </trkpt>
      <trkpt lat="43.65349" lon="3.41212">
        <ele>264.4</ele>
        <time>2022-05-19T06:59:03Z</time>
      </trkpt>
      <trkpt lat="43.65352" lon="3.41204">
        <ele>263.2</ele>
        <time>2022-05-19T06:59:05Z</time>
      </trkpt>
      <trkpt lat="43.65355" lon="3.41197">
        <ele>261.8</ele>
        <time>2022-05-19T06:59:07Z</time>
      </trkpt>
      <trkpt lat="43.65356" lon="3.41193">
        <ele>261.2</ele>
        <time>2022-05-19T06:59:08Z</time>
      </trkpt>
      <trkpt lat="43.65357" lon="3.4119">
        <ele>260.4</ele>
        <time>2022-05-19T06:59:09Z</time>
      </trkpt>
      <trkpt lat="43.65362" lon="3.41183">
        <ele>259</ele>
        <time>2022-05-19T06:59:11Z</time>
      </trkpt>
      <trkpt lat="43.65365" lon="3.41179">
        <ele>257.8</ele>
        <time>2022-05-19T06:59:12Z</time>
      </trkpt>
      <trkpt lat="43.65372" lon="3.41176">
        <ele>256.4</ele>
        <time>2022-05-19T06:59:14Z</time>
      </trkpt>
      <trkpt lat="43.65381" lon="3.41172">
        <ele>255</ele>
        <time>2022-05-19T06:59:16Z</time>
      </trkpt>
      <trkpt lat="43.65387" lon="3.41165">
        <ele>253.4</ele>
        <time>2022-05-19T06:59:18Z</time>
      </trkpt>
      <trkpt lat="43.65389" lon="3.41161">
        <ele>253.2</ele>
        <time>2022-05-19T06:59:19Z</time>
      </trkpt>
      <trkpt lat="43.65392" lon="3.41156">
        <ele>252.2</ele>
        <time>2022-05-19T06:59:20Z</time>
      </trkpt>
      <trkpt lat="43.65395" lon="3.41146">
        <ele>250.8</ele>
        <time>2022-05-19T06:59:22Z</time>
      </trkpt>
      <trkpt lat="43.65396" lon="3.41139">
        <ele>249.2</ele>
        <time>2022-05-19T06:59:24Z</time>
      </trkpt>
      <trkpt lat="43.65396" lon="3.41134">
        <ele>247.6</ele>
        <time>2022-05-19T06:59:26Z</time>
      </trkpt>
      <trkpt lat="43.65395" lon="3.41131">
        <ele>246.2</ele>
        <time>2022-05-19T06:59:28Z</time>
      </trkpt>
      <trkpt lat="43.65395" lon="3.41131">
        <ele>245</ele>
        <time>2022-05-19T06:59:30Z</time>
      </trkpt>
      <trkpt lat="43.65395" lon="3.41131">
        <ele>244</ele>
        <time>2022-05-19T06:59:34Z</time>
      </trkpt>
      <trkpt lat="43.65395" lon="3.41131">
        <ele>243.4</ele>
        <time>2022-05-19T06:59:36Z</time>
      </trkpt>
      <trkpt lat="43.65395" lon="3.4113">
        <ele>243.2</ele>
        <time>2022-05-19T06:59:42Z</time>
      </trkpt>
      <trkpt lat="43.65395" lon="3.4113">
        <ele>242.8</ele>
        <time>2022-05-19T06:59:49Z</time>
      </trkpt>
      <trkpt lat="43.65394" lon="3.41128">
        <ele>242.6</ele>
        <time>2022-05-19T07:00:21Z</time>
      </trkpt>
      <trkpt lat="43.65393" lon="3.41126">
        <ele>242.6</ele>
        <time>2022-05-19T07:00:23Z</time>
      </trkpt>
      <trkpt lat="43.65393" lon="3.41126">
        <ele>242.8</ele>
        <time>2022-05-19T07:00:31Z</time>
      </trkpt>
      <trkpt lat="43.65393" lon="3.41125">
        <ele>242.8</ele>
        <time>2022-05-19T07:01:02Z</time>
      </trkpt>
      <trkpt lat="43.65386" lon="3.41119">
        <ele>242.8</ele>
        <time>2022-05-19T07:01:05Z</time>
      </trkpt>
      <trkpt lat="43.65373" lon="3.41104">
        <ele>243.4</ele>
        <time>2022-05-19T07:01:12Z</time>
      </trkpt>
      <trkpt lat="43.65363" lon="3.41091">
        <ele>244</ele>
        <time>2022-05-19T07:01:17Z</time>
      </trkpt>
      <trkpt lat="43.65361" lon="3.41088">
        <ele>244</ele>
        <time>2022-05-19T07:01:18Z</time>
      </trkpt>
      <trkpt lat="43.65348" lon="3.41076">
        <ele>244.4</ele>
        <time>2022-05-19T07:01:24Z</time>
      </trkpt>
      <trkpt lat="43.65339" lon="3.41064">
        <ele>245.2</ele>
        <time>2022-05-19T07:01:30Z</time>
      </trkpt>
      <trkpt lat="43.65325" lon="3.4104">
        <ele>246</ele>
        <time>2022-05-19T07:01:38Z</time>
      </trkpt>
      <trkpt lat="43.65316" lon="3.41031">
        <ele>246.4</ele>
        <time>2022-05-19T07:01:43Z</time>
      </trkpt>
      <trkpt lat="43.65311" lon="3.41025">
        <ele>246.4</ele>
        <time>2022-05-19T07:01:45Z</time>
      </trkpt>
      <trkpt lat="43.65306" lon="3.4101">
        <ele>246.8</ele>
        <time>2022-05-19T07:01:51Z</time>
      </trkpt>
      <trkpt lat="43.65303" lon="3.40982">
        <ele>246</ele>
        <time>2022-05-19T07:02:00Z</time>
      </trkpt>
      <trkpt lat="43.65297" lon="3.40963">
        <ele>245.4</ele>
        <time>2022-05-19T07:02:06Z</time>
      </trkpt>
      <trkpt lat="43.65296" lon="3.40957">
        <ele>245.2</ele>
        <time>2022-05-19T07:02:07Z</time>
      </trkpt>
      <trkpt lat="43.65291" lon="3.4094">
        <ele>244.2</ele>
        <time>2022-05-19T07:02:11Z</time>
      </trkpt>
      <trkpt lat="43.65289" lon="3.40936">
        <ele>244</ele>
        <time>2022-05-19T07:02:12Z</time>
      </trkpt>
      <trkpt lat="43.65282" lon="3.40922">
        <ele>243.2</ele>
        <time>2022-05-19T07:02:16Z</time>
      </trkpt>
      <trkpt lat="43.65272" lon="3.40903">
        <ele>242.8</ele>
        <time>2022-05-19T07:02:21Z</time>
      </trkpt>
      <trkpt lat="43.65257" lon="3.40881">
        <ele>242.2</ele>
        <time>2022-05-19T07:02:29Z</time>
      </trkpt>
      <trkpt lat="43.65248" lon="3.4087">
        <ele>242.2</ele>
        <time>2022-05-19T07:02:32Z</time>
      </trkpt>
      <trkpt lat="43.6524" lon="3.40859">
        <ele>242.2</ele>
        <time>2022-05-19T07:02:36Z</time>
      </trkpt>
      <trkpt lat="43.65235" lon="3.40835">
        <ele>242.2</ele>
        <time>2022-05-19T07:02:42Z</time>
      </trkpt>
      <trkpt lat="43.65237" lon="3.40816">
        <ele>241.6</ele>
        <time>2022-05-19T07:02:48Z</time>
      </trkpt>
      <trkpt lat="43.65238" lon="3.40807">
        <ele>241</ele>
        <time>2022-05-19T07:02:51Z</time>
      </trkpt>
      <trkpt lat="43.65243" lon="3.4079">
        <ele>240.6</ele>
        <time>2022-05-19T07:02:55Z</time>
      </trkpt>
      <trkpt lat="43.65249" lon="3.40772">
        <ele>240.2</ele>
        <time>2022-05-19T07:03:00Z</time>
      </trkpt>
      <trkpt lat="43.65255" lon="3.40761">
        <ele>240</ele>
        <time>2022-05-19T07:03:03Z</time>
      </trkpt>
      <trkpt lat="43.65265" lon="3.40746">
        <ele>239.4</ele>
        <time>2022-05-19T07:03:08Z</time>
      </trkpt>
      <trkpt lat="43.65277" lon="3.40738">
        <ele>239</ele>
        <time>2022-05-19T07:03:14Z</time>
      </trkpt>
      <trkpt lat="43.6529" lon="3.40737">
        <ele>238.8</ele>
        <time>2022-05-19T07:03:20Z</time>
      </trkpt>
      <trkpt lat="43.65304" lon="3.40731">
        <ele>238.4</ele>
        <time>2022-05-19T07:03:26Z</time>
      </trkpt>
      <trkpt lat="43.65306" lon="3.40729">
        <ele>238</ele>
        <time>2022-05-19T07:03:28Z</time>
      </trkpt>
      <trkpt lat="43.65325" lon="3.40707">
        <ele>237.2</ele>
        <time>2022-05-19T07:03:35Z</time>
      </trkpt>
      <trkpt lat="43.6533" lon="3.40704">
        <ele>236.8</ele>
        <time>2022-05-19T07:03:37Z</time>
      </trkpt>
      <trkpt lat="43.65335" lon="3.40692">
        <ele>236.2</ele>
        <time>2022-05-19T07:03:40Z</time>
      </trkpt>
      <trkpt lat="43.65334" lon="3.40676">
        <ele>236.2</ele>
        <time>2022-05-19T07:03:44Z</time>
      </trkpt>
      <trkpt lat="43.65333" lon="3.40648">
        <ele>236.4</ele>
        <time>2022-05-19T07:03:51Z</time>
      </trkpt>
      <trkpt lat="43.65326" lon="3.40621">
        <ele>236.6</ele>
        <time>2022-05-19T07:03:58Z</time>
      </trkpt>
      <trkpt lat="43.65316" lon="3.40582">
        <ele>237.6</ele>
        <time>2022-05-19T07:04:07Z</time>
      </trkpt>
      <trkpt lat="43.6531" lon="3.40531">
        <ele>237.4</ele>
        <time>2022-05-19T07:04:18Z</time>
      </trkpt>
      <trkpt lat="43.65303" lon="3.40511">
        <ele>237.4</ele>
        <time>2022-05-19T07:04:23Z</time>
      </trkpt>
      <trkpt lat="43.6529" lon="3.40501">
        <ele>237.2</ele>
        <time>2022-05-19T07:04:27Z</time>
      </trkpt>
      <trkpt lat="43.65275" lon="3.40484">
        <ele>237</ele>
        <time>2022-05-19T07:04:33Z</time>
      </trkpt>
      <trkpt lat="43.65268" lon="3.40464">
        <ele>236.6</ele>
        <time>2022-05-19T07:04:38Z</time>
      </trkpt>
      <trkpt lat="43.65262" lon="3.40446">
        <ele>235.6</ele>
        <time>2022-05-19T07:04:44Z</time>
      </trkpt>
      <trkpt lat="43.65262" lon="3.40446">
        <ele>235.6</ele>
        <time>2022-05-19T07:04:45Z</time>
      </trkpt>
      <trkpt lat="43.65255" lon="3.40439">
        <ele>235.2</ele>
        <time>2022-05-19T07:04:50Z</time>
      </trkpt>
      <trkpt lat="43.65254" lon="3.40438">
        <ele>235</ele>
        <time>2022-05-19T07:04:51Z</time>
      </trkpt>
      <trkpt lat="43.65248" lon="3.40437">
        <ele>234.8</ele>
        <time>2022-05-19T07:04:55Z</time>
      </trkpt>
      <trkpt lat="43.65242" lon="3.40432">
        <ele>234.6</ele>
        <time>2022-05-19T07:04:59Z</time>
      </trkpt>
      <trkpt lat="43.65241" lon="3.40429">
        <ele>234.4</ele>
        <time>2022-05-19T07:05:00Z</time>
      </trkpt>
      <trkpt lat="43.65237" lon="3.40406">
        <ele>233.4</ele>
        <time>2022-05-19T07:05:05Z</time>
      </trkpt>
      <trkpt lat="43.65222" lon="3.40386">
        <ele>232.6</ele>
        <time>2022-05-19T07:05:10Z</time>
      </trkpt>
      <trkpt lat="43.65218" lon="3.40384">
        <ele>232.2</ele>
        <time>2022-05-19T07:05:11Z</time>
      </trkpt>
      <trkpt lat="43.65208" lon="3.40386">
        <ele>231.4</ele>
        <time>2022-05-19T07:05:14Z</time>
      </trkpt>
      <trkpt lat="43.65205" lon="3.40388">
        <ele>230.8</ele>
        <time>2022-05-19T07:05:16Z</time>
      </trkpt>
      <trkpt lat="43.65199" lon="3.4039">
        <ele>230.6</ele>
        <time>2022-05-19T07:05:17Z</time>
      </trkpt>
      <trkpt lat="43.65195" lon="3.4039">
        <ele>229.8</ele>
        <time>2022-05-19T07:05:19Z</time>
      </trkpt>
      <trkpt lat="43.65178" lon="3.4039">
        <ele>228.6</ele>
        <time>2022-05-19T07:05:25Z</time>
      </trkpt>
      <trkpt lat="43.65159" lon="3.40402">
        <ele>228.2</ele>
        <time>2022-05-19T07:05:29Z</time>
      </trkpt>
      <trkpt lat="43.65141" lon="3.40431">
        <ele>227.6</ele>
        <time>2022-05-19T07:05:36Z</time>
      </trkpt>
      <trkpt lat="43.65132" lon="3.40438">
        <ele>227.4</ele>
        <time>2022-05-19T07:05:39Z</time>
      </trkpt>
      <trkpt lat="43.65129" lon="3.40438">
        <ele>227.4</ele>
        <time>2022-05-19T07:05:40Z</time>
      </trkpt>
      <trkpt lat="43.65121" lon="3.40434">
        <ele>227.2</ele>
        <time>2022-05-19T07:05:42Z</time>
      </trkpt>
      <trkpt lat="43.65119" lon="3.40429">
        <ele>227.2</ele>
        <time>2022-05-19T07:05:43Z</time>
      </trkpt>
      <trkpt lat="43.65118" lon="3.40423">
        <ele>227</ele>
        <time>2022-05-19T07:05:44Z</time>
      </trkpt>
      <trkpt lat="43.65118" lon="3.40408">
        <ele>226.4</ele>
        <time>2022-05-19T07:05:47Z</time>
      </trkpt>
      <trkpt lat="43.65118" lon="3.40393">
        <ele>224.6</ele>
        <time>2022-05-19T07:05:50Z</time>
      </trkpt>
      <trkpt lat="43.65117" lon="3.40372">
        <ele>223.4</ele>
        <time>2022-05-19T07:05:53Z</time>
      </trkpt>
      <trkpt lat="43.65117" lon="3.4036">
        <ele>222.4</ele>
        <time>2022-05-19T07:05:55Z</time>
      </trkpt>
      <trkpt lat="43.65117" lon="3.40353">
        <ele>222.4</ele>
        <time>2022-05-19T07:05:56Z</time>
      </trkpt>
      <trkpt lat="43.65117" lon="3.40329">
        <ele>221.2</ele>
        <time>2022-05-19T07:05:59Z</time>
      </trkpt>
      <trkpt lat="43.65116" lon="3.40315">
        <ele>220.4</ele>
        <time>2022-05-19T07:06:01Z</time>
      </trkpt>
      <trkpt lat="43.65116" lon="3.40301">
        <ele>220</ele>
        <time>2022-05-19T07:06:03Z</time>
      </trkpt>
      <trkpt lat="43.65115" lon="3.40269">
        <ele>219</ele>
        <time>2022-05-19T07:06:08Z</time>
      </trkpt>
      <trkpt lat="43.65115" lon="3.40263">
        <ele>219</ele>
        <time>2022-05-19T07:06:09Z</time>
      </trkpt>
      <trkpt lat="43.6511" lon="3.40238">
        <ele>218.6</ele>
        <time>2022-05-19T07:06:14Z</time>
      </trkpt>
      <trkpt lat="43.65098" lon="3.40222">
        <ele>218.6</ele>
        <time>2022-05-19T07:06:19Z</time>
      </trkpt>
      <trkpt lat="43.65087" lon="3.40211">
        <ele>219.2</ele>
        <time>2022-05-19T07:06:24Z</time>
      </trkpt>
      <trkpt lat="43.65073" lon="3.40199">
        <ele>219.2</ele>
        <time>2022-05-19T07:06:31Z</time>
      </trkpt>
      <trkpt lat="43.65059" lon="3.40185">
        <ele>218.8</ele>
        <time>2022-05-19T07:06:36Z</time>
      </trkpt>
      <trkpt lat="43.6504" lon="3.40171">
        <ele>218</ele>
        <time>2022-05-19T07:06:42Z</time>
      </trkpt>
      <trkpt lat="43.65037" lon="3.40169">
        <ele>218</ele>
        <time>2022-05-19T07:06:43Z</time>
      </trkpt>
      <trkpt lat="43.65021" lon="3.4016">
        <ele>218</ele>
        <time>2022-05-19T07:06:48Z</time>
      </trkpt>
      <trkpt lat="43.65001" lon="3.40148">
        <ele>218</ele>
        <time>2022-05-19T07:06:54Z</time>
      </trkpt>
      <trkpt lat="43.64991" lon="3.40144">
        <ele>217.2</ele>
        <time>2022-05-19T07:06:59Z</time>
      </trkpt>
      <trkpt lat="43.64988" lon="3.40144">
        <ele>217.2</ele>
        <time>2022-05-19T07:07:01Z</time>
      </trkpt>
      <trkpt lat="43.64988" lon="3.40144">
        <ele>217</ele>
        <time>2022-05-19T07:07:04Z</time>
      </trkpt>
      <trkpt lat="43.64988" lon="3.40144">
        <ele>216.8</ele>
        <time>2022-05-19T07:07:06Z</time>
      </trkpt>
      <trkpt lat="43.64988" lon="3.40144">
        <ele>216.6</ele>
        <time>2022-05-19T07:07:20Z</time>
      </trkpt>
      <trkpt lat="43.64984" lon="3.40142">
        <ele>216.6</ele>
        <time>2022-05-19T07:07:25Z</time>
      </trkpt>
      <trkpt lat="43.6498" lon="3.4014">
        <ele>216.6</ele>
        <time>2022-05-19T07:07:31Z</time>
      </trkpt>
      <trkpt lat="43.64974" lon="3.4014">
        <ele>216.6</ele>
        <time>2022-05-19T07:08:08Z</time>
      </trkpt>
      <trkpt lat="43.64959" lon="3.40144">
        <ele>216.8</ele>
        <time>2022-05-19T07:08:14Z</time>
      </trkpt>
      <trkpt lat="43.64944" lon="3.4015">
        <ele>218</ele>
        <time>2022-05-19T07:08:20Z</time>
      </trkpt>
      <trkpt lat="43.64935" lon="3.40151">
        <ele>218.4</ele>
        <time>2022-05-19T07:08:23Z</time>
      </trkpt>
      <trkpt lat="43.64916" lon="3.40151">
        <ele>219</ele>
        <time>2022-05-19T07:08:30Z</time>
      </trkpt>
      <trkpt lat="43.64914" lon="3.40151">
        <ele>219.2</ele>
        <time>2022-05-19T07:08:31Z</time>
      </trkpt>
      <trkpt lat="43.64898" lon="3.40148">
        <ele>220.2</ele>
        <time>2022-05-19T07:08:37Z</time>
      </trkpt>
      <trkpt lat="43.64896" lon="3.40148">
        <ele>220.2</ele>
        <time>2022-05-19T07:08:38Z</time>
      </trkpt>
      <trkpt lat="43.64869" lon="3.40144">
        <ele>221.2</ele>
        <time>2022-05-19T07:08:48Z</time>
      </trkpt>
      <trkpt lat="43.64864" lon="3.40144">
        <ele>221.2</ele>
        <time>2022-05-19T07:08:50Z</time>
      </trkpt>
      <trkpt lat="43.64848" lon="3.40145">
        <ele>221.8</ele>
        <time>2022-05-19T07:08:56Z</time>
      </trkpt>
      <trkpt lat="43.64829" lon="3.40146">
        <ele>222</ele>
        <time>2022-05-19T07:09:03Z</time>
      </trkpt>
      <trkpt lat="43.64819" lon="3.40146">
        <ele>222.2</ele>
        <time>2022-05-19T07:09:07Z</time>
      </trkpt>
      <trkpt lat="43.64812" lon="3.40146">
        <ele>222.6</ele>
        <time>2022-05-19T07:09:10Z</time>
      </trkpt>
      <trkpt lat="43.64798" lon="3.40147">
        <ele>223</ele>
        <time>2022-05-19T07:09:15Z</time>
      </trkpt>
      <trkpt lat="43.64791" lon="3.40148">
        <ele>223.4</ele>
        <time>2022-05-19T07:09:17Z</time>
      </trkpt>
      <trkpt lat="43.64772" lon="3.40148">
        <ele>223.8</ele>
        <time>2022-05-19T07:09:23Z</time>
      </trkpt>
      <trkpt lat="43.64738" lon="3.40149">
        <ele>224.2</ele>
        <time>2022-05-19T07:09:33Z</time>
      </trkpt>
      <trkpt lat="43.64708" lon="3.40154">
        <ele>223.8</ele>
        <time>2022-05-19T07:09:42Z</time>
      </trkpt>
      <trkpt lat="43.64678" lon="3.40167">
        <ele>223.6</ele>
        <time>2022-05-19T07:09:51Z</time>
      </trkpt>
      <trkpt lat="43.64645" lon="3.40179">
        <ele>223.8</ele>
        <time>2022-05-19T07:10:01Z</time>
      </trkpt>
      <trkpt lat="43.6462" lon="3.40194">
        <ele>223.6</ele>
        <time>2022-05-19T07:10:08Z</time>
      </trkpt>
      <trkpt lat="43.64599" lon="3.40221">
        <ele>223.2</ele>
        <time>2022-05-19T07:10:16Z</time>
      </trkpt>
      <trkpt lat="43.64576" lon="3.40259">
        <ele>223.2</ele>
        <time>2022-05-19T07:10:26Z</time>
      </trkpt>
      <trkpt lat="43.64563" lon="3.40291">
        <ele>222.8</ele>
        <time>2022-05-19T07:10:32Z</time>
      </trkpt>
      <trkpt lat="43.64561" lon="3.40315">
        <ele>222.2</ele>
        <time>2022-05-19T07:10:36Z</time>
      </trkpt>
      <trkpt lat="43.64561" lon="3.40322">
        <ele>222</ele>
        <time>2022-05-19T07:10:37Z</time>
      </trkpt>
      <trkpt lat="43.64563" lon="3.40341">
        <ele>220.8</ele>
        <time>2022-05-19T07:10:40Z</time>
      </trkpt>
      <trkpt lat="43.64563" lon="3.40349">
        <ele>220.6</ele>
        <time>2022-05-19T07:10:41Z</time>
      </trkpt>
      <trkpt lat="43.64562" lon="3.40366">
        <ele>220</ele>
        <time>2022-05-19T07:10:43Z</time>
      </trkpt>
      <trkpt lat="43.64562" lon="3.40366">
        <ele>219.8</ele>
        <time>2022-05-19T07:10:44Z</time>
      </trkpt>
      <trkpt lat="43.64558" lon="3.4039">
        <ele>218.6</ele>
        <time>2022-05-19T07:10:47Z</time>
      </trkpt>
      <trkpt lat="43.64552" lon="3.40428">
        <ele>217.4</ele>
        <time>2022-05-19T07:10:51Z</time>
      </trkpt>
      <trkpt lat="43.64547" lon="3.40459">
        <ele>216.2</ele>
        <time>2022-05-19T07:10:55Z</time>
      </trkpt>
      <trkpt lat="43.64543" lon="3.40486">
        <ele>215.8</ele>
        <time>2022-05-19T07:10:58Z</time>
      </trkpt>
      <trkpt lat="43.64539" lon="3.40505">
        <ele>214.4</ele>
        <time>2022-05-19T07:11:00Z</time>
      </trkpt>
      <trkpt lat="43.64531" lon="3.40538">
        <ele>213.2</ele>
        <time>2022-05-19T07:11:03Z</time>
      </trkpt>
      <trkpt lat="43.64528" lon="3.40549">
        <ele>212.4</ele>
        <time>2022-05-19T07:11:04Z</time>
      </trkpt>
      <trkpt lat="43.64525" lon="3.40558">
        <ele>212.2</ele>
        <time>2022-05-19T07:11:05Z</time>
      </trkpt>
      <trkpt lat="43.64517" lon="3.40577">
        <ele>210.8</ele>
        <time>2022-05-19T07:11:07Z</time>
      </trkpt>
      <trkpt lat="43.64512" lon="3.40586">
        <ele>209.8</ele>
        <time>2022-05-19T07:11:08Z</time>
      </trkpt>
      <trkpt lat="43.64502" lon="3.40602">
        <ele>208.2</ele>
        <time>2022-05-19T07:11:10Z</time>
      </trkpt>
      <trkpt lat="43.64498" lon="3.4061">
        <ele>207.6</ele>
        <time>2022-05-19T07:11:11Z</time>
      </trkpt>
      <trkpt lat="43.64495" lon="3.40618">
        <ele>206.6</ele>
        <time>2022-05-19T07:11:12Z</time>
      </trkpt>
      <trkpt lat="43.64493" lon="3.40625">
        <ele>206</ele>
        <time>2022-05-19T07:11:13Z</time>
      </trkpt>
      <trkpt lat="43.64492" lon="3.40632">
        <ele>205</ele>
        <time>2022-05-19T07:11:14Z</time>
      </trkpt>
      <trkpt lat="43.64491" lon="3.40646">
        <ele>204</ele>
        <time>2022-05-19T07:11:16Z</time>
      </trkpt>
      <trkpt lat="43.6449" lon="3.40662">
        <ele>202.8</ele>
        <time>2022-05-19T07:11:18Z</time>
      </trkpt>
      <trkpt lat="43.64485" lon="3.40684">
        <ele>201.4</ele>
        <time>2022-05-19T07:11:21Z</time>
      </trkpt>
      <trkpt lat="43.64481" lon="3.40707">
        <ele>200.6</ele>
        <time>2022-05-19T07:11:24Z</time>
      </trkpt>
      <trkpt lat="43.6448" lon="3.40715">
        <ele>200.2</ele>
        <time>2022-05-19T07:11:25Z</time>
      </trkpt>
      <trkpt lat="43.64477" lon="3.40755">
        <ele>199</ele>
        <time>2022-05-19T07:11:30Z</time>
      </trkpt>
      <trkpt lat="43.64477" lon="3.40764">
        <ele>198.8</ele>
        <time>2022-05-19T07:11:31Z</time>
      </trkpt>
      <trkpt lat="43.64477" lon="3.40796">
        <ele>198</ele>
        <time>2022-05-19T07:11:35Z</time>
      </trkpt>
      <trkpt lat="43.64477" lon="3.40812">
        <ele>197.8</ele>
        <time>2022-05-19T07:11:37Z</time>
      </trkpt>
      <trkpt lat="43.64475" lon="3.40819">
        <ele>197.6</ele>
        <time>2022-05-19T07:11:38Z</time>
      </trkpt>
      <trkpt lat="43.64474" lon="3.40825">
        <ele>197.4</ele>
        <time>2022-05-19T07:11:39Z</time>
      </trkpt>
      <trkpt lat="43.64466" lon="3.4084">
        <ele>196.8</ele>
        <time>2022-05-19T07:11:42Z</time>
      </trkpt>
      <trkpt lat="43.64454" lon="3.40845">
        <ele>196.2</ele>
        <time>2022-05-19T07:11:46Z</time>
      </trkpt>
      <trkpt lat="43.64441" lon="3.40842">
        <ele>196</ele>
        <time>2022-05-19T07:11:51Z</time>
      </trkpt>
      <trkpt lat="43.64434" lon="3.40838">
        <ele>195.8</ele>
        <time>2022-05-19T07:11:53Z</time>
      </trkpt>
      <trkpt lat="43.64422" lon="3.40831">
        <ele>195.6</ele>
        <time>2022-05-19T07:11:56Z</time>
      </trkpt>
      <trkpt lat="43.64398" lon="3.40816">
        <ele>194.8</ele>
        <time>2022-05-19T07:12:04Z</time>
      </trkpt>
      <trkpt lat="43.64381" lon="3.40797">
        <ele>195</ele>
        <time>2022-05-19T07:12:10Z</time>
      </trkpt>
      <trkpt lat="43.6436" lon="3.40779">
        <ele>195.4</ele>
        <time>2022-05-19T07:12:16Z</time>
      </trkpt>
      <trkpt lat="43.64349" lon="3.40775">
        <ele>196.2</ele>
        <time>2022-05-19T07:12:21Z</time>
      </trkpt>
      <trkpt lat="43.64325" lon="3.40769">
        <ele>196.8</ele>
        <time>2022-05-19T07:12:28Z</time>
      </trkpt>
      <trkpt lat="43.64318" lon="3.40767">
        <ele>197</ele>
        <time>2022-05-19T07:12:29Z</time>
      </trkpt>
      <trkpt lat="43.64303" lon="3.40759">
        <ele>197</ele>
        <time>2022-05-19T07:12:33Z</time>
      </trkpt>
      <trkpt lat="43.64301" lon="3.40756">
        <ele>196.8</ele>
        <time>2022-05-19T07:12:34Z</time>
      </trkpt>
      <trkpt lat="43.64292" lon="3.40741">
        <ele>197</ele>
        <time>2022-05-19T07:12:39Z</time>
      </trkpt>
      <trkpt lat="43.64279" lon="3.40722">
        <ele>198</ele>
        <time>2022-05-19T07:12:47Z</time>
      </trkpt>
      <trkpt lat="43.64265" lon="3.40706">
        <ele>197.8</ele>
        <time>2022-05-19T07:12:52Z</time>
      </trkpt>
      <trkpt lat="43.64255" lon="3.40696">
        <ele>196.8</ele>
        <time>2022-05-19T07:12:57Z</time>
      </trkpt>
      <trkpt lat="43.64254" lon="3.40696">
        <ele>196.8</ele>
        <time>2022-05-19T07:12:58Z</time>
      </trkpt>
      <trkpt lat="43.6425" lon="3.40699">
        <ele>196.6</ele>
        <time>2022-05-19T07:13:01Z</time>
      </trkpt>
      <trkpt lat="43.6425" lon="3.40699">
        <ele>196.2</ele>
        <time>2022-05-19T07:13:09Z</time>
      </trkpt>
      <trkpt lat="43.64246" lon="3.40705">
        <ele>196.6</ele>
        <time>2022-05-19T07:13:31Z</time>
      </trkpt>
      <trkpt lat="43.6424" lon="3.40728">
        <ele>197.2</ele>
        <time>2022-05-19T07:13:39Z</time>
      </trkpt>
      <trkpt lat="43.64233" lon="3.4076">
        <ele>197.8</ele>
        <time>2022-05-19T07:13:48Z</time>
      </trkpt>
      <trkpt lat="43.64231" lon="3.40767">
        <ele>198.2</ele>
        <time>2022-05-19T07:13:50Z</time>
      </trkpt>
      <trkpt lat="43.64223" lon="3.40798">
        <ele>199.2</ele>
        <time>2022-05-19T07:13:58Z</time>
      </trkpt>
      <trkpt lat="43.64223" lon="3.40802">
        <ele>199.2</ele>
        <time>2022-05-19T07:13:59Z</time>
      </trkpt>
      <trkpt lat="43.64214" lon="3.40839">
        <ele>199.2</ele>
        <time>2022-05-19T07:14:07Z</time>
      </trkpt>
      <trkpt lat="43.64201" lon="3.4089">
        <ele>198.4</ele>
        <time>2022-05-19T07:14:17Z</time>
      </trkpt>
      <trkpt lat="43.64199" lon="3.409">
        <ele>198</ele>
        <time>2022-05-19T07:14:18Z</time>
      </trkpt>
      <trkpt lat="43.6419" lon="3.40937">
        <ele>197</ele>
        <time>2022-05-19T07:14:26Z</time>
      </trkpt>
      <trkpt lat="43.64185" lon="3.40954">
        <ele>196.6</ele>
        <time>2022-05-19T07:14:29Z</time>
      </trkpt>
      <trkpt lat="43.64181" lon="3.40965">
        <ele>196.4</ele>
        <time>2022-05-19T07:14:31Z</time>
      </trkpt>
      <trkpt lat="43.64169" lon="3.40986">
        <ele>196.2</ele>
        <time>2022-05-19T07:14:34Z</time>
      </trkpt>
      <trkpt lat="43.64169" lon="3.40986">
        <ele>196</ele>
        <time>2022-05-19T07:14:35Z</time>
      </trkpt>
      <trkpt lat="43.64165" lon="3.40991">
        <ele>196</ele>
        <time>2022-05-19T07:14:36Z</time>
      </trkpt>
      <trkpt lat="43.64143" lon="3.41023">
        <ele>195</ele>
        <time>2022-05-19T07:14:42Z</time>
      </trkpt>
      <trkpt lat="43.64131" lon="3.4104">
        <ele>194.8</ele>
        <time>2022-05-19T07:14:44Z</time>
      </trkpt>
      <trkpt lat="43.64116" lon="3.41073">
        <ele>193.6</ele>
        <time>2022-05-19T07:14:49Z</time>
      </trkpt>
      <trkpt lat="43.64113" lon="3.4108">
        <ele>193.2</ele>
        <time>2022-05-19T07:14:51Z</time>
      </trkpt>
      <trkpt lat="43.64105" lon="3.41102">
        <ele>192.4</ele>
        <time>2022-05-19T07:14:54Z</time>
      </trkpt>
      <trkpt lat="43.64103" lon="3.41109">
        <ele>192.2</ele>
        <time>2022-05-19T07:14:55Z</time>
      </trkpt>
      <trkpt lat="43.64091" lon="3.41151">
        <ele>191.6</ele>
        <time>2022-05-19T07:15:00Z</time>
      </trkpt>
      <trkpt lat="43.64089" lon="3.41157">
        <ele>191.4</ele>
        <time>2022-05-19T07:15:01Z</time>
      </trkpt>
      <trkpt lat="43.64075" lon="3.41203">
        <ele>190.2</ele>
        <time>2022-05-19T07:15:07Z</time>
      </trkpt>
      <trkpt lat="43.64066" lon="3.41233">
        <ele>189.4</ele>
        <time>2022-05-19T07:15:11Z</time>
      </trkpt>
      <trkpt lat="43.64061" lon="3.41248">
        <ele>189.2</ele>
        <time>2022-05-19T07:15:13Z</time>
      </trkpt>
      <trkpt lat="43.64052" lon="3.41281">
        <ele>188.2</ele>
        <time>2022-05-19T07:15:18Z</time>
      </trkpt>
      <trkpt lat="43.6405" lon="3.41288">
        <ele>188.2</ele>
        <time>2022-05-19T07:15:19Z</time>
      </trkpt>
      <trkpt lat="43.64044" lon="3.41308">
        <ele>187.2</ele>
        <time>2022-05-19T07:15:22Z</time>
      </trkpt>
      <trkpt lat="43.64041" lon="3.41315">
        <ele>186.8</ele>
        <time>2022-05-19T07:15:23Z</time>
      </trkpt>
      <trkpt lat="43.64034" lon="3.41327">
        <ele>186.4</ele>
        <time>2022-05-19T07:15:25Z</time>
      </trkpt>
      <trkpt lat="43.6403" lon="3.4133">
        <ele>186</ele>
        <time>2022-05-19T07:15:26Z</time>
      </trkpt>
      <trkpt lat="43.64013" lon="3.41343">
        <ele>185</ele>
        <time>2022-05-19T07:15:30Z</time>
      </trkpt>
      <trkpt lat="43.64009" lon="3.41346">
        <ele>184.8</ele>
        <time>2022-05-19T07:15:31Z</time>
      </trkpt>
      <trkpt lat="43.64" lon="3.41359">
        <ele>184.4</ele>
        <time>2022-05-19T07:15:34Z</time>
      </trkpt>
      <trkpt lat="43.63999" lon="3.41363">
        <ele>184.2</ele>
        <time>2022-05-19T07:15:35Z</time>
      </trkpt>
      <trkpt lat="43.64001" lon="3.4139">
        <ele>184</ele>
        <time>2022-05-19T07:15:40Z</time>
      </trkpt>
      <trkpt lat="43.64007" lon="3.41437">
        <ele>184</ele>
        <time>2022-05-19T07:15:48Z</time>
      </trkpt>
      <trkpt lat="43.64012" lon="3.41482">
        <ele>184.2</ele>
        <time>2022-05-19T07:15:56Z</time>
      </trkpt>
      <trkpt lat="43.64013" lon="3.41539">
        <ele>184.6</ele>
        <time>2022-05-19T07:16:06Z</time>
      </trkpt>
      <trkpt lat="43.64019" lon="3.41585">
        <ele>185</ele>
        <time>2022-05-19T07:16:15Z</time>
      </trkpt>
      <trkpt lat="43.64033" lon="3.4163">
        <ele>185.6</ele>
        <time>2022-05-19T07:16:25Z</time>
      </trkpt>
      <trkpt lat="43.64044" lon="3.41659">
        <ele>186</ele>
        <time>2022-05-19T07:16:32Z</time>
      </trkpt>
      <trkpt lat="43.64048" lon="3.41668">
        <ele>186.2</ele>
        <time>2022-05-19T07:16:34Z</time>
      </trkpt>
      <trkpt lat="43.64059" lon="3.41709">
        <ele>187</ele>
        <time>2022-05-19T07:16:44Z</time>
      </trkpt>
      <trkpt lat="43.6406" lon="3.41718">
        <ele>187</ele>
        <time>2022-05-19T07:16:46Z</time>
      </trkpt>
      <trkpt lat="43.64063" lon="3.41745">
        <ele>187</ele>
        <time>2022-05-19T07:16:52Z</time>
      </trkpt>
      <trkpt lat="43.64058" lon="3.41773">
        <ele>187</ele>
        <time>2022-05-19T07:16:58Z</time>
      </trkpt>
      <trkpt lat="43.6404" lon="3.41797">
        <ele>186.8</ele>
        <time>2022-05-19T07:17:04Z</time>
      </trkpt>
      <trkpt lat="43.64015" lon="3.41825">
        <ele>186.2</ele>
        <time>2022-05-19T07:17:10Z</time>
      </trkpt>
      <trkpt lat="43.64009" lon="3.4183">
        <ele>186</ele>
        <time>2022-05-19T07:17:11Z</time>
      </trkpt>
      <trkpt lat="43.63981" lon="3.4186">
        <ele>184.6</ele>
        <time>2022-05-19T07:17:16Z</time>
      </trkpt>
      <trkpt lat="43.63975" lon="3.41865">
        <ele>184</ele>
        <time>2022-05-19T07:17:17Z</time>
      </trkpt>
      <trkpt lat="43.63963" lon="3.4187">
        <ele>183.6</ele>
        <time>2022-05-19T07:17:19Z</time>
      </trkpt>
      <trkpt lat="43.63957" lon="3.41871">
        <ele>183</ele>
        <time>2022-05-19T07:17:20Z</time>
      </trkpt>
      <trkpt lat="43.63945" lon="3.4187">
        <ele>182.4</ele>
        <time>2022-05-19T07:17:22Z</time>
      </trkpt>
      <trkpt lat="43.6393" lon="3.41868">
        <ele>181</ele>
        <time>2022-05-19T07:17:24Z</time>
      </trkpt>
      <trkpt lat="43.63917" lon="3.41867">
        <ele>180.2</ele>
        <time>2022-05-19T07:17:26Z</time>
      </trkpt>
      <trkpt lat="43.63912" lon="3.41867">
        <ele>180</ele>
        <time>2022-05-19T07:17:27Z</time>
      </trkpt>
      <trkpt lat="43.63897" lon="3.41866">
        <ele>178.4</ele>
        <time>2022-05-19T07:17:30Z</time>
      </trkpt>
      <trkpt lat="43.63892" lon="3.41865">
        <ele>178.2</ele>
        <time>2022-05-19T07:17:31Z</time>
      </trkpt>
      <trkpt lat="43.63879" lon="3.41863">
        <ele>177.2</ele>
        <time>2022-05-19T07:17:33Z</time>
      </trkpt>
      <trkpt lat="43.63866" lon="3.41862">
        <ele>176.2</ele>
        <time>2022-05-19T07:17:35Z</time>
      </trkpt>
      <trkpt lat="43.63859" lon="3.41862">
        <ele>176</ele>
        <time>2022-05-19T07:17:36Z</time>
      </trkpt>
      <trkpt lat="43.63838" lon="3.4186">
        <ele>174.8</ele>
        <time>2022-05-19T07:17:39Z</time>
      </trkpt>
      <trkpt lat="43.63816" lon="3.41858">
        <ele>173.6</ele>
        <time>2022-05-19T07:17:42Z</time>
      </trkpt>
      <trkpt lat="43.63809" lon="3.41857">
        <ele>173.4</ele>
        <time>2022-05-19T07:17:43Z</time>
      </trkpt>
      <trkpt lat="43.63794" lon="3.41856">
        <ele>172.4</ele>
        <time>2022-05-19T07:17:45Z</time>
      </trkpt>
      <trkpt lat="43.63761" lon="3.41853">
        <ele>171</ele>
        <time>2022-05-19T07:17:49Z</time>
      </trkpt>
      <trkpt lat="43.63735" lon="3.41851">
        <ele>169.4</ele>
        <time>2022-05-19T07:17:52Z</time>
      </trkpt>
      <trkpt lat="43.63719" lon="3.4185">
        <ele>168.4</ele>
        <time>2022-05-19T07:17:54Z</time>
      </trkpt>
      <trkpt lat="43.637" lon="3.41848">
        <ele>167.2</ele>
        <time>2022-05-19T07:17:56Z</time>
      </trkpt>
      <trkpt lat="43.63668" lon="3.41846">
        <ele>165.6</ele>
        <time>2022-05-19T07:18:00Z</time>
      </trkpt>
      <trkpt lat="43.63644" lon="3.41844">
        <ele>164.6</ele>
        <time>2022-05-19T07:18:03Z</time>
      </trkpt>
      <trkpt lat="43.63624" lon="3.41842">
        <ele>163.4</ele>
        <time>2022-05-19T07:18:06Z</time>
      </trkpt>
      <trkpt lat="43.63619" lon="3.41842">
        <ele>162.6</ele>
        <time>2022-05-19T07:18:07Z</time>
      </trkpt>
      <trkpt lat="43.63615" lon="3.41844">
        <ele>162.4</ele>
        <time>2022-05-19T07:18:08Z</time>
      </trkpt>
      <trkpt lat="43.63603" lon="3.41849">
        <ele>161.2</ele>
        <time>2022-05-19T07:18:11Z</time>
      </trkpt>
      <trkpt lat="43.63597" lon="3.41854">
        <ele>160</ele>
        <time>2022-05-19T07:18:13Z</time>
      </trkpt>
      <trkpt lat="43.63589" lon="3.41867">
        <ele>159</ele>
        <time>2022-05-19T07:18:16Z</time>
      </trkpt>
      <trkpt lat="43.63586" lon="3.41871">
        <ele>159</ele>
        <time>2022-05-19T07:18:17Z</time>
      </trkpt>
      <trkpt lat="43.63579" lon="3.41879">
        <ele>158.6</ele>
        <time>2022-05-19T07:18:20Z</time>
      </trkpt>
      <trkpt lat="43.63576" lon="3.41878">
        <ele>158.4</ele>
        <time>2022-05-19T07:18:21Z</time>
      </trkpt>
      <trkpt lat="43.63572" lon="3.41874">
        <ele>158.2</ele>
        <time>2022-05-19T07:18:23Z</time>
      </trkpt>
      <trkpt lat="43.6357" lon="3.4187">
        <ele>157.8</ele>
        <time>2022-05-19T07:18:24Z</time>
      </trkpt>
      <trkpt lat="43.63561" lon="3.41851">
        <ele>157.2</ele>
        <time>2022-05-19T07:18:30Z</time>
      </trkpt>
      <trkpt lat="43.63559" lon="3.41849">
        <ele>157.2</ele>
        <time>2022-05-19T07:18:31Z</time>
      </trkpt>
      <trkpt lat="43.63541" lon="3.41847">
        <ele>157.2</ele>
        <time>2022-05-19T07:18:35Z</time>
      </trkpt>
      <trkpt lat="43.63519" lon="3.41846">
        <ele>156.8</ele>
        <time>2022-05-19T07:18:40Z</time>
      </trkpt>
      <trkpt lat="43.6351" lon="3.41848">
        <ele>156.4</ele>
        <time>2022-05-19T07:18:43Z</time>
      </trkpt>
      <trkpt lat="43.63497" lon="3.41839">
        <ele>155.8</ele>
        <time>2022-05-19T07:18:47Z</time>
      </trkpt>
      <trkpt lat="43.63493" lon="3.41839">
        <ele>155.8</ele>
        <time>2022-05-19T07:18:48Z</time>
      </trkpt>
      <trkpt lat="43.63474" lon="3.41838">
        <ele>155.2</ele>
        <time>2022-05-19T07:18:52Z</time>
      </trkpt>
      <trkpt lat="43.63455" lon="3.41833">
        <ele>154.8</ele>
        <time>2022-05-19T07:18:56Z</time>
      </trkpt>
      <trkpt lat="43.63444" lon="3.41829">
        <ele>154.6</ele>
        <time>2022-05-19T07:18:58Z</time>
      </trkpt>
      <trkpt lat="43.63417" lon="3.4182">
        <ele>153.8</ele>
        <time>2022-05-19T07:19:04Z</time>
      </trkpt>
      <trkpt lat="43.63398" lon="3.41819">
        <ele>153</ele>
        <time>2022-05-19T07:19:08Z</time>
      </trkpt>
      <trkpt lat="43.6338" lon="3.41816">
        <ele>152.4</ele>
        <time>2022-05-19T07:19:11Z</time>
      </trkpt>
      <trkpt lat="43.63333" lon="3.41814">
        <ele>151.2</ele>
        <time>2022-05-19T07:19:19Z</time>
      </trkpt>
      <trkpt lat="43.63327" lon="3.41814">
        <ele>151</ele>
        <time>2022-05-19T07:19:20Z</time>
      </trkpt>
      <trkpt lat="43.63308" lon="3.41812">
        <ele>150</ele>
        <time>2022-05-19T07:19:23Z</time>
      </trkpt>
      <trkpt lat="43.63295" lon="3.4181">
        <ele>149.8</ele>
        <time>2022-05-19T07:19:25Z</time>
      </trkpt>
      <trkpt lat="43.63274" lon="3.41809">
        <ele>149</ele>
        <time>2022-05-19T07:19:30Z</time>
      </trkpt>
      <trkpt lat="43.63261" lon="3.41808">
        <ele>148</ele>
        <time>2022-05-19T07:19:34Z</time>
      </trkpt>
      <trkpt lat="43.63247" lon="3.41808">
        <ele>147.2</ele>
        <time>2022-05-19T07:19:38Z</time>
      </trkpt>
      <trkpt lat="43.63235" lon="3.41806">
        <ele>146.8</ele>
        <time>2022-05-19T07:19:41Z</time>
      </trkpt>
      <trkpt lat="43.63222" lon="3.41808">
        <ele>146.4</ele>
        <time>2022-05-19T07:19:44Z</time>
      </trkpt>
      <trkpt lat="43.63197" lon="3.4182">
        <ele>146</ele>
        <time>2022-05-19T07:19:50Z</time>
      </trkpt>
      <trkpt lat="43.63182" lon="3.41826">
        <ele>145.6</ele>
        <time>2022-05-19T07:19:53Z</time>
      </trkpt>
      <trkpt lat="43.63159" lon="3.41839">
        <ele>145</ele>
        <time>2022-05-19T07:19:58Z</time>
      </trkpt>
      <trkpt lat="43.63139" lon="3.41851">
        <ele>144.4</ele>
        <time>2022-05-19T07:20:02Z</time>
      </trkpt>
      <trkpt lat="43.63124" lon="3.41858">
        <ele>144</ele>
        <time>2022-05-19T07:20:05Z</time>
      </trkpt>
      <trkpt lat="43.63118" lon="3.41861">
        <ele>144</ele>
        <time>2022-05-19T07:20:06Z</time>
      </trkpt>
      <trkpt lat="43.63102" lon="3.41869">
        <ele>143.4</ele>
        <time>2022-05-19T07:20:09Z</time>
      </trkpt>
      <trkpt lat="43.63066" lon="3.41887">
        <ele>142.6</ele>
        <time>2022-05-19T07:20:15Z</time>
      </trkpt>
      <trkpt lat="43.63045" lon="3.41899">
        <ele>142.4</ele>
        <time>2022-05-19T07:20:19Z</time>
      </trkpt>
      <trkpt lat="43.63017" lon="3.41915">
        <ele>141.6</ele>
        <time>2022-05-19T07:20:24Z</time>
      </trkpt>
      <trkpt lat="43.63006" lon="3.4192">
        <ele>141.2</ele>
        <time>2022-05-19T07:20:26Z</time>
      </trkpt>
      <trkpt lat="43.6299" lon="3.4193">
        <ele>140.6</ele>
        <time>2022-05-19T07:20:29Z</time>
      </trkpt>
      <trkpt lat="43.62984" lon="3.41933">
        <ele>140.4</ele>
        <time>2022-05-19T07:20:30Z</time>
      </trkpt>
      <trkpt lat="43.62972" lon="3.41938">
        <ele>140.2</ele>
        <time>2022-05-19T07:20:32Z</time>
      </trkpt>
      <trkpt lat="43.6296" lon="3.41944">
        <ele>139.6</ele>
        <time>2022-05-19T07:20:34Z</time>
      </trkpt>
      <trkpt lat="43.62943" lon="3.41954">
        <ele>139</ele>
        <time>2022-05-19T07:20:37Z</time>
      </trkpt>
      <trkpt lat="43.62929" lon="3.41961">
        <ele>138.6</ele>
        <time>2022-05-19T07:20:40Z</time>
      </trkpt>
      <trkpt lat="43.62922" lon="3.41966">
        <ele>138</ele>
        <time>2022-05-19T07:20:42Z</time>
      </trkpt>
      <trkpt lat="43.62911" lon="3.41976">
        <ele>137</ele>
        <time>2022-05-19T07:20:45Z</time>
      </trkpt>
      <trkpt lat="43.62909" lon="3.41978">
        <ele>136.8</ele>
        <time>2022-05-19T07:20:46Z</time>
      </trkpt>
      <trkpt lat="43.629" lon="3.41991">
        <ele>135.8</ele>
        <time>2022-05-19T07:20:50Z</time>
      </trkpt>
      <trkpt lat="43.62892" lon="3.42002">
        <ele>134.8</ele>
        <time>2022-05-19T07:20:53Z</time>
      </trkpt>
      <trkpt lat="43.62888" lon="3.42006">
        <ele>134.6</ele>
        <time>2022-05-19T07:20:54Z</time>
      </trkpt>
      <trkpt lat="43.62877" lon="3.42023">
        <ele>133.6</ele>
        <time>2022-05-19T07:20:58Z</time>
      </trkpt>
      <trkpt lat="43.62866" lon="3.42038">
        <ele>133.2</ele>
        <time>2022-05-19T07:21:02Z</time>
      </trkpt>
      <trkpt lat="43.6286" lon="3.42047">
        <ele>132.4</ele>
        <time>2022-05-19T07:21:06Z</time>
      </trkpt>
      <trkpt lat="43.6285" lon="3.42062">
        <ele>131.6</ele>
        <time>2022-05-19T07:21:11Z</time>
      </trkpt>
      <trkpt lat="43.62844" lon="3.4207">
        <ele>131.2</ele>
        <time>2022-05-19T07:21:13Z</time>
      </trkpt>
      <trkpt lat="43.62834" lon="3.42085">
        <ele>130.4</ele>
        <time>2022-05-19T07:21:17Z</time>
      </trkpt>
      <trkpt lat="43.62829" lon="3.42093">
        <ele>130.2</ele>
        <time>2022-05-19T07:21:19Z</time>
      </trkpt>
      <trkpt lat="43.62816" lon="3.42112">
        <ele>129.4</ele>
        <time>2022-05-19T07:21:23Z</time>
      </trkpt>
      <trkpt lat="43.62813" lon="3.42116">
        <ele>129.2</ele>
        <time>2022-05-19T07:21:24Z</time>
      </trkpt>
      <trkpt lat="43.62807" lon="3.42125">
        <ele>129</ele>
        <time>2022-05-19T07:21:26Z</time>
      </trkpt>
      <trkpt lat="43.62802" lon="3.42134">
        <ele>128.8</ele>
        <time>2022-05-19T07:21:28Z</time>
      </trkpt>
      <trkpt lat="43.62782" lon="3.42172">
        <ele>128</ele>
        <time>2022-05-19T07:21:35Z</time>
      </trkpt>
      <trkpt lat="43.62778" lon="3.42178">
        <ele>127.8</ele>
        <time>2022-05-19T07:21:36Z</time>
      </trkpt>
      <trkpt lat="43.62766" lon="3.42199">
        <ele>127</ele>
        <time>2022-05-19T07:21:40Z</time>
      </trkpt>
      <trkpt lat="43.62757" lon="3.42215">
        <ele>126</ele>
        <time>2022-05-19T07:21:43Z</time>
      </trkpt>
      <trkpt lat="43.62755" lon="3.42221">
        <ele>126</ele>
        <time>2022-05-19T07:21:44Z</time>
      </trkpt>
      <trkpt lat="43.62736" lon="3.42255">
        <ele>124.8</ele>
        <time>2022-05-19T07:21:50Z</time>
      </trkpt>
      <trkpt lat="43.6273" lon="3.42266">
        <ele>124.6</ele>
        <time>2022-05-19T07:21:52Z</time>
      </trkpt>
      <trkpt lat="43.62723" lon="3.42281">
        <ele>123.6</ele>
        <time>2022-05-19T07:21:55Z</time>
      </trkpt>
      <trkpt lat="43.62714" lon="3.423">
        <ele>122.8</ele>
        <time>2022-05-19T07:21:59Z</time>
      </trkpt>
      <trkpt lat="43.6271" lon="3.4231">
        <ele>122.2</ele>
        <time>2022-05-19T07:22:02Z</time>
      </trkpt>
      <trkpt lat="43.62706" lon="3.42319">
        <ele>121.4</ele>
        <time>2022-05-19T07:22:05Z</time>
      </trkpt>
      <trkpt lat="43.62704" lon="3.42322">
        <ele>121</ele>
        <time>2022-05-19T07:22:06Z</time>
      </trkpt>
      <trkpt lat="43.62696" lon="3.42341">
        <ele>120.4</ele>
        <time>2022-05-19T07:22:11Z</time>
      </trkpt>
      <trkpt lat="43.62691" lon="3.42353">
        <ele>120</ele>
        <time>2022-05-19T07:22:15Z</time>
      </trkpt>
      <trkpt lat="43.6269" lon="3.42357">
        <ele>120</ele>
        <time>2022-05-19T07:22:16Z</time>
      </trkpt>
      <trkpt lat="43.62687" lon="3.42364">
        <ele>119.8</ele>
        <time>2022-05-19T07:22:18Z</time>
      </trkpt>
      <trkpt lat="43.62683" lon="3.42371">
        <ele>119.8</ele>
        <time>2022-05-19T07:22:20Z</time>
      </trkpt>
      <trkpt lat="43.62679" lon="3.42376">
        <ele>119.6</ele>
        <time>2022-05-19T07:22:22Z</time>
      </trkpt>
      <trkpt lat="43.62666" lon="3.42392">
        <ele>119</ele>
        <time>2022-05-19T07:22:26Z</time>
      </trkpt>
      <trkpt lat="43.62658" lon="3.42407">
        <ele>118.4</ele>
        <time>2022-05-19T07:22:29Z</time>
      </trkpt>
      <trkpt lat="43.62651" lon="3.42424">
        <ele>118</ele>
        <time>2022-05-19T07:22:32Z</time>
      </trkpt>
      <trkpt lat="43.62649" lon="3.42431">
        <ele>117.8</ele>
        <time>2022-05-19T07:22:33Z</time>
      </trkpt>
      <trkpt lat="43.62636" lon="3.42469">
        <ele>117.2</ele>
        <time>2022-05-19T07:22:39Z</time>
      </trkpt>
      <trkpt lat="43.62631" lon="3.42482">
        <ele>116.6</ele>
        <time>2022-05-19T07:22:41Z</time>
      </trkpt>
      <trkpt lat="43.62623" lon="3.4251">
        <ele>115.6</ele>
        <time>2022-05-19T07:22:46Z</time>
      </trkpt>
      <trkpt lat="43.62622" lon="3.42518">
        <ele>115.2</ele>
        <time>2022-05-19T07:22:47Z</time>
      </trkpt>
      <trkpt lat="43.62617" lon="3.4253">
        <ele>114.4</ele>
        <time>2022-05-19T07:22:50Z</time>
      </trkpt>
      <trkpt lat="43.62615" lon="3.42533">
        <ele>114</ele>
        <time>2022-05-19T07:22:51Z</time>
      </trkpt>
      <trkpt lat="43.62606" lon="3.42542">
        <ele>113.2</ele>
        <time>2022-05-19T07:22:57Z</time>
      </trkpt>
      <trkpt lat="43.62606" lon="3.42542">
        <ele>113</ele>
        <time>2022-05-19T07:23:01Z</time>
      </trkpt>
      <trkpt lat="43.62605" lon="3.42543">
        <ele>113</ele>
        <time>2022-05-19T07:23:19Z</time>
      </trkpt>
      <trkpt lat="43.62606" lon="3.42542">
        <ele>113</ele>
        <time>2022-05-19T07:23:21Z</time>
      </trkpt>
      <trkpt lat="43.6261" lon="3.4254">
        <ele>113</ele>
        <time>2022-05-19T07:23:24Z</time>
      </trkpt>
      <trkpt lat="43.6261" lon="3.42539">
        <ele>112.8</ele>
        <time>2022-05-19T07:23:28Z</time>
      </trkpt>
      <trkpt lat="43.6261" lon="3.42538">
        <ele>112.6</ele>
        <time>2022-05-19T07:23:36Z</time>
      </trkpt>
      <trkpt lat="43.62611" lon="3.42537">
        <ele>112.4</ele>
        <time>2022-05-19T07:23:50Z</time>
      </trkpt>
      <trkpt lat="43.62611" lon="3.42537">
        <ele>112.8</ele>
        <time>2022-05-19T07:24:02Z</time>
      </trkpt>
      <trkpt lat="43.62609" lon="3.42539">
        <ele>112.6</ele>
        <time>2022-05-19T07:24:06Z</time>
      </trkpt>
      <trkpt lat="43.62605" lon="3.42543">
        <ele>112.8</ele>
        <time>2022-05-19T07:24:08Z</time>
      </trkpt>
      <trkpt lat="43.62593" lon="3.42551">
        <ele>113</ele>
        <time>2022-05-19T07:24:15Z</time>
      </trkpt>
      <trkpt lat="43.62588" lon="3.42553">
        <ele>113.2</ele>
        <time>2022-05-19T07:24:32Z</time>
      </trkpt>
      <trkpt lat="43.62577" lon="3.42549">
        <ele>113.2</ele>
        <time>2022-05-19T07:24:38Z</time>
      </trkpt>
      <trkpt lat="43.62575" lon="3.42544">
        <ele>113.2</ele>
        <time>2022-05-19T07:24:40Z</time>
      </trkpt>
      <trkpt lat="43.62575" lon="3.42537">
        <ele>113.2</ele>
        <time>2022-05-19T07:24:42Z</time>
      </trkpt>
      <trkpt lat="43.62575" lon="3.425">
        <ele>113.8</ele>
        <time>2022-05-19T07:24:51Z</time>
      </trkpt>
      <trkpt lat="43.62575" lon="3.42483">
        <ele>114</ele>
        <time>2022-05-19T07:24:55Z</time>
      </trkpt>
      <trkpt lat="43.62575" lon="3.42466">
        <ele>114.2</ele>
        <time>2022-05-19T07:24:59Z</time>
      </trkpt>
      <trkpt lat="43.62575" lon="3.42442">
        <ele>114.8</ele>
        <time>2022-05-19T07:25:05Z</time>
      </trkpt>
      <trkpt lat="43.62577" lon="3.42431">
        <ele>115.2</ele>
        <time>2022-05-19T07:25:08Z</time>
      </trkpt>
      <trkpt lat="43.62576" lon="3.42418">
        <ele>115.8</ele>
        <time>2022-05-19T07:25:12Z</time>
      </trkpt>
      <trkpt lat="43.62575" lon="3.42414">
        <ele>116</ele>
        <time>2022-05-19T07:25:13Z</time>
      </trkpt>
      <trkpt lat="43.62575" lon="3.42389">
        <ele>116.6</ele>
        <time>2022-05-19T07:25:20Z</time>
      </trkpt>
      <trkpt lat="43.62575" lon="3.42381">
        <ele>117</ele>
        <time>2022-05-19T07:25:23Z</time>
      </trkpt>
      <trkpt lat="43.62575" lon="3.42376">
        <ele>117.4</ele>
        <time>2022-05-19T07:25:26Z</time>
      </trkpt>
      <trkpt lat="43.62575" lon="3.42376">
        <ele>117.8</ele>
        <time>2022-05-19T07:25:30Z</time>
      </trkpt>
      <trkpt lat="43.62577" lon="3.4237">
        <ele>117.8</ele>
        <time>2022-05-19T07:25:41Z</time>
      </trkpt>
      <trkpt lat="43.62577" lon="3.4237">
        <ele>117.8</ele>
        <time>2022-05-19T07:25:50Z</time>
      </trkpt>
      <trkpt lat="43.62572" lon="3.42369">
        <ele>117.8</ele>
        <time>2022-05-19T07:25:52Z</time>
      </trkpt>
      <trkpt lat="43.62569" lon="3.42368">
        <ele>118</ele>
        <time>2022-05-19T07:25:53Z</time>
      </trkpt>
      <trkpt lat="43.62566" lon="3.42361">
        <ele>118.2</ele>
        <time>2022-05-19T07:25:56Z</time>
      </trkpt>
      <trkpt lat="43.62561" lon="3.42342">
        <ele>119.4</ele>
        <time>2022-05-19T07:26:04Z</time>
      </trkpt>
      <trkpt lat="43.6256" lon="3.4234">
        <ele>119.4</ele>
        <time>2022-05-19T07:26:05Z</time>
      </trkpt>
      <trkpt lat="43.62556" lon="3.42328">
        <ele>120.6</ele>
        <time>2022-05-19T07:26:11Z</time>
      </trkpt>
      <trkpt lat="43.62554" lon="3.42322">
        <ele>121</ele>
        <time>2022-05-19T07:26:14Z</time>
      </trkpt>
      <trkpt lat="43.62549" lon="3.42309">
        <ele>121.6</ele>
        <time>2022-05-19T07:26:20Z</time>
      </trkpt>
      <trkpt lat="43.62546" lon="3.42297">
        <ele>122.4</ele>
        <time>2022-05-19T07:26:25Z</time>
      </trkpt>
      <trkpt lat="43.62542" lon="3.4229">
        <ele>122.8</ele>
        <time>2022-05-19T07:26:28Z</time>
      </trkpt>
      <trkpt lat="43.62537" lon="3.42277">
        <ele>123.6</ele>
        <time>2022-05-19T07:26:34Z</time>
      </trkpt>
      <trkpt lat="43.62536" lon="3.42275">
        <ele>123.8</ele>
        <time>2022-05-19T07:26:35Z</time>
      </trkpt>
      <trkpt lat="43.6253" lon="3.42263">
        <ele>125</ele>
        <time>2022-05-19T07:26:41Z</time>
      </trkpt>
      <trkpt lat="43.62522" lon="3.42252">
        <ele>126.2</ele>
        <time>2022-05-19T07:26:47Z</time>
      </trkpt>
      <trkpt lat="43.62518" lon="3.42244">
        <ele>127</ele>
        <time>2022-05-19T07:26:51Z</time>
      </trkpt>
      <trkpt lat="43.62513" lon="3.42239">
        <ele>127.2</ele>
        <time>2022-05-19T07:26:54Z</time>
      </trkpt>
      <trkpt lat="43.62508" lon="3.42232">
        <ele>128</ele>
        <time>2022-05-19T07:26:58Z</time>
      </trkpt>
      <trkpt lat="43.62506" lon="3.4223">
        <ele>128.4</ele>
        <time>2022-05-19T07:27:00Z</time>
      </trkpt>
      <trkpt lat="43.62491" lon="3.4222">
        <ele>129.4</ele>
        <time>2022-05-19T07:27:07Z</time>
      </trkpt>
      <trkpt lat="43.62473" lon="3.42206">
        <ele>129.8</ele>
        <time>2022-05-19T07:27:13Z</time>
      </trkpt>
      <trkpt lat="43.62457" lon="3.42183">
        <ele>130</ele>
        <time>2022-05-19T07:27:19Z</time>
      </trkpt>
      <trkpt lat="43.62455" lon="3.42155">
        <ele>130</ele>
        <time>2022-05-19T07:27:24Z</time>
      </trkpt>
      <trkpt lat="43.62452" lon="3.42126">
        <ele>130</ele>
        <time>2022-05-19T07:27:30Z</time>
      </trkpt>
      <trkpt lat="43.62452" lon="3.42111">
        <ele>130.2</ele>
        <time>2022-05-19T07:27:33Z</time>
      </trkpt>
      <trkpt lat="43.6245" lon="3.42092">
        <ele>130.2</ele>
        <time>2022-05-19T07:27:37Z</time>
      </trkpt>
      <trkpt lat="43.62442" lon="3.42055">
        <ele>130.6</ele>
        <time>2022-05-19T07:27:45Z</time>
      </trkpt>
      <trkpt lat="43.62434" lon="3.42028">
        <ele>131.2</ele>
        <time>2022-05-19T07:27:52Z</time>
      </trkpt>
      <trkpt lat="43.6242" lon="3.42006">
        <ele>132</ele>
        <time>2022-05-19T07:28:00Z</time>
      </trkpt>
      <trkpt lat="43.62418" lon="3.42">
        <ele>132.6</ele>
        <time>2022-05-19T07:28:02Z</time>
      </trkpt>
      <trkpt lat="43.6241" lon="3.41977">
        <ele>133.6</ele>
        <time>2022-05-19T07:28:09Z</time>
      </trkpt>
      <trkpt lat="43.6241" lon="3.41974">
        <ele>133.8</ele>
        <time>2022-05-19T07:28:10Z</time>
      </trkpt>
      <trkpt lat="43.62405" lon="3.41945">
        <ele>134.6</ele>
        <time>2022-05-19T07:28:18Z</time>
      </trkpt>
      <trkpt lat="43.62405" lon="3.41941">
        <ele>135</ele>
        <time>2022-05-19T07:28:19Z</time>
      </trkpt>
      <trkpt lat="43.62405" lon="3.41917">
        <ele>135.8</ele>
        <time>2022-05-19T07:28:26Z</time>
      </trkpt>
      <trkpt lat="43.62402" lon="3.41912">
        <ele>136</ele>
        <time>2022-05-19T07:28:28Z</time>
      </trkpt>
      <trkpt lat="43.62396" lon="3.41907">
        <ele>136.6</ele>
        <time>2022-05-19T07:28:31Z</time>
      </trkpt>
      <trkpt lat="43.6239" lon="3.41904">
        <ele>137.2</ele>
        <time>2022-05-19T07:28:34Z</time>
      </trkpt>
      <trkpt lat="43.6238" lon="3.41901">
        <ele>137.8</ele>
        <time>2022-05-19T07:28:38Z</time>
      </trkpt>
      <trkpt lat="43.62372" lon="3.41899">
        <ele>138.4</ele>
        <time>2022-05-19T07:28:42Z</time>
      </trkpt>
      <trkpt lat="43.62363" lon="3.41896">
        <ele>139</ele>
        <time>2022-05-19T07:28:46Z</time>
      </trkpt>
      <trkpt lat="43.62359" lon="3.41895">
        <ele>139.4</ele>
        <time>2022-05-19T07:28:48Z</time>
      </trkpt>
      <trkpt lat="43.62347" lon="3.41891">
        <ele>140.4</ele>
        <time>2022-05-19T07:28:54Z</time>
      </trkpt>
      <trkpt lat="43.62333" lon="3.41885">
        <ele>141.6</ele>
        <time>2022-05-19T07:29:02Z</time>
      </trkpt>
      <trkpt lat="43.62322" lon="3.41881">
        <ele>142.6</ele>
        <time>2022-05-19T07:29:08Z</time>
      </trkpt>
      <trkpt lat="43.62313" lon="3.41877">
        <ele>143.6</ele>
        <time>2022-05-19T07:29:13Z</time>
      </trkpt>
      <trkpt lat="43.62312" lon="3.41876">
        <ele>143.8</ele>
        <time>2022-05-19T07:29:14Z</time>
      </trkpt>
      <trkpt lat="43.62302" lon="3.4187">
        <ele>144.8</ele>
        <time>2022-05-19T07:29:20Z</time>
      </trkpt>
      <trkpt lat="43.62299" lon="3.41869">
        <ele>145.4</ele>
        <time>2022-05-19T07:29:22Z</time>
      </trkpt>
      <trkpt lat="43.62295" lon="3.41866">
        <ele>146</ele>
        <time>2022-05-19T07:29:25Z</time>
      </trkpt>
      <trkpt lat="43.62289" lon="3.41864">
        <ele>146.8</ele>
        <time>2022-05-19T07:29:29Z</time>
      </trkpt>
      <trkpt lat="43.62286" lon="3.41862">
        <ele>147</ele>
        <time>2022-05-19T07:29:31Z</time>
      </trkpt>
      <trkpt lat="43.62275" lon="3.41856">
        <ele>148.2</ele>
        <time>2022-05-19T07:29:37Z</time>
      </trkpt>
      <trkpt lat="43.62273" lon="3.41855">
        <ele>148.2</ele>
        <time>2022-05-19T07:29:38Z</time>
      </trkpt>
      <trkpt lat="43.62265" lon="3.41851">
        <ele>149.2</ele>
        <time>2022-05-19T07:29:43Z</time>
      </trkpt>
      <trkpt lat="43.6226" lon="3.41847">
        <ele>149.6</ele>
        <time>2022-05-19T07:29:46Z</time>
      </trkpt>
      <trkpt lat="43.62254" lon="3.41843">
        <ele>150.4</ele>
        <time>2022-05-19T07:29:50Z</time>
      </trkpt>
      <trkpt lat="43.62247" lon="3.4184">
        <ele>151</ele>
        <time>2022-05-19T07:29:54Z</time>
      </trkpt>
      <trkpt lat="43.62244" lon="3.41837">
        <ele>151.4</ele>
        <time>2022-05-19T07:29:57Z</time>
      </trkpt>
      <trkpt lat="43.62236" lon="3.41834">
        <ele>152.2</ele>
        <time>2022-05-19T07:30:02Z</time>
      </trkpt>
      <trkpt lat="43.62234" lon="3.41832">
        <ele>152.6</ele>
        <time>2022-05-19T07:30:04Z</time>
      </trkpt>
      <trkpt lat="43.62227" lon="3.41828">
        <ele>153.6</ele>
        <time>2022-05-19T07:30:09Z</time>
      </trkpt>
      <trkpt lat="43.62225" lon="3.41827">
        <ele>153.6</ele>
        <time>2022-05-19T07:30:10Z</time>
      </trkpt>
      <trkpt lat="43.62219" lon="3.41822">
        <ele>154.6</ele>
        <time>2022-05-19T07:30:15Z</time>
      </trkpt>
      <trkpt lat="43.62216" lon="3.4182">
        <ele>155.2</ele>
        <time>2022-05-19T07:30:17Z</time>
      </trkpt>
      <trkpt lat="43.62213" lon="3.41818">
        <ele>155.8</ele>
        <time>2022-05-19T07:30:19Z</time>
      </trkpt>
      <trkpt lat="43.62205" lon="3.41812">
        <ele>157</ele>
        <time>2022-05-19T07:30:26Z</time>
      </trkpt>
      <trkpt lat="43.62201" lon="3.41807">
        <ele>157.4</ele>
        <time>2022-05-19T07:30:28Z</time>
      </trkpt>
      <trkpt lat="43.62193" lon="3.418">
        <ele>158.2</ele>
        <time>2022-05-19T07:30:33Z</time>
      </trkpt>
      <trkpt lat="43.62189" lon="3.41797">
        <ele>158.6</ele>
        <time>2022-05-19T07:30:36Z</time>
      </trkpt>
      <trkpt lat="43.62185" lon="3.41793">
        <ele>159.2</ele>
        <time>2022-05-19T07:30:39Z</time>
      </trkpt>
      <trkpt lat="43.62178" lon="3.41788">
        <ele>160</ele>
        <time>2022-05-19T07:30:43Z</time>
      </trkpt>
      <trkpt lat="43.6217" lon="3.41782">
        <ele>160.2</ele>
        <time>2022-05-19T07:30:47Z</time>
      </trkpt>
      <trkpt lat="43.62169" lon="3.41781">
        <ele>160.4</ele>
        <time>2022-05-19T07:30:48Z</time>
      </trkpt>
      <trkpt lat="43.62164" lon="3.41776">
        <ele>160.6</ele>
        <time>2022-05-19T07:30:51Z</time>
      </trkpt>
      <trkpt lat="43.62156" lon="3.41767">
        <ele>161.4</ele>
        <time>2022-05-19T07:30:56Z</time>
      </trkpt>
      <trkpt lat="43.62151" lon="3.41761">
        <ele>161.8</ele>
        <time>2022-05-19T07:30:59Z</time>
      </trkpt>
      <trkpt lat="43.62142" lon="3.41751">
        <ele>162.4</ele>
        <time>2022-05-19T07:31:05Z</time>
      </trkpt>
      <trkpt lat="43.62138" lon="3.41745">
        <ele>163</ele>
        <time>2022-05-19T07:31:08Z</time>
      </trkpt>
      <trkpt lat="43.62132" lon="3.41739">
        <ele>163.2</ele>
        <time>2022-05-19T07:31:12Z</time>
      </trkpt>
      <trkpt lat="43.62128" lon="3.41733">
        <ele>163.8</ele>
        <time>2022-05-19T07:31:15Z</time>
      </trkpt>
      <trkpt lat="43.62114" lon="3.41717">
        <ele>164.8</ele>
        <time>2022-05-19T07:31:24Z</time>
      </trkpt>
      <trkpt lat="43.62095" lon="3.41699">
        <ele>165.6</ele>
        <time>2022-05-19T07:31:33Z</time>
      </trkpt>
      <trkpt lat="43.62089" lon="3.41693">
        <ele>165.8</ele>
        <time>2022-05-19T07:31:36Z</time>
      </trkpt>
      <trkpt lat="43.62073" lon="3.41678">
        <ele>166.8</ele>
        <time>2022-05-19T07:31:44Z</time>
      </trkpt>
      <trkpt lat="43.62071" lon="3.41676">
        <ele>167</ele>
        <time>2022-05-19T07:31:45Z</time>
      </trkpt>
      <trkpt lat="43.62053" lon="3.41656">
        <ele>167.6</ele>
        <time>2022-05-19T07:31:53Z</time>
      </trkpt>
      <trkpt lat="43.6204" lon="3.41645">
        <ele>168</ele>
        <time>2022-05-19T07:31:59Z</time>
      </trkpt>
      <trkpt lat="43.62035" lon="3.41641">
        <ele>168.2</ele>
        <time>2022-05-19T07:32:01Z</time>
      </trkpt>
      <trkpt lat="43.62018" lon="3.41622">
        <ele>169.2</ele>
        <time>2022-05-19T07:32:09Z</time>
      </trkpt>
      <trkpt lat="43.62016" lon="3.4162">
        <ele>169.2</ele>
        <time>2022-05-19T07:32:10Z</time>
      </trkpt>
      <trkpt lat="43.62007" lon="3.41604">
        <ele>169.8</ele>
        <time>2022-05-19T07:32:16Z</time>
      </trkpt>
      <trkpt lat="43.61999" lon="3.4159">
        <ele>170.2</ele>
        <time>2022-05-19T07:32:21Z</time>
      </trkpt>
      <trkpt lat="43.61993" lon="3.4158">
        <ele>171</ele>
        <time>2022-05-19T07:32:25Z</time>
      </trkpt>
      <trkpt lat="43.61987" lon="3.41571">
        <ele>171.6</ele>
        <time>2022-05-19T07:32:29Z</time>
      </trkpt>
      <trkpt lat="43.61983" lon="3.41567">
        <ele>171.8</ele>
        <time>2022-05-19T07:32:31Z</time>
      </trkpt>
      <trkpt lat="43.61974" lon="3.41557">
        <ele>172.4</ele>
        <time>2022-05-19T07:32:36Z</time>
      </trkpt>
      <trkpt lat="43.61968" lon="3.41551">
        <ele>172.8</ele>
        <time>2022-05-19T07:32:39Z</time>
      </trkpt>
      <trkpt lat="43.6196" lon="3.4154">
        <ele>173.8</ele>
        <time>2022-05-19T07:32:44Z</time>
      </trkpt>
      <trkpt lat="43.61953" lon="3.41529">
        <ele>174.2</ele>
        <time>2022-05-19T07:32:49Z</time>
      </trkpt>
      <trkpt lat="43.61946" lon="3.41518">
        <ele>174.6</ele>
        <time>2022-05-19T07:32:54Z</time>
      </trkpt>
      <trkpt lat="43.61945" lon="3.41516">
        <ele>174.8</ele>
        <time>2022-05-19T07:32:55Z</time>
      </trkpt>
      <trkpt lat="43.61932" lon="3.41508">
        <ele>175.8</ele>
        <time>2022-05-19T07:33:02Z</time>
      </trkpt>
      <trkpt lat="43.61928" lon="3.41505">
        <ele>176</ele>
        <time>2022-05-19T07:33:04Z</time>
      </trkpt>
      <trkpt lat="43.61917" lon="3.41499">
        <ele>177</ele>
        <time>2022-05-19T07:33:10Z</time>
      </trkpt>
      <trkpt lat="43.61903" lon="3.41495">
        <ele>178</ele>
        <time>2022-05-19T07:33:17Z</time>
      </trkpt>
      <trkpt lat="43.61893" lon="3.41504">
        <ele>179</ele>
        <time>2022-05-19T07:33:24Z</time>
      </trkpt>
      <trkpt lat="43.61892" lon="3.41504">
        <ele>179.2</ele>
        <time>2022-05-19T07:33:25Z</time>
      </trkpt>
      <trkpt lat="43.61892" lon="3.41505">
        <ele>179.2</ele>
        <time>2022-05-19T07:33:27Z</time>
      </trkpt>
      <trkpt lat="43.61891" lon="3.41509">
        <ele>180</ele>
        <time>2022-05-19T07:33:35Z</time>
      </trkpt>
      <trkpt lat="43.61891" lon="3.41512">
        <ele>180.2</ele>
        <time>2022-05-19T07:33:38Z</time>
      </trkpt>
      <trkpt lat="43.6189" lon="3.41512">
        <ele>180.4</ele>
        <time>2022-05-19T07:33:42Z</time>
      </trkpt>
      <trkpt lat="43.61889" lon="3.41514">
        <ele>180.6</ele>
        <time>2022-05-19T07:33:48Z</time>
      </trkpt>
      <trkpt lat="43.61885" lon="3.41519">
        <ele>180.6</ele>
        <time>2022-05-19T07:33:50Z</time>
      </trkpt>
      <trkpt lat="43.61882" lon="3.41531">
        <ele>180.8</ele>
        <time>2022-05-19T07:33:55Z</time>
      </trkpt>
      <trkpt lat="43.61882" lon="3.41539">
        <ele>181.2</ele>
        <time>2022-05-19T07:33:58Z</time>
      </trkpt>
      <trkpt lat="43.61882" lon="3.41548">
        <ele>182</ele>
        <time>2022-05-19T07:34:02Z</time>
      </trkpt>
      <trkpt lat="43.61883" lon="3.41558">
        <ele>182.4</ele>
        <time>2022-05-19T07:34:06Z</time>
      </trkpt>
      <trkpt lat="43.61884" lon="3.41568">
        <ele>183.4</ele>
        <time>2022-05-19T07:34:11Z</time>
      </trkpt>
      <trkpt lat="43.61885" lon="3.4157">
        <ele>183.8</ele>
        <time>2022-05-19T07:34:12Z</time>
      </trkpt>
      <trkpt lat="43.61891" lon="3.41585">
        <ele>184.6</ele>
        <time>2022-05-19T07:34:18Z</time>
      </trkpt>
      <trkpt lat="43.61898" lon="3.41597">
        <ele>185.2</ele>
        <time>2022-05-19T07:34:24Z</time>
      </trkpt>
      <trkpt lat="43.61899" lon="3.41601">
        <ele>185.6</ele>
        <time>2022-05-19T07:34:26Z</time>
      </trkpt>
      <trkpt lat="43.61901" lon="3.41611">
        <ele>186.2</ele>
        <time>2022-05-19T07:34:31Z</time>
      </trkpt>
      <trkpt lat="43.619" lon="3.41615">
        <ele>186.6</ele>
        <time>2022-05-19T07:34:33Z</time>
      </trkpt>
      <trkpt lat="43.61898" lon="3.41617">
        <ele>187</ele>
        <time>2022-05-19T07:34:35Z</time>
      </trkpt>
      <trkpt lat="43.61894" lon="3.41618">
        <ele>187.4</ele>
        <time>2022-05-19T07:34:37Z</time>
      </trkpt>
      <trkpt lat="43.61892" lon="3.41617">
        <ele>187.8</ele>
        <time>2022-05-19T07:34:38Z</time>
      </trkpt>
      <trkpt lat="43.61883" lon="3.41609">
        <ele>188.8</ele>
        <time>2022-05-19T07:34:43Z</time>
      </trkpt>
      <trkpt lat="43.61882" lon="3.41608">
        <ele>188.8</ele>
        <time>2022-05-19T07:34:44Z</time>
      </trkpt>
      <trkpt lat="43.61876" lon="3.41602">
        <ele>189.2</ele>
        <time>2022-05-19T07:34:48Z</time>
      </trkpt>
      <trkpt lat="43.61867" lon="3.41593">
        <ele>189.8</ele>
        <time>2022-05-19T07:34:54Z</time>
      </trkpt>
      <trkpt lat="43.61866" lon="3.41591">
        <ele>190</ele>
        <time>2022-05-19T07:34:55Z</time>
      </trkpt>
      <trkpt lat="43.61858" lon="3.41581">
        <ele>191</ele>
        <time>2022-05-19T07:35:01Z</time>
      </trkpt>
      <trkpt lat="43.61857" lon="3.4158">
        <ele>191</ele>
        <time>2022-05-19T07:35:02Z</time>
      </trkpt>
      <trkpt lat="43.61855" lon="3.41579">
        <ele>191.2</ele>
        <time>2022-05-19T07:35:03Z</time>
      </trkpt>
      <trkpt lat="43.61853" lon="3.4158">
        <ele>191.4</ele>
        <time>2022-05-19T07:35:05Z</time>
      </trkpt>
      <trkpt lat="43.61852" lon="3.41582">
        <ele>191.8</ele>
        <time>2022-05-19T07:35:06Z</time>
      </trkpt>
      <trkpt lat="43.61851" lon="3.41584">
        <ele>191.8</ele>
        <time>2022-05-19T07:35:07Z</time>
      </trkpt>
      <trkpt lat="43.61852" lon="3.41586">
        <ele>192</ele>
        <time>2022-05-19T07:35:08Z</time>
      </trkpt>
      <trkpt lat="43.61853" lon="3.41592">
        <ele>192.4</ele>
        <time>2022-05-19T07:35:11Z</time>
      </trkpt>
      <trkpt lat="43.61859" lon="3.41599">
        <ele>193.2</ele>
        <time>2022-05-19T07:35:16Z</time>
      </trkpt>
      <trkpt lat="43.61862" lon="3.41604">
        <ele>193.8</ele>
        <time>2022-05-19T07:35:19Z</time>
      </trkpt>
      <trkpt lat="43.61863" lon="3.41608">
        <ele>194.4</ele>
        <time>2022-05-19T07:35:21Z</time>
      </trkpt>
      <trkpt lat="43.6187" lon="3.41622">
        <ele>195.6</ele>
        <time>2022-05-19T07:35:27Z</time>
      </trkpt>
      <trkpt lat="43.61871" lon="3.41626">
        <ele>195.8</ele>
        <time>2022-05-19T07:35:29Z</time>
      </trkpt>
      <trkpt lat="43.61875" lon="3.41638">
        <ele>196.6</ele>
        <time>2022-05-19T07:35:34Z</time>
      </trkpt>
      <trkpt lat="43.61881" lon="3.41649">
        <ele>197.2</ele>
        <time>2022-05-19T07:35:39Z</time>
      </trkpt>
      <trkpt lat="43.61887" lon="3.41655">
        <ele>197.8</ele>
        <time>2022-05-19T07:35:43Z</time>
      </trkpt>
      <trkpt lat="43.6189" lon="3.4166">
        <ele>198.4</ele>
        <time>2022-05-19T07:35:46Z</time>
      </trkpt>
      <trkpt lat="43.61894" lon="3.41666">
        <ele>199</ele>
        <time>2022-05-19T07:35:49Z</time>
      </trkpt>
      <trkpt lat="43.61903" lon="3.41677">
        <ele>199.6</ele>
        <time>2022-05-19T07:35:55Z</time>
      </trkpt>
      <trkpt lat="43.61909" lon="3.41684">
        <ele>200</ele>
        <time>2022-05-19T07:35:59Z</time>
      </trkpt>
      <trkpt lat="43.61917" lon="3.41694">
        <ele>200.4</ele>
        <time>2022-05-19T07:36:05Z</time>
      </trkpt>
      <trkpt lat="43.61922" lon="3.417">
        <ele>201</ele>
        <time>2022-05-19T07:36:09Z</time>
      </trkpt>
      <trkpt lat="43.61926" lon="3.41706">
        <ele>201.4</ele>
        <time>2022-05-19T07:36:12Z</time>
      </trkpt>
      <trkpt lat="43.61933" lon="3.41714">
        <ele>202.2</ele>
        <time>2022-05-19T07:36:17Z</time>
      </trkpt>
      <trkpt lat="43.61937" lon="3.41721">
        <ele>202.6</ele>
        <time>2022-05-19T07:36:20Z</time>
      </trkpt>
      <trkpt lat="43.61944" lon="3.4173">
        <ele>203.4</ele>
        <time>2022-05-19T07:36:25Z</time>
      </trkpt>
      <trkpt lat="43.61948" lon="3.41735">
        <ele>203.6</ele>
        <time>2022-05-19T07:36:28Z</time>
      </trkpt>
      <trkpt lat="43.61952" lon="3.41744">
        <ele>204.4</ele>
        <time>2022-05-19T07:36:33Z</time>
      </trkpt>
      <trkpt lat="43.61956" lon="3.4175">
        <ele>204.8</ele>
        <time>2022-05-19T07:36:36Z</time>
      </trkpt>
      <trkpt lat="43.6196" lon="3.41759">
        <ele>205.4</ele>
        <time>2022-05-19T07:36:41Z</time>
      </trkpt>
      <trkpt lat="43.61964" lon="3.41764">
        <ele>206</ele>
        <time>2022-05-19T07:36:44Z</time>
      </trkpt>
      <trkpt lat="43.61966" lon="3.4177">
        <ele>206.6</ele>
        <time>2022-05-19T07:36:47Z</time>
      </trkpt>
      <trkpt lat="43.61971" lon="3.4178">
        <ele>207.4</ele>
        <time>2022-05-19T07:36:53Z</time>
      </trkpt>
      <trkpt lat="43.61973" lon="3.41783">
        <ele>207.6</ele>
        <time>2022-05-19T07:36:55Z</time>
      </trkpt>
      <trkpt lat="43.61981" lon="3.41797">
        <ele>208.4</ele>
        <time>2022-05-19T07:37:03Z</time>
      </trkpt>
      <trkpt lat="43.61985" lon="3.41804">
        <ele>208.8</ele>
        <time>2022-05-19T07:37:07Z</time>
      </trkpt>
      <trkpt lat="43.61988" lon="3.41808">
        <ele>209.4</ele>
        <time>2022-05-19T07:37:10Z</time>
      </trkpt>
      <trkpt lat="43.61991" lon="3.41815">
        <ele>209.8</ele>
        <time>2022-05-19T07:37:14Z</time>
      </trkpt>
      <trkpt lat="43.61992" lon="3.41816">
        <ele>210</ele>
        <time>2022-05-19T07:37:15Z</time>
      </trkpt>
      <trkpt lat="43.61993" lon="3.41818">
        <ele>210</ele>
        <time>2022-05-19T07:37:16Z</time>
      </trkpt>
      <trkpt lat="43.61994" lon="3.41823">
        <ele>210.6</ele>
        <time>2022-05-19T07:37:22Z</time>
      </trkpt>
      <trkpt lat="43.61994" lon="3.41823">
        <ele>210.6</ele>
        <time>2022-05-19T07:37:34Z</time>
      </trkpt>
      <trkpt lat="43.61994" lon="3.41824">
        <ele>209.2</ele>
        <time>2022-05-19T07:40:19Z</time>
      </trkpt>
      <trkpt lat="43.61994" lon="3.41824">
        <ele>209.2</ele>
        <time>2022-05-19T07:42:05Z</time>
      </trkpt>
      <trkpt lat="43.61994" lon="3.41824">
        <ele>208.8</ele>
        <time>2022-05-19T07:46:51Z</time>
      </trkpt>
      <trkpt lat="43.61994" lon="3.41824">
        <ele>209.4</ele>
        <time>2022-05-19T07:52:27Z</time>
      </trkpt>
      <trkpt lat="43.61998" lon="3.41831">
        <ele>209.2</ele>
        <time>2022-05-19T07:52:44Z</time>
      </trkpt>
      <trkpt lat="43.62005" lon="3.41845">
        <ele>209.8</ele>
        <time>2022-05-19T07:52:50Z</time>
      </trkpt>
      <trkpt lat="43.62007" lon="3.41852">
        <ele>210.4</ele>
        <time>2022-05-19T07:52:53Z</time>
      </trkpt>
      <trkpt lat="43.62009" lon="3.41862">
        <ele>210.8</ele>
        <time>2022-05-19T07:52:57Z</time>
      </trkpt>
      <trkpt lat="43.6201" lon="3.41876">
        <ele>211.4</ele>
        <time>2022-05-19T07:53:03Z</time>
      </trkpt>
      <trkpt lat="43.6201" lon="3.41883">
        <ele>212</ele>
        <time>2022-05-19T07:53:06Z</time>
      </trkpt>
      <trkpt lat="43.62008" lon="3.4189">
        <ele>212.6</ele>
        <time>2022-05-19T07:53:09Z</time>
      </trkpt>
      <trkpt lat="43.62002" lon="3.419">
        <ele>213</ele>
        <time>2022-05-19T07:53:14Z</time>
      </trkpt>
      <trkpt lat="43.61996" lon="3.41908">
        <ele>213.6</ele>
        <time>2022-05-19T07:53:19Z</time>
      </trkpt>
      <trkpt lat="43.61991" lon="3.41913">
        <ele>214.4</ele>
        <time>2022-05-19T07:53:23Z</time>
      </trkpt>
      <trkpt lat="43.61989" lon="3.41915">
        <ele>214.6</ele>
        <time>2022-05-19T07:53:24Z</time>
      </trkpt>
      <trkpt lat="43.61981" lon="3.41922">
        <ele>215.4</ele>
        <time>2022-05-19T07:53:30Z</time>
      </trkpt>
      <trkpt lat="43.61976" lon="3.41925">
        <ele>215.8</ele>
        <time>2022-05-19T07:53:33Z</time>
      </trkpt>
      <trkpt lat="43.61966" lon="3.4193">
        <ele>216.8</ele>
        <time>2022-05-19T07:53:39Z</time>
      </trkpt>
      <trkpt lat="43.61963" lon="3.41932">
        <ele>217</ele>
        <time>2022-05-19T07:53:41Z</time>
      </trkpt>
      <trkpt lat="43.61957" lon="3.41937">
        <ele>218</ele>
        <time>2022-05-19T07:53:45Z</time>
      </trkpt>
      <trkpt lat="43.61949" lon="3.41944">
        <ele>219</ele>
        <time>2022-05-19T07:53:50Z</time>
      </trkpt>
      <trkpt lat="43.61947" lon="3.4196">
        <ele>219.8</ele>
        <time>2022-05-19T07:53:55Z</time>
      </trkpt>
      <trkpt lat="43.61948" lon="3.41963">
        <ele>220</ele>
        <time>2022-05-19T07:53:56Z</time>
      </trkpt>
      <trkpt lat="43.6195" lon="3.41966">
        <ele>220</ele>
        <time>2022-05-19T07:53:57Z</time>
      </trkpt>
      <trkpt lat="43.61955" lon="3.41973">
        <ele>220.6</ele>
        <time>2022-05-19T07:54:00Z</time>
      </trkpt>
      <trkpt lat="43.61964" lon="3.41983">
        <ele>221.2</ele>
        <time>2022-05-19T07:54:05Z</time>
      </trkpt>
      <trkpt lat="43.61968" lon="3.41987">
        <ele>221.4</ele>
        <time>2022-05-19T07:54:07Z</time>
      </trkpt>
      <trkpt lat="43.61983" lon="3.42007">
        <ele>222.2</ele>
        <time>2022-05-19T07:54:15Z</time>
      </trkpt>
      <trkpt lat="43.61998" lon="3.42024">
        <ele>223</ele>
        <time>2022-05-19T07:54:23Z</time>
      </trkpt>
      <trkpt lat="43.62" lon="3.42026">
        <ele>223.2</ele>
        <time>2022-05-19T07:54:24Z</time>
      </trkpt>
      <trkpt lat="43.62013" lon="3.42036">
        <ele>224.2</ele>
        <time>2022-05-19T07:54:31Z</time>
      </trkpt>
      <trkpt lat="43.62014" lon="3.42037">
        <ele>224.2</ele>
        <time>2022-05-19T07:54:32Z</time>
      </trkpt>
      <trkpt lat="43.62025" lon="3.42045">
        <ele>225.2</ele>
        <time>2022-05-19T07:54:39Z</time>
      </trkpt>
      <trkpt lat="43.62033" lon="3.4205">
        <ele>226.4</ele>
        <time>2022-05-19T07:54:44Z</time>
      </trkpt>
      <trkpt lat="43.62041" lon="3.42054">
        <ele>226.8</ele>
        <time>2022-05-19T07:54:48Z</time>
      </trkpt>
      <trkpt lat="43.62051" lon="3.4206">
        <ele>227.6</ele>
        <time>2022-05-19T07:54:53Z</time>
      </trkpt>
      <trkpt lat="43.62058" lon="3.42063">
        <ele>228.2</ele>
        <time>2022-05-19T07:54:57Z</time>
      </trkpt>
      <trkpt lat="43.62067" lon="3.42066">
        <ele>228.6</ele>
        <time>2022-05-19T07:55:02Z</time>
      </trkpt>
      <trkpt lat="43.62073" lon="3.42068">
        <ele>228.8</ele>
        <time>2022-05-19T07:55:04Z</time>
      </trkpt>
      <trkpt lat="43.62082" lon="3.42074">
        <ele>229.2</ele>
        <time>2022-05-19T07:55:09Z</time>
      </trkpt>
      <trkpt lat="43.62089" lon="3.4208">
        <ele>229.8</ele>
        <time>2022-05-19T07:55:13Z</time>
      </trkpt>
      <trkpt lat="43.62098" lon="3.42087">
        <ele>230.6</ele>
        <time>2022-05-19T07:55:18Z</time>
      </trkpt>
      <trkpt lat="43.62099" lon="3.42088">
        <ele>230.8</ele>
        <time>2022-05-19T07:55:19Z</time>
      </trkpt>
      <trkpt lat="43.62108" lon="3.42097">
        <ele>231.8</ele>
        <time>2022-05-19T07:55:25Z</time>
      </trkpt>
      <trkpt lat="43.6211" lon="3.42099">
        <ele>231.8</ele>
        <time>2022-05-19T07:55:26Z</time>
      </trkpt>
      <trkpt lat="43.62117" lon="3.42108">
        <ele>232.6</ele>
        <time>2022-05-19T07:55:32Z</time>
      </trkpt>
      <trkpt lat="43.62119" lon="3.42115">
        <ele>233</ele>
        <time>2022-05-19T07:55:35Z</time>
      </trkpt>
      <trkpt lat="43.62124" lon="3.42128">
        <ele>233.6</ele>
        <time>2022-05-19T07:55:41Z</time>
      </trkpt>
      <trkpt lat="43.62125" lon="3.4213">
        <ele>234</ele>
        <time>2022-05-19T07:55:42Z</time>
      </trkpt>
      <trkpt lat="43.62129" lon="3.42142">
        <ele>234.8</ele>
        <time>2022-05-19T07:55:47Z</time>
      </trkpt>
      <trkpt lat="43.6213" lon="3.42144">
        <ele>235</ele>
        <time>2022-05-19T07:55:48Z</time>
      </trkpt>
      <trkpt lat="43.62135" lon="3.42162">
        <ele>236</ele>
        <time>2022-05-19T07:55:54Z</time>
      </trkpt>
      <trkpt lat="43.62136" lon="3.42163">
        <ele>236.2</ele>
        <time>2022-05-19T07:55:55Z</time>
      </trkpt>
      <trkpt lat="43.62136" lon="3.42163">
        <ele>236.4</ele>
        <time>2022-05-19T07:56:01Z</time>
      </trkpt>
      <trkpt lat="43.62143" lon="3.42169">
        <ele>236.4</ele>
        <time>2022-05-19T07:56:08Z</time>
      </trkpt>
      <trkpt lat="43.62152" lon="3.42191">
        <ele>235.8</ele>
        <time>2022-05-19T07:56:13Z</time>
      </trkpt>
      <trkpt lat="43.62154" lon="3.42213">
        <ele>235.2</ele>
        <time>2022-05-19T07:56:17Z</time>
      </trkpt>
      <trkpt lat="43.62153" lon="3.42219">
        <ele>234.8</ele>
        <time>2022-05-19T07:56:18Z</time>
      </trkpt>
      <trkpt lat="43.6215" lon="3.42238">
        <ele>233.6</ele>
        <time>2022-05-19T07:56:21Z</time>
      </trkpt>
      <trkpt lat="43.62148" lon="3.42245">
        <ele>233.4</ele>
        <time>2022-05-19T07:56:22Z</time>
      </trkpt>
      <trkpt lat="43.62142" lon="3.42266">
        <ele>232.2</ele>
        <time>2022-05-19T07:56:25Z</time>
      </trkpt>
      <trkpt lat="43.62134" lon="3.42289">
        <ele>231.6</ele>
        <time>2022-05-19T07:56:28Z</time>
      </trkpt>
      <trkpt lat="43.62128" lon="3.42306">
        <ele>231</ele>
        <time>2022-05-19T07:56:30Z</time>
      </trkpt>
      <trkpt lat="43.62125" lon="3.42315">
        <ele>230.6</ele>
        <time>2022-05-19T07:56:31Z</time>
      </trkpt>
      <trkpt lat="43.62121" lon="3.42334">
        <ele>230.2</ele>
        <time>2022-05-19T07:56:33Z</time>
      </trkpt>
      <trkpt lat="43.62119" lon="3.42345">
        <ele>229.4</ele>
        <time>2022-05-19T07:56:34Z</time>
      </trkpt>
      <trkpt lat="43.62118" lon="3.42367">
        <ele>228.8</ele>
        <time>2022-05-19T07:56:36Z</time>
      </trkpt>
      <trkpt lat="43.62124" lon="3.42388">
        <ele>228</ele>
        <time>2022-05-19T07:56:38Z</time>
      </trkpt>
      <trkpt lat="43.62127" lon="3.42394">
        <ele>228</ele>
        <time>2022-05-19T07:56:39Z</time>
      </trkpt>
      <trkpt lat="43.62131" lon="3.42402">
        <ele>227.2</ele>
        <time>2022-05-19T07:56:40Z</time>
      </trkpt>
      <trkpt lat="43.62136" lon="3.4241">
        <ele>226.8</ele>
        <time>2022-05-19T07:56:41Z</time>
      </trkpt>
      <trkpt lat="43.62144" lon="3.42421">
        <ele>226.2</ele>
        <time>2022-05-19T07:56:43Z</time>
      </trkpt>
      <trkpt lat="43.62151" lon="3.42429">
        <ele>225.8</ele>
        <time>2022-05-19T07:56:45Z</time>
      </trkpt>
      <trkpt lat="43.62158" lon="3.42436">
        <ele>225.4</ele>
        <time>2022-05-19T07:56:47Z</time>
      </trkpt>
      <trkpt lat="43.62168" lon="3.42446">
        <ele>224.8</ele>
        <time>2022-05-19T07:56:51Z</time>
      </trkpt>
      <trkpt lat="43.6217" lon="3.42449">
        <ele>224.8</ele>
        <time>2022-05-19T07:56:52Z</time>
      </trkpt>
      <trkpt lat="43.62173" lon="3.42452">
        <ele>224.8</ele>
        <time>2022-05-19T07:56:53Z</time>
      </trkpt>
      <trkpt lat="43.62182" lon="3.42461">
        <ele>224.6</ele>
        <time>2022-05-19T07:56:56Z</time>
      </trkpt>
      <trkpt lat="43.62194" lon="3.42476">
        <ele>224.4</ele>
        <time>2022-05-19T07:56:59Z</time>
      </trkpt>
      <trkpt lat="43.62198" lon="3.4248">
        <ele>224.4</ele>
        <time>2022-05-19T07:57:00Z</time>
      </trkpt>
      <trkpt lat="43.62201" lon="3.42485">
        <ele>224.2</ele>
        <time>2022-05-19T07:57:01Z</time>
      </trkpt>
      <trkpt lat="43.62207" lon="3.42498">
        <ele>223.4</ele>
        <time>2022-05-19T07:57:04Z</time>
      </trkpt>
      <trkpt lat="43.62214" lon="3.42524">
        <ele>222.6</ele>
        <time>2022-05-19T07:57:10Z</time>
      </trkpt>
      <trkpt lat="43.62217" lon="3.42533">
        <ele>222.4</ele>
        <time>2022-05-19T07:57:12Z</time>
      </trkpt>
      <trkpt lat="43.62226" lon="3.42561">
        <ele>221.8</ele>
        <time>2022-05-19T07:57:18Z</time>
      </trkpt>
      <trkpt lat="43.62235" lon="3.42604">
        <ele>221.6</ele>
        <time>2022-05-19T07:57:27Z</time>
      </trkpt>
      <trkpt lat="43.6225" lon="3.42627">
        <ele>221.4</ele>
        <time>2022-05-19T07:57:33Z</time>
      </trkpt>
      <trkpt lat="43.62253" lon="3.42631">
        <ele>221.2</ele>
        <time>2022-05-19T07:57:34Z</time>
      </trkpt>
      <trkpt lat="43.62273" lon="3.42647">
        <ele>220.8</ele>
        <time>2022-05-19T07:57:39Z</time>
      </trkpt>
      <trkpt lat="43.62282" lon="3.4265">
        <ele>220.6</ele>
        <time>2022-05-19T07:57:41Z</time>
      </trkpt>
      <trkpt lat="43.62291" lon="3.42652">
        <ele>220.4</ele>
        <time>2022-05-19T07:57:43Z</time>
      </trkpt>
      <trkpt lat="43.62301" lon="3.42652">
        <ele>220.4</ele>
        <time>2022-05-19T07:57:45Z</time>
      </trkpt>
      <trkpt lat="43.6231" lon="3.42651">
        <ele>220.4</ele>
        <time>2022-05-19T07:57:47Z</time>
      </trkpt>
      <trkpt lat="43.62318" lon="3.42648">
        <ele>220.4</ele>
        <time>2022-05-19T07:57:49Z</time>
      </trkpt>
      <trkpt lat="43.62326" lon="3.42646">
        <ele>220.4</ele>
        <time>2022-05-19T07:57:51Z</time>
      </trkpt>
      <trkpt lat="43.62347" lon="3.42643">
        <ele>220.8</ele>
        <time>2022-05-19T07:57:57Z</time>
      </trkpt>
      <trkpt lat="43.62366" lon="3.42649">
        <ele>221</ele>
        <time>2022-05-19T07:58:03Z</time>
      </trkpt>
      <trkpt lat="43.62375" lon="3.42656">
        <ele>221.2</ele>
        <time>2022-05-19T07:58:07Z</time>
      </trkpt>
      <trkpt lat="43.62384" lon="3.42664">
        <ele>221.4</ele>
        <time>2022-05-19T07:58:12Z</time>
      </trkpt>
      <trkpt lat="43.62399" lon="3.42675">
        <ele>220.8</ele>
        <time>2022-05-19T07:58:18Z</time>
      </trkpt>
      <trkpt lat="43.62411" lon="3.42684">
        <ele>220.6</ele>
        <time>2022-05-19T07:58:24Z</time>
      </trkpt>
      <trkpt lat="43.62414" lon="3.42686">
        <ele>220.2</ele>
        <time>2022-05-19T07:58:26Z</time>
      </trkpt>
      <trkpt lat="43.62415" lon="3.42686">
        <ele>220</ele>
        <time>2022-05-19T07:58:30Z</time>
      </trkpt>
      <trkpt lat="43.62416" lon="3.42687">
        <ele>219.6</ele>
        <time>2022-05-19T07:58:40Z</time>
      </trkpt>
      <trkpt lat="43.62416" lon="3.42687">
        <ele>219.6</ele>
        <time>2022-05-19T07:58:44Z</time>
      </trkpt>
      <trkpt lat="43.62421" lon="3.42696">
        <ele>219.6</ele>
        <time>2022-05-19T07:58:47Z</time>
      </trkpt>
      <trkpt lat="43.62428" lon="3.42711">
        <ele>219.6</ele>
        <time>2022-05-19T07:58:53Z</time>
      </trkpt>
      <trkpt lat="43.62429" lon="3.42711">
        <ele>219.2</ele>
        <time>2022-05-19T07:58:58Z</time>
      </trkpt>
      <trkpt lat="43.62429" lon="3.42711">
        <ele>218.8</ele>
        <time>2022-05-19T07:59:00Z</time>
      </trkpt>
      <trkpt lat="43.62429" lon="3.42711">
        <ele>218.2</ele>
        <time>2022-05-19T07:59:26Z</time>
      </trkpt>
      <trkpt lat="43.62429" lon="3.42711">
        <ele>218.2</ele>
        <time>2022-05-19T08:00:20Z</time>
      </trkpt>
      <trkpt lat="43.62429" lon="3.42711">
        <ele>218.6</ele>
        <time>2022-05-19T08:00:48Z</time>
      </trkpt>
      <trkpt lat="43.62426" lon="3.42717">
        <ele>218.6</ele>
        <time>2022-05-19T08:00:51Z</time>
      </trkpt>
      <trkpt lat="43.62421" lon="3.42728">
        <ele>219</ele>
        <time>2022-05-19T08:00:56Z</time>
      </trkpt>
      <trkpt lat="43.62417" lon="3.42736">
        <ele>219.2</ele>
        <time>2022-05-19T08:00:59Z</time>
      </trkpt>
      <trkpt lat="43.62408" lon="3.42755">
        <ele>219.2</ele>
        <time>2022-05-19T08:01:04Z</time>
      </trkpt>
      <trkpt lat="43.62396" lon="3.42785">
        <ele>218.4</ele>
        <time>2022-05-19T08:01:10Z</time>
      </trkpt>
      <trkpt lat="43.6238" lon="3.42827">
        <ele>217.6</ele>
        <time>2022-05-19T08:01:16Z</time>
      </trkpt>
      <trkpt lat="43.62377" lon="3.42835">
        <ele>217.6</ele>
        <time>2022-05-19T08:01:17Z</time>
      </trkpt>
      <trkpt lat="43.62365" lon="3.42874">
        <ele>216.4</ele>
        <time>2022-05-19T08:01:22Z</time>
      </trkpt>
      <trkpt lat="43.62362" lon="3.42883">
        <ele>216.4</ele>
        <time>2022-05-19T08:01:23Z</time>
      </trkpt>
      <trkpt lat="43.62358" lon="3.42894">
        <ele>215.2</ele>
        <time>2022-05-19T08:01:25Z</time>
      </trkpt>
      <trkpt lat="43.62353" lon="3.429">
        <ele>214.6</ele>
        <time>2022-05-19T08:01:27Z</time>
      </trkpt>
      <trkpt lat="43.62347" lon="3.42906">
        <ele>213.8</ele>
        <time>2022-05-19T08:01:29Z</time>
      </trkpt>
      <trkpt lat="43.62334" lon="3.4292">
        <ele>212.8</ele>
        <time>2022-05-19T08:01:33Z</time>
      </trkpt>
      <trkpt lat="43.6233" lon="3.42924">
        <ele>212.8</ele>
        <time>2022-05-19T08:01:34Z</time>
      </trkpt>
      <trkpt lat="43.62313" lon="3.42942">
        <ele>211.6</ele>
        <time>2022-05-19T08:01:38Z</time>
      </trkpt>
      <trkpt lat="43.62302" lon="3.42946">
        <ele>211.2</ele>
        <time>2022-05-19T08:01:40Z</time>
      </trkpt>
      <trkpt lat="43.62298" lon="3.42947">
        <ele>211.2</ele>
        <time>2022-05-19T08:01:41Z</time>
      </trkpt>
      <trkpt lat="43.62293" lon="3.42946">
        <ele>211</ele>
        <time>2022-05-19T08:01:42Z</time>
      </trkpt>
      <trkpt lat="43.62281" lon="3.42943">
        <ele>210.6</ele>
        <time>2022-05-19T08:01:45Z</time>
      </trkpt>
      <trkpt lat="43.62262" lon="3.42931">
        <ele>210</ele>
        <time>2022-05-19T08:01:51Z</time>
      </trkpt>
      <trkpt lat="43.62243" lon="3.42911">
        <ele>210.4</ele>
        <time>2022-05-19T08:01:59Z</time>
      </trkpt>
      <trkpt lat="43.62225" lon="3.42874">
        <ele>210.6</ele>
        <time>2022-05-19T08:02:09Z</time>
      </trkpt>
      <trkpt lat="43.6221" lon="3.42854">
        <ele>211</ele>
        <time>2022-05-19T08:02:14Z</time>
      </trkpt>
      <trkpt lat="43.62197" lon="3.42847">
        <ele>210.8</ele>
        <time>2022-05-19T08:02:17Z</time>
      </trkpt>
      <trkpt lat="43.62189" lon="3.42846">
        <ele>210.6</ele>
        <time>2022-05-19T08:02:19Z</time>
      </trkpt>
      <trkpt lat="43.6218" lon="3.42846">
        <ele>210.4</ele>
        <time>2022-05-19T08:02:21Z</time>
      </trkpt>
      <trkpt lat="43.62161" lon="3.42849">
        <ele>210.2</ele>
        <time>2022-05-19T08:02:25Z</time>
      </trkpt>
      <trkpt lat="43.62114" lon="3.42861">
        <ele>210.8</ele>
        <time>2022-05-19T08:02:36Z</time>
      </trkpt>
      <trkpt lat="43.62097" lon="3.42862">
        <ele>211.2</ele>
        <time>2022-05-19T08:02:40Z</time>
      </trkpt>
      <trkpt lat="43.62083" lon="3.4286">
        <ele>211.4</ele>
        <time>2022-05-19T08:02:43Z</time>
      </trkpt>
      <trkpt lat="43.62074" lon="3.42856">
        <ele>211.4</ele>
        <time>2022-05-19T08:02:45Z</time>
      </trkpt>
      <trkpt lat="43.62067" lon="3.42848">
        <ele>211.6</ele>
        <time>2022-05-19T08:02:47Z</time>
      </trkpt>
      <trkpt lat="43.62062" lon="3.42839">
        <ele>211.6</ele>
        <time>2022-05-19T08:02:49Z</time>
      </trkpt>
      <trkpt lat="43.6206" lon="3.42833">
        <ele>211.6</ele>
        <time>2022-05-19T08:02:50Z</time>
      </trkpt>
      <trkpt lat="43.62055" lon="3.42813">
        <ele>211.2</ele>
        <time>2022-05-19T08:02:54Z</time>
      </trkpt>
      <trkpt lat="43.62054" lon="3.42808">
        <ele>211.2</ele>
        <time>2022-05-19T08:02:55Z</time>
      </trkpt>
      <trkpt lat="43.62054" lon="3.42779">
        <ele>211</ele>
        <time>2022-05-19T08:03:01Z</time>
      </trkpt>
      <trkpt lat="43.62057" lon="3.42759">
        <ele>211.6</ele>
        <time>2022-05-19T08:03:05Z</time>
      </trkpt>
      <trkpt lat="43.62059" lon="3.4275">
        <ele>212</ele>
        <time>2022-05-19T08:03:07Z</time>
      </trkpt>
      <trkpt lat="43.62067" lon="3.42723">
        <ele>213</ele>
        <time>2022-05-19T08:03:14Z</time>
      </trkpt>
      <trkpt lat="43.62068" lon="3.42719">
        <ele>213.4</ele>
        <time>2022-05-19T08:03:15Z</time>
      </trkpt>
      <trkpt lat="43.6207" lon="3.42712">
        <ele>214</ele>
        <time>2022-05-19T08:03:17Z</time>
      </trkpt>
      <trkpt lat="43.62074" lon="3.42695">
        <ele>215</ele>
        <time>2022-05-19T08:03:21Z</time>
      </trkpt>
      <trkpt lat="43.62077" lon="3.42681">
        <ele>215.2</ele>
        <time>2022-05-19T08:03:24Z</time>
      </trkpt>
      <trkpt lat="43.62087" lon="3.42645">
        <ele>216</ele>
        <time>2022-05-19T08:03:32Z</time>
      </trkpt>
      <trkpt lat="43.6209" lon="3.42634">
        <ele>216.2</ele>
        <time>2022-05-19T08:03:35Z</time>
      </trkpt>
      <trkpt lat="43.62094" lon="3.4261">
        <ele>216.4</ele>
        <time>2022-05-19T08:03:41Z</time>
      </trkpt>
      <trkpt lat="43.62094" lon="3.42579">
        <ele>217</ele>
        <time>2022-05-19T08:03:48Z</time>
      </trkpt>
      <trkpt lat="43.62092" lon="3.42569">
        <ele>217</ele>
        <time>2022-05-19T08:03:50Z</time>
      </trkpt>
      <trkpt lat="43.62082" lon="3.42537">
        <ele>217.4</ele>
        <time>2022-05-19T08:03:57Z</time>
      </trkpt>
      <trkpt lat="43.62075" lon="3.42513">
        <ele>217.8</ele>
        <time>2022-05-19T08:04:04Z</time>
      </trkpt>
      <trkpt lat="43.62074" lon="3.4251">
        <ele>218</ele>
        <time>2022-05-19T08:04:05Z</time>
      </trkpt>
      <trkpt lat="43.62068" lon="3.42495">
        <ele>219.4</ele>
        <time>2022-05-19T08:04:09Z</time>
      </trkpt>
      <trkpt lat="43.62062" lon="3.42484">
        <ele>219.6</ele>
        <time>2022-05-19T08:04:12Z</time>
      </trkpt>
      <trkpt lat="43.62055" lon="3.42464">
        <ele>220.4</ele>
        <time>2022-05-19T08:04:17Z</time>
      </trkpt>
      <trkpt lat="43.62054" lon="3.42454">
        <ele>220.8</ele>
        <time>2022-05-19T08:04:19Z</time>
      </trkpt>
      <trkpt lat="43.62051" lon="3.42423">
        <ele>221.2</ele>
        <time>2022-05-19T08:04:25Z</time>
      </trkpt>
      <trkpt lat="43.6205" lon="3.42413">
        <ele>221.4</ele>
        <time>2022-05-19T08:04:27Z</time>
      </trkpt>
      <trkpt lat="43.62043" lon="3.42396">
        <ele>221.6</ele>
        <time>2022-05-19T08:04:31Z</time>
      </trkpt>
      <trkpt lat="43.62027" lon="3.42393">
        <ele>222</ele>
        <time>2022-05-19T08:04:35Z</time>
      </trkpt>
      <trkpt lat="43.62012" lon="3.4241">
        <ele>222.4</ele>
        <time>2022-05-19T08:04:40Z</time>
      </trkpt>
      <trkpt lat="43.61986" lon="3.4244">
        <ele>223.2</ele>
        <time>2022-05-19T08:04:49Z</time>
      </trkpt>
      <trkpt lat="43.61972" lon="3.42458">
        <ele>223.4</ele>
        <time>2022-05-19T08:04:54Z</time>
      </trkpt>
      <trkpt lat="43.61964" lon="3.42469">
        <ele>223.6</ele>
        <time>2022-05-19T08:04:57Z</time>
      </trkpt>
      <trkpt lat="43.61937" lon="3.42507">
        <ele>223.6</ele>
        <time>2022-05-19T08:05:06Z</time>
      </trkpt>
      <trkpt lat="43.61915" lon="3.42541">
        <ele>223.8</ele>
        <time>2022-05-19T08:05:14Z</time>
      </trkpt>
      <trkpt lat="43.61912" lon="3.42545">
        <ele>223.8</ele>
        <time>2022-05-19T08:05:15Z</time>
      </trkpt>
      <trkpt lat="43.61895" lon="3.42577">
        <ele>224.2</ele>
        <time>2022-05-19T08:05:22Z</time>
      </trkpt>
      <trkpt lat="43.6189" lon="3.42586">
        <ele>224.4</ele>
        <time>2022-05-19T08:05:24Z</time>
      </trkpt>
      <trkpt lat="43.61869" lon="3.4262">
        <ele>224.6</ele>
        <time>2022-05-19T08:05:33Z</time>
      </trkpt>
      <trkpt lat="43.61848" lon="3.4266">
        <ele>224.8</ele>
        <time>2022-05-19T08:05:43Z</time>
      </trkpt>
      <trkpt lat="43.6183" lon="3.42694">
        <ele>225</ele>
        <time>2022-05-19T08:05:51Z</time>
      </trkpt>
      <trkpt lat="43.61806" lon="3.42733">
        <ele>224.4</ele>
        <time>2022-05-19T08:06:00Z</time>
      </trkpt>
      <trkpt lat="43.61794" lon="3.42744">
        <ele>224</ele>
        <time>2022-05-19T08:06:03Z</time>
      </trkpt>
      <trkpt lat="43.61782" lon="3.42752">
        <ele>223.8</ele>
        <time>2022-05-19T08:06:06Z</time>
      </trkpt>
      <trkpt lat="43.61778" lon="3.42755">
        <ele>223.6</ele>
        <time>2022-05-19T08:06:07Z</time>
      </trkpt>
      <trkpt lat="43.61767" lon="3.42761">
        <ele>223.2</ele>
        <time>2022-05-19T08:06:10Z</time>
      </trkpt>
      <trkpt lat="43.61763" lon="3.42762">
        <ele>222.8</ele>
        <time>2022-05-19T08:06:11Z</time>
      </trkpt>
      <trkpt lat="43.61753" lon="3.42757">
        <ele>222.4</ele>
        <time>2022-05-19T08:06:15Z</time>
      </trkpt>
      <trkpt lat="43.61745" lon="3.42745">
        <ele>222.4</ele>
        <time>2022-05-19T08:06:21Z</time>
      </trkpt>
      <trkpt lat="43.61741" lon="3.42715">
        <ele>223.2</ele>
        <time>2022-05-19T08:06:29Z</time>
      </trkpt>
      <trkpt lat="43.61745" lon="3.42691">
        <ele>223.8</ele>
        <time>2022-05-19T08:06:35Z</time>
      </trkpt>
      <trkpt lat="43.61746" lon="3.42667">
        <ele>224.4</ele>
        <time>2022-05-19T08:06:40Z</time>
      </trkpt>
      <trkpt lat="43.61747" lon="3.42656">
        <ele>224.4</ele>
        <time>2022-05-19T08:06:42Z</time>
      </trkpt>
      <trkpt lat="43.61746" lon="3.42615">
        <ele>225.4</ele>
        <time>2022-05-19T08:06:50Z</time>
      </trkpt>
      <trkpt lat="43.61745" lon="3.426">
        <ele>225.8</ele>
        <time>2022-05-19T08:06:53Z</time>
      </trkpt>
      <trkpt lat="43.61744" lon="3.4258">
        <ele>226</ele>
        <time>2022-05-19T08:06:57Z</time>
      </trkpt>
      <trkpt lat="43.61742" lon="3.4257">
        <ele>226</ele>
        <time>2022-05-19T08:06:59Z</time>
      </trkpt>
      <trkpt lat="43.61737" lon="3.42564">
        <ele>226</ele>
        <time>2022-05-19T08:07:01Z</time>
      </trkpt>
      <trkpt lat="43.6173" lon="3.42565">
        <ele>226</ele>
        <time>2022-05-19T08:07:03Z</time>
      </trkpt>
      <trkpt lat="43.61728" lon="3.42567">
        <ele>226</ele>
        <time>2022-05-19T08:07:04Z</time>
      </trkpt>
      <trkpt lat="43.61719" lon="3.4259">
        <ele>226.2</ele>
        <time>2022-05-19T08:07:09Z</time>
      </trkpt>
      <trkpt lat="43.61699" lon="3.42613">
        <ele>226.6</ele>
        <time>2022-05-19T08:07:16Z</time>
      </trkpt>
      <trkpt lat="43.61696" lon="3.42616">
        <ele>226.6</ele>
        <time>2022-05-19T08:07:17Z</time>
      </trkpt>
      <trkpt lat="43.61669" lon="3.42637">
        <ele>227</ele>
        <time>2022-05-19T08:07:25Z</time>
      </trkpt>
      <trkpt lat="43.61647" lon="3.4264">
        <ele>227.4</ele>
        <time>2022-05-19T08:07:31Z</time>
      </trkpt>
      <trkpt lat="43.61637" lon="3.42634">
        <ele>227.8</ele>
        <time>2022-05-19T08:07:34Z</time>
      </trkpt>
      <trkpt lat="43.61634" lon="3.42631">
        <ele>228</ele>
        <time>2022-05-19T08:07:35Z</time>
      </trkpt>
      <trkpt lat="43.61626" lon="3.42619">
        <ele>228.8</ele>
        <time>2022-05-19T08:07:38Z</time>
      </trkpt>
      <trkpt lat="43.61621" lon="3.42607">
        <ele>229.4</ele>
        <time>2022-05-19T08:07:41Z</time>
      </trkpt>
      <trkpt lat="43.61613" lon="3.42585">
        <ele>230</ele>
        <time>2022-05-19T08:07:46Z</time>
      </trkpt>
      <trkpt lat="43.6161" lon="3.42577">
        <ele>230.4</ele>
        <time>2022-05-19T08:07:49Z</time>
      </trkpt>
      <trkpt lat="43.61602" lon="3.42556">
        <ele>231</ele>
        <time>2022-05-19T08:07:53Z</time>
      </trkpt>
      <trkpt lat="43.61595" lon="3.42538">
        <ele>231.4</ele>
        <time>2022-05-19T08:07:57Z</time>
      </trkpt>
      <trkpt lat="43.61586" lon="3.42525">
        <ele>231.4</ele>
        <time>2022-05-19T08:08:01Z</time>
      </trkpt>
      <trkpt lat="43.61573" lon="3.42529">
        <ele>231.6</ele>
        <time>2022-05-19T08:08:05Z</time>
      </trkpt>
      <trkpt lat="43.61563" lon="3.42548">
        <ele>231.8</ele>
        <time>2022-05-19T08:08:10Z</time>
      </trkpt>
      <trkpt lat="43.61549" lon="3.42588">
        <ele>231.6</ele>
        <time>2022-05-19T08:08:18Z</time>
      </trkpt>
      <trkpt lat="43.61539" lon="3.42611">
        <ele>231.2</ele>
        <time>2022-05-19T08:08:24Z</time>
      </trkpt>
      <trkpt lat="43.61525" lon="3.42625">
        <ele>231</ele>
        <time>2022-05-19T08:08:30Z</time>
      </trkpt>
      <trkpt lat="43.61505" lon="3.42638">
        <ele>231.6</ele>
        <time>2022-05-19T08:08:38Z</time>
      </trkpt>
      <trkpt lat="43.6149" lon="3.42635">
        <ele>232.6</ele>
        <time>2022-05-19T08:08:44Z</time>
      </trkpt>
      <trkpt lat="43.61487" lon="3.42635">
        <ele>233</ele>
        <time>2022-05-19T08:08:45Z</time>
      </trkpt>
      <trkpt lat="43.61478" lon="3.42631">
        <ele>234</ele>
        <time>2022-05-19T08:08:49Z</time>
      </trkpt>
      <trkpt lat="43.61472" lon="3.42625">
        <ele>234.4</ele>
        <time>2022-05-19T08:08:52Z</time>
      </trkpt>
      <trkpt lat="43.61467" lon="3.4262">
        <ele>235.2</ele>
        <time>2022-05-19T08:08:55Z</time>
      </trkpt>
      <trkpt lat="43.6146" lon="3.42606">
        <ele>236.6</ele>
        <time>2022-05-19T08:09:00Z</time>
      </trkpt>
      <trkpt lat="43.61455" lon="3.42586">
        <ele>237.6</ele>
        <time>2022-05-19T08:09:07Z</time>
      </trkpt>
      <trkpt lat="43.61454" lon="3.42574">
        <ele>239</ele>
        <time>2022-05-19T08:09:12Z</time>
      </trkpt>
      <trkpt lat="43.61455" lon="3.42568">
        <ele>239.2</ele>
        <time>2022-05-19T08:09:14Z</time>
      </trkpt>
      <trkpt lat="43.61456" lon="3.42554">
        <ele>240</ele>
        <time>2022-05-19T08:09:20Z</time>
      </trkpt>
      <trkpt lat="43.61457" lon="3.42549">
        <ele>240.4</ele>
        <time>2022-05-19T08:09:22Z</time>
      </trkpt>
      <trkpt lat="43.61457" lon="3.42539">
        <ele>241.2</ele>
        <time>2022-05-19T08:09:27Z</time>
      </trkpt>
      <trkpt lat="43.61457" lon="3.4253">
        <ele>241.8</ele>
        <time>2022-05-19T08:09:30Z</time>
      </trkpt>
      <trkpt lat="43.61458" lon="3.42526">
        <ele>242.2</ele>
        <time>2022-05-19T08:09:32Z</time>
      </trkpt>
      <trkpt lat="43.61458" lon="3.42509">
        <ele>243.2</ele>
        <time>2022-05-19T08:09:39Z</time>
      </trkpt>
      <trkpt lat="43.61458" lon="3.42505">
        <ele>243.4</ele>
        <time>2022-05-19T08:09:40Z</time>
      </trkpt>
      <trkpt lat="43.61459" lon="3.42491">
        <ele>244.4</ele>
        <time>2022-05-19T08:09:46Z</time>
      </trkpt>
      <trkpt lat="43.6146" lon="3.42488">
        <ele>244.6</ele>
        <time>2022-05-19T08:09:48Z</time>
      </trkpt>
      <trkpt lat="43.61461" lon="3.42479">
        <ele>245.4</ele>
        <time>2022-05-19T08:09:51Z</time>
      </trkpt>
      <trkpt lat="43.61462" lon="3.42467">
        <ele>246.4</ele>
        <time>2022-05-19T08:09:56Z</time>
      </trkpt>
      <trkpt lat="43.61463" lon="3.42464">
        <ele>246.6</ele>
        <time>2022-05-19T08:09:57Z</time>
      </trkpt>
      <trkpt lat="43.61464" lon="3.42453">
        <ele>247.6</ele>
        <time>2022-05-19T08:10:02Z</time>
      </trkpt>
      <trkpt lat="43.61465" lon="3.42445">
        <ele>248.2</ele>
        <time>2022-05-19T08:10:05Z</time>
      </trkpt>
      <trkpt lat="43.61466" lon="3.42438">
        <ele>248.8</ele>
        <time>2022-05-19T08:10:08Z</time>
      </trkpt>
      <trkpt lat="43.61469" lon="3.42425">
        <ele>249.8</ele>
        <time>2022-05-19T08:10:14Z</time>
      </trkpt>
      <trkpt lat="43.61471" lon="3.42416">
        <ele>251</ele>
        <time>2022-05-19T08:10:18Z</time>
      </trkpt>
      <trkpt lat="43.61474" lon="3.42408">
        <ele>252</ele>
        <time>2022-05-19T08:10:22Z</time>
      </trkpt>
      <trkpt lat="43.61475" lon="3.42402">
        <ele>252.4</ele>
        <time>2022-05-19T08:10:24Z</time>
      </trkpt>
      <trkpt lat="43.61477" lon="3.42394">
        <ele>253.2</ele>
        <time>2022-05-19T08:10:28Z</time>
      </trkpt>
      <trkpt lat="43.61479" lon="3.42383">
        <ele>254.2</ele>
        <time>2022-05-19T08:10:33Z</time>
      </trkpt>
      <trkpt lat="43.6148" lon="3.42381">
        <ele>254.4</ele>
        <time>2022-05-19T08:10:34Z</time>
      </trkpt>
      <trkpt lat="43.61481" lon="3.42372">
        <ele>255.2</ele>
        <time>2022-05-19T08:10:38Z</time>
      </trkpt>
      <trkpt lat="43.61482" lon="3.42364">
        <ele>255.6</ele>
        <time>2022-05-19T08:10:41Z</time>
      </trkpt>
      <trkpt lat="43.61483" lon="3.42357">
        <ele>256.2</ele>
        <time>2022-05-19T08:10:44Z</time>
      </trkpt>
      <trkpt lat="43.61486" lon="3.42346">
        <ele>257.4</ele>
        <time>2022-05-19T08:10:49Z</time>
      </trkpt>
      <trkpt lat="43.61487" lon="3.42335">
        <ele>258.4</ele>
        <time>2022-05-19T08:10:53Z</time>
      </trkpt>
      <trkpt lat="43.61488" lon="3.42327">
        <ele>259.2</ele>
        <time>2022-05-19T08:10:56Z</time>
      </trkpt>
      <trkpt lat="43.61489" lon="3.42322">
        <ele>259.6</ele>
        <time>2022-05-19T08:10:58Z</time>
      </trkpt>
      <trkpt lat="43.6149" lon="3.42308">
        <ele>260.6</ele>
        <time>2022-05-19T08:11:04Z</time>
      </trkpt>
      <trkpt lat="43.6149" lon="3.423">
        <ele>261.4</ele>
        <time>2022-05-19T08:11:08Z</time>
      </trkpt>
      <trkpt lat="43.6149" lon="3.42298">
        <ele>261.8</ele>
        <time>2022-05-19T08:11:09Z</time>
      </trkpt>
      <trkpt lat="43.6149" lon="3.42294">
        <ele>262.2</ele>
        <time>2022-05-19T08:11:11Z</time>
      </trkpt>
      <trkpt lat="43.61488" lon="3.42283">
        <ele>263</ele>
        <time>2022-05-19T08:11:16Z</time>
      </trkpt>
      <trkpt lat="43.61485" lon="3.42269">
        <ele>263.8</ele>
        <time>2022-05-19T08:11:21Z</time>
      </trkpt>
      <trkpt lat="43.61483" lon="3.42261">
        <ele>264</ele>
        <time>2022-05-19T08:11:24Z</time>
      </trkpt>
      <trkpt lat="43.61483" lon="3.42248">
        <ele>264.6</ele>
        <time>2022-05-19T08:11:29Z</time>
      </trkpt>
      <trkpt lat="43.61483" lon="3.42238">
        <ele>265.2</ele>
        <time>2022-05-19T08:11:33Z</time>
      </trkpt>
      <trkpt lat="43.61484" lon="3.42227">
        <ele>265.8</ele>
        <time>2022-05-19T08:11:37Z</time>
      </trkpt>
      <trkpt lat="43.61485" lon="3.42219">
        <ele>266.2</ele>
        <time>2022-05-19T08:11:40Z</time>
      </trkpt>
      <trkpt lat="43.61485" lon="3.4221">
        <ele>266.4</ele>
        <time>2022-05-19T08:11:44Z</time>
      </trkpt>
      <trkpt lat="43.61483" lon="3.42199">
        <ele>266.6</ele>
        <time>2022-05-19T08:11:49Z</time>
      </trkpt>
      <trkpt lat="43.61482" lon="3.42192">
        <ele>266.6</ele>
        <time>2022-05-19T08:11:55Z</time>
      </trkpt>
      <trkpt lat="43.61482" lon="3.42192">
        <ele>266.6</ele>
        <time>2022-05-19T08:12:23Z</time>
      </trkpt>
      <trkpt lat="43.61482" lon="3.42192">
        <ele>266.2</ele>
        <time>2022-05-19T08:12:46Z</time>
      </trkpt>
      <trkpt lat="43.61482" lon="3.42192">
        <ele>266.4</ele>
        <time>2022-05-19T08:17:33Z</time>
      </trkpt>
      <trkpt lat="43.61482" lon="3.42192">
        <ele>266.4</ele>
        <time>2022-05-19T08:17:36Z</time>
      </trkpt>
      <trkpt lat="43.61478" lon="3.42184">
        <ele>266.4</ele>
        <time>2022-05-19T08:17:39Z</time>
      </trkpt>
      <trkpt lat="43.61473" lon="3.4216">
        <ele>265.8</ele>
        <time>2022-05-19T08:17:44Z</time>
      </trkpt>
      <trkpt lat="43.61465" lon="3.42123">
        <ele>265.2</ele>
        <time>2022-05-19T08:17:49Z</time>
      </trkpt>
      <trkpt lat="43.61459" lon="3.42093">
        <ele>264.4</ele>
        <time>2022-05-19T08:17:52Z</time>
      </trkpt>
      <trkpt lat="43.61456" lon="3.42082">
        <ele>264.4</ele>
        <time>2022-05-19T08:17:53Z</time>
      </trkpt>
      <trkpt lat="43.61449" lon="3.42048">
        <ele>263.2</ele>
        <time>2022-05-19T08:17:56Z</time>
      </trkpt>
      <trkpt lat="43.61441" lon="3.4201">
        <ele>262</ele>
        <time>2022-05-19T08:17:59Z</time>
      </trkpt>
      <trkpt lat="43.61439" lon="3.42">
        <ele>260.8</ele>
        <time>2022-05-19T08:18:01Z</time>
      </trkpt>
      <trkpt lat="43.61428" lon="3.41976">
        <ele>260.6</ele>
        <time>2022-05-19T08:18:02Z</time>
      </trkpt>
      <trkpt lat="43.61421" lon="3.41967">
        <ele>260</ele>
        <time>2022-05-19T08:18:03Z</time>
      </trkpt>
      <trkpt lat="43.61414" lon="3.41959">
        <ele>259.6</ele>
        <time>2022-05-19T08:18:04Z</time>
      </trkpt>
      <trkpt lat="43.61392" lon="3.41936">
        <ele>257.8</ele>
        <time>2022-05-19T08:18:07Z</time>
      </trkpt>
      <trkpt lat="43.61386" lon="3.41927">
        <ele>257.6</ele>
        <time>2022-05-19T08:18:08Z</time>
      </trkpt>
      <trkpt lat="43.61381" lon="3.41917">
        <ele>257</ele>
        <time>2022-05-19T08:18:09Z</time>
      </trkpt>
      <trkpt lat="43.61377" lon="3.41907">
        <ele>256.2</ele>
        <time>2022-05-19T08:18:10Z</time>
      </trkpt>
      <trkpt lat="43.61369" lon="3.41887">
        <ele>254.8</ele>
        <time>2022-05-19T08:18:12Z</time>
      </trkpt>
      <trkpt lat="43.61355" lon="3.41849">
        <ele>253.8</ele>
        <time>2022-05-19T08:18:16Z</time>
      </trkpt>
      <trkpt lat="43.61346" lon="3.41822">
        <ele>253</ele>
        <time>2022-05-19T08:18:19Z</time>
      </trkpt>
      <trkpt lat="43.61341" lon="3.41806">
        <ele>252.6</ele>
        <time>2022-05-19T08:18:21Z</time>
      </trkpt>
      <trkpt lat="43.61339" lon="3.41795">
        <ele>252.4</ele>
        <time>2022-05-19T08:18:22Z</time>
      </trkpt>
      <trkpt lat="43.61337" lon="3.41776">
        <ele>252.2</ele>
        <time>2022-05-19T08:18:24Z</time>
      </trkpt>
      <trkpt lat="43.61336" lon="3.41748">
        <ele>251.4</ele>
        <time>2022-05-19T08:18:27Z</time>
      </trkpt>
      <trkpt lat="43.61338" lon="3.4173">
        <ele>251</ele>
        <time>2022-05-19T08:18:29Z</time>
      </trkpt>
      <trkpt lat="43.61341" lon="3.41714">
        <ele>250.8</ele>
        <time>2022-05-19T08:18:31Z</time>
      </trkpt>
      <trkpt lat="43.61347" lon="3.41694">
        <ele>250.8</ele>
        <time>2022-05-19T08:18:34Z</time>
      </trkpt>
      <trkpt lat="43.61359" lon="3.41655">
        <ele>250.8</ele>
        <time>2022-05-19T08:18:40Z</time>
      </trkpt>
      <trkpt lat="43.61362" lon="3.41644">
        <ele>251</ele>
        <time>2022-05-19T08:18:42Z</time>
      </trkpt>
      <trkpt lat="43.61372" lon="3.41608">
        <ele>251.4</ele>
        <time>2022-05-19T08:18:48Z</time>
      </trkpt>
      <trkpt lat="43.61375" lon="3.41591">
        <ele>251.8</ele>
        <time>2022-05-19T08:18:51Z</time>
      </trkpt>
      <trkpt lat="43.61379" lon="3.41573">
        <ele>252.2</ele>
        <time>2022-05-19T08:18:56Z</time>
      </trkpt>
      <trkpt lat="43.61383" lon="3.41564">
        <ele>252.2</ele>
        <time>2022-05-19T08:19:00Z</time>
      </trkpt>
      <trkpt lat="43.61385" lon="3.41563">
        <ele>252</ele>
        <time>2022-05-19T08:19:01Z</time>
      </trkpt>
      <trkpt lat="43.61398" lon="3.41554">
        <ele>251.8</ele>
        <time>2022-05-19T08:19:06Z</time>
      </trkpt>
      <trkpt lat="43.61397" lon="3.41541">
        <ele>250.8</ele>
        <time>2022-05-19T08:19:10Z</time>
      </trkpt>
      <trkpt lat="43.61395" lon="3.41533">
        <ele>250.4</ele>
        <time>2022-05-19T08:19:13Z</time>
      </trkpt>
      <trkpt lat="43.61395" lon="3.4153">
        <ele>249.8</ele>
        <time>2022-05-19T08:19:15Z</time>
      </trkpt>
      <trkpt lat="43.61395" lon="3.4153">
        <ele>249.4</ele>
        <time>2022-05-19T08:19:17Z</time>
      </trkpt>
      <trkpt lat="43.61395" lon="3.4153">
        <ele>249</ele>
        <time>2022-05-19T08:19:21Z</time>
      </trkpt>
      <trkpt lat="43.61394" lon="3.4153">
        <ele>248.6</ele>
        <time>2022-05-19T08:19:30Z</time>
      </trkpt>
      <trkpt lat="43.6139" lon="3.41518">
        <ele>248.6</ele>
        <time>2022-05-19T08:19:33Z</time>
      </trkpt>
      <trkpt lat="43.61388" lon="3.41512">
        <ele>248.6</ele>
        <time>2022-05-19T08:19:34Z</time>
      </trkpt>
      <trkpt lat="43.61381" lon="3.41494">
        <ele>248.4</ele>
        <time>2022-05-19T08:19:37Z</time>
      </trkpt>
      <trkpt lat="43.61377" lon="3.41488">
        <ele>248</ele>
        <time>2022-05-19T08:19:38Z</time>
      </trkpt>
      <trkpt lat="43.61371" lon="3.41483">
        <ele>247</ele>
        <time>2022-05-19T08:19:40Z</time>
      </trkpt>
      <trkpt lat="43.61371" lon="3.41483">
        <ele>246.6</ele>
        <time>2022-05-19T08:19:41Z</time>
      </trkpt>
      <trkpt lat="43.61362" lon="3.41485">
        <ele>245.8</ele>
        <time>2022-05-19T08:19:43Z</time>
      </trkpt>
      <trkpt lat="43.61358" lon="3.41488">
        <ele>245.2</ele>
        <time>2022-05-19T08:19:44Z</time>
      </trkpt>
      <trkpt lat="43.61349" lon="3.41494">
        <ele>244.4</ele>
        <time>2022-05-19T08:19:46Z</time>
      </trkpt>
      <trkpt lat="43.61344" lon="3.41496">
        <ele>244.2</ele>
        <time>2022-05-19T08:19:47Z</time>
      </trkpt>
      <trkpt lat="43.61339" lon="3.41497">
        <ele>243.6</ele>
        <time>2022-05-19T08:19:48Z</time>
      </trkpt>
      <trkpt lat="43.61331" lon="3.41499">
        <ele>242.8</ele>
        <time>2022-05-19T08:19:50Z</time>
      </trkpt>
      <trkpt lat="43.61327" lon="3.41499">
        <ele>241.8</ele>
        <time>2022-05-19T08:19:52Z</time>
      </trkpt>
      <trkpt lat="43.61325" lon="3.415">
        <ele>240.4</ele>
        <time>2022-05-19T08:19:53Z</time>
      </trkpt>
      <trkpt lat="43.61324" lon="3.415">
        <ele>238.8</ele>
        <time>2022-05-19T08:19:55Z</time>
      </trkpt>
      <trkpt lat="43.61324" lon="3.415">
        <ele>237.4</ele>
        <time>2022-05-19T08:19:57Z</time>
      </trkpt>
      <trkpt lat="43.61324" lon="3.415">
        <ele>236.2</ele>
        <time>2022-05-19T08:20:00Z</time>
      </trkpt>
      <trkpt lat="43.61326" lon="3.415">
        <ele>235.4</ele>
        <time>2022-05-19T08:20:05Z</time>
      </trkpt>
      <trkpt lat="43.61326" lon="3.415">
        <ele>235.4</ele>
        <time>2022-05-19T08:20:13Z</time>
      </trkpt>
      <trkpt lat="43.61327" lon="3.41499">
        <ele>235.8</ele>
        <time>2022-05-19T08:20:18Z</time>
      </trkpt>
      <trkpt lat="43.61327" lon="3.41499">
        <ele>236</ele>
        <time>2022-05-19T08:20:27Z</time>
      </trkpt>
      <trkpt lat="43.61328" lon="3.41497">
        <ele>235.6</ele>
        <time>2022-05-19T08:21:17Z</time>
      </trkpt>
      <trkpt lat="43.61326" lon="3.41491">
        <ele>235.2</ele>
        <time>2022-05-19T08:21:19Z</time>
      </trkpt>
      <trkpt lat="43.61324" lon="3.41489">
        <ele>235.2</ele>
        <time>2022-05-19T08:21:20Z</time>
      </trkpt>
      <trkpt lat="43.61322" lon="3.41487">
        <ele>235</ele>
        <time>2022-05-19T08:21:21Z</time>
      </trkpt>
      <trkpt lat="43.61313" lon="3.41477">
        <ele>233.8</ele>
        <time>2022-05-19T08:21:25Z</time>
      </trkpt>
      <trkpt lat="43.61307" lon="3.41473">
        <ele>232.6</ele>
        <time>2022-05-19T08:21:27Z</time>
      </trkpt>
      <trkpt lat="43.61301" lon="3.41467">
        <ele>231</ele>
        <time>2022-05-19T08:21:29Z</time>
      </trkpt>
      <trkpt lat="43.61298" lon="3.41464">
        <ele>230.4</ele>
        <time>2022-05-19T08:21:30Z</time>
      </trkpt>
      <trkpt lat="43.61295" lon="3.41461">
        <ele>229.6</ele>
        <time>2022-05-19T08:21:31Z</time>
      </trkpt>
      <trkpt lat="43.61288" lon="3.41457">
        <ele>228.2</ele>
        <time>2022-05-19T08:21:33Z</time>
      </trkpt>
      <trkpt lat="43.61285" lon="3.41456">
        <ele>226.8</ele>
        <time>2022-05-19T08:21:34Z</time>
      </trkpt>
      <trkpt lat="43.61281" lon="3.41453">
        <ele>226</ele>
        <time>2022-05-19T08:21:35Z</time>
      </trkpt>
      <trkpt lat="43.61276" lon="3.4145">
        <ele>225</ele>
        <time>2022-05-19T08:21:36Z</time>
      </trkpt>
      <trkpt lat="43.61266" lon="3.4144">
        <ele>223.4</ele>
        <time>2022-05-19T08:21:38Z</time>
      </trkpt>
      <trkpt lat="43.61253" lon="3.41434">
        <ele>221.4</ele>
        <time>2022-05-19T08:21:40Z</time>
      </trkpt>
      <trkpt lat="43.61244" lon="3.41432">
        <ele>220.2</ele>
        <time>2022-05-19T08:21:42Z</time>
      </trkpt>
      <trkpt lat="43.61239" lon="3.41431">
        <ele>219.4</ele>
        <time>2022-05-19T08:21:44Z</time>
      </trkpt>
      <trkpt lat="43.61239" lon="3.41429">
        <ele>219.2</ele>
        <time>2022-05-19T08:21:45Z</time>
      </trkpt>
      <trkpt lat="43.61238" lon="3.41423">
        <ele>218</ele>
        <time>2022-05-19T08:21:48Z</time>
      </trkpt>
      <trkpt lat="43.61238" lon="3.41422">
        <ele>217.2</ele>
        <time>2022-05-19T08:21:51Z</time>
      </trkpt>
      <trkpt lat="43.61238" lon="3.41422">
        <ele>216.8</ele>
        <time>2022-05-19T08:21:53Z</time>
      </trkpt>
      <trkpt lat="43.61239" lon="3.41424">
        <ele>216.6</ele>
        <time>2022-05-19T08:21:56Z</time>
      </trkpt>
      <trkpt lat="43.61239" lon="3.41424">
        <ele>216.6</ele>
        <time>2022-05-19T08:21:57Z</time>
      </trkpt>
      <trkpt lat="43.61238" lon="3.41429">
        <ele>216.6</ele>
        <time>2022-05-19T08:22:02Z</time>
      </trkpt>
      <trkpt lat="43.61237" lon="3.41429">
        <ele>217</ele>
        <time>2022-05-19T08:22:09Z</time>
      </trkpt>
      <trkpt lat="43.61235" lon="3.41431">
        <ele>216.6</ele>
        <time>2022-05-19T08:23:05Z</time>
      </trkpt>
      <trkpt lat="43.61232" lon="3.41431">
        <ele>217.2</ele>
        <time>2022-05-19T08:23:13Z</time>
      </trkpt>
      <trkpt lat="43.61232" lon="3.41431">
        <ele>217.2</ele>
        <time>2022-05-19T08:23:24Z</time>
      </trkpt>
      <trkpt lat="43.61232" lon="3.41431">
        <ele>216.8</ele>
        <time>2022-05-19T08:24:44Z</time>
      </trkpt>
      <trkpt lat="43.61233" lon="3.41431">
        <ele>216.6</ele>
        <time>2022-05-19T08:25:06Z</time>
      </trkpt>
      <trkpt lat="43.61238" lon="3.41424">
        <ele>216.4</ele>
        <time>2022-05-19T08:25:09Z</time>
      </trkpt>
      <trkpt lat="43.61253" lon="3.41411">
        <ele>215.8</ele>
        <time>2022-05-19T08:25:14Z</time>
      </trkpt>
      <trkpt lat="43.61257" lon="3.41409">
        <ele>215.4</ele>
        <time>2022-05-19T08:25:15Z</time>
      </trkpt>
      <trkpt lat="43.61268" lon="3.41402">
        <ele>214.4</ele>
        <time>2022-05-19T08:25:18Z</time>
      </trkpt>
      <trkpt lat="43.61274" lon="3.41396">
        <ele>213.4</ele>
        <time>2022-05-19T08:25:20Z</time>
      </trkpt>
      <trkpt lat="43.61277" lon="3.41393">
        <ele>213.2</ele>
        <time>2022-05-19T08:25:21Z</time>
      </trkpt>
      <trkpt lat="43.61283" lon="3.41384">
        <ele>211.4</ele>
        <time>2022-05-19T08:25:23Z</time>
      </trkpt>
      <trkpt lat="43.61287" lon="3.41375">
        <ele>210</ele>
        <time>2022-05-19T08:25:25Z</time>
      </trkpt>
      <trkpt lat="43.6129" lon="3.41367">
        <ele>209</ele>
        <time>2022-05-19T08:25:27Z</time>
      </trkpt>
      <trkpt lat="43.61292" lon="3.41357">
        <ele>207.4</ele>
        <time>2022-05-19T08:25:29Z</time>
      </trkpt>
      <trkpt lat="43.61293" lon="3.41352">
        <ele>206.2</ele>
        <time>2022-05-19T08:25:30Z</time>
      </trkpt>
      <trkpt lat="43.61294" lon="3.41345">
        <ele>205.8</ele>
        <time>2022-05-19T08:25:31Z</time>
      </trkpt>
      <trkpt lat="43.61295" lon="3.41338">
        <ele>205</ele>
        <time>2022-05-19T08:25:32Z</time>
      </trkpt>
      <trkpt lat="43.61296" lon="3.41331">
        <ele>204.8</ele>
        <time>2022-05-19T08:25:33Z</time>
      </trkpt>
      <trkpt lat="43.61297" lon="3.41322">
        <ele>203.8</ele>
        <time>2022-05-19T08:25:34Z</time>
      </trkpt>
      <trkpt lat="43.61297" lon="3.41313">
        <ele>203.2</ele>
        <time>2022-05-19T08:25:35Z</time>
      </trkpt>
      <trkpt lat="43.61297" lon="3.41303">
        <ele>202</ele>
        <time>2022-05-19T08:25:36Z</time>
      </trkpt>
      <trkpt lat="43.61297" lon="3.41286">
        <ele>200.6</ele>
        <time>2022-05-19T08:25:38Z</time>
      </trkpt>
      <trkpt lat="43.61298" lon="3.41277">
        <ele>200.2</ele>
        <time>2022-05-19T08:25:39Z</time>
      </trkpt>
      <trkpt lat="43.61298" lon="3.4127">
        <ele>198.6</ele>
        <time>2022-05-19T08:25:40Z</time>
      </trkpt>
      <trkpt lat="43.61298" lon="3.41262">
        <ele>197.8</ele>
        <time>2022-05-19T08:25:41Z</time>
      </trkpt>
      <trkpt lat="43.61297" lon="3.41256">
        <ele>196.6</ele>
        <time>2022-05-19T08:25:42Z</time>
      </trkpt>
      <trkpt lat="43.61296" lon="3.41244">
        <ele>194.2</ele>
        <time>2022-05-19T08:25:44Z</time>
      </trkpt>
      <trkpt lat="43.61294" lon="3.41239">
        <ele>193.2</ele>
        <time>2022-05-19T08:25:45Z</time>
      </trkpt>
      <trkpt lat="43.61293" lon="3.41232">
        <ele>192.6</ele>
        <time>2022-05-19T08:25:46Z</time>
      </trkpt>
      <trkpt lat="43.61291" lon="3.41226">
        <ele>191.2</ele>
        <time>2022-05-19T08:25:47Z</time>
      </trkpt>
      <trkpt lat="43.6129" lon="3.4122">
        <ele>191</ele>
        <time>2022-05-19T08:25:48Z</time>
      </trkpt>
      <trkpt lat="43.61288" lon="3.41213">
        <ele>190.2</ele>
        <time>2022-05-19T08:25:49Z</time>
      </trkpt>
      <trkpt lat="43.61286" lon="3.41207">
        <ele>189</ele>
        <time>2022-05-19T08:25:50Z</time>
      </trkpt>
      <trkpt lat="43.61284" lon="3.41201">
        <ele>187.6</ele>
        <time>2022-05-19T08:25:51Z</time>
      </trkpt>
      <trkpt lat="43.61279" lon="3.41191">
        <ele>186.2</ele>
        <time>2022-05-19T08:25:53Z</time>
      </trkpt>
      <trkpt lat="43.61274" lon="3.41184">
        <ele>184.2</ele>
        <time>2022-05-19T08:25:55Z</time>
      </trkpt>
      <trkpt lat="43.61273" lon="3.41184">
        <ele>183.2</ele>
        <time>2022-05-19T08:25:56Z</time>
      </trkpt>
      <trkpt lat="43.61272" lon="3.41184">
        <ele>181.8</ele>
        <time>2022-05-19T08:25:57Z</time>
      </trkpt>
      <trkpt lat="43.61272" lon="3.41184">
        <ele>179.6</ele>
        <time>2022-05-19T08:25:59Z</time>
      </trkpt>
      <trkpt lat="43.61272" lon="3.41184">
        <ele>178.6</ele>
        <time>2022-05-19T08:26:00Z</time>
      </trkpt>
      <trkpt lat="43.61272" lon="3.41184">
        <ele>178.4</ele>
        <time>2022-05-19T08:26:01Z</time>
      </trkpt>
      <trkpt lat="43.61272" lon="3.41184">
        <ele>177.2</ele>
        <time>2022-05-19T08:26:04Z</time>
      </trkpt>
      <trkpt lat="43.61272" lon="3.41184">
        <ele>176.8</ele>
        <time>2022-05-19T08:26:08Z</time>
      </trkpt>
      <trkpt lat="43.61272" lon="3.41184">
        <ele>176.4</ele>
        <time>2022-05-19T08:27:07Z</time>
      </trkpt>
      <trkpt lat="43.61272" lon="3.41176">
        <ele>176.2</ele>
        <time>2022-05-19T08:27:09Z</time>
      </trkpt>
      <trkpt lat="43.61274" lon="3.41152">
        <ele>176</ele>
        <time>2022-05-19T08:27:14Z</time>
      </trkpt>
      <trkpt lat="43.61275" lon="3.41146">
        <ele>175.4</ele>
        <time>2022-05-19T08:27:15Z</time>
      </trkpt>
      <trkpt lat="43.61279" lon="3.41124">
        <ele>173.6</ele>
        <time>2022-05-19T08:27:19Z</time>
      </trkpt>
      <trkpt lat="43.61282" lon="3.41117">
        <ele>173.2</ele>
        <time>2022-05-19T08:27:20Z</time>
      </trkpt>
      <trkpt lat="43.61287" lon="3.41101">
        <ele>172.4</ele>
        <time>2022-05-19T08:27:22Z</time>
      </trkpt>
      <trkpt lat="43.61292" lon="3.41084">
        <ele>171.2</ele>
        <time>2022-05-19T08:27:24Z</time>
      </trkpt>
      <trkpt lat="43.61295" lon="3.41076">
        <ele>169.8</ele>
        <time>2022-05-19T08:27:25Z</time>
      </trkpt>
      <trkpt lat="43.61297" lon="3.41069">
        <ele>168.4</ele>
        <time>2022-05-19T08:27:26Z</time>
      </trkpt>
      <trkpt lat="43.613" lon="3.41057">
        <ele>166.2</ele>
        <time>2022-05-19T08:27:28Z</time>
      </trkpt>
      <trkpt lat="43.61302" lon="3.41048">
        <ele>164.6</ele>
        <time>2022-05-19T08:27:30Z</time>
      </trkpt>
      <trkpt lat="43.61303" lon="3.41041">
        <ele>162.8</ele>
        <time>2022-05-19T08:27:32Z</time>
      </trkpt>
      <trkpt lat="43.61302" lon="3.4104">
        <ele>162.4</ele>
        <time>2022-05-19T08:27:33Z</time>
      </trkpt>
      <trkpt lat="43.61302" lon="3.41039">
        <ele>161.4</ele>
        <time>2022-05-19T08:27:34Z</time>
      </trkpt>
      <trkpt lat="43.61302" lon="3.41039">
        <ele>159.8</ele>
        <time>2022-05-19T08:27:36Z</time>
      </trkpt>
      <trkpt lat="43.61302" lon="3.41039">
        <ele>158.4</ele>
        <time>2022-05-19T08:27:38Z</time>
      </trkpt>
      <trkpt lat="43.61302" lon="3.41039">
        <ele>158.2</ele>
        <time>2022-05-19T08:27:39Z</time>
      </trkpt>
      <trkpt lat="43.61302" lon="3.41039">
        <ele>157.4</ele>
        <time>2022-05-19T08:27:42Z</time>
      </trkpt>
      <trkpt lat="43.61302" lon="3.41039">
        <ele>157</ele>
        <time>2022-05-19T08:27:54Z</time>
      </trkpt>
      <trkpt lat="43.61299" lon="3.4104">
        <ele>157</ele>
        <time>2022-05-19T08:28:08Z</time>
      </trkpt>
      <trkpt lat="43.61296" lon="3.41042">
        <ele>157</ele>
        <time>2022-05-19T08:28:10Z</time>
      </trkpt>
      <trkpt lat="43.61282" lon="3.4105">
        <ele>157.2</ele>
        <time>2022-05-19T08:28:16Z</time>
      </trkpt>
      <trkpt lat="43.61263" lon="3.41057">
        <ele>157.6</ele>
        <time>2022-05-19T08:28:24Z</time>
      </trkpt>
      <trkpt lat="43.61252" lon="3.41059">
        <ele>157.8</ele>
        <time>2022-05-19T08:28:28Z</time>
      </trkpt>
      <trkpt lat="43.61244" lon="3.41054">
        <ele>157.6</ele>
        <time>2022-05-19T08:28:33Z</time>
      </trkpt>
      <trkpt lat="43.61231" lon="3.41051">
        <ele>157.2</ele>
        <time>2022-05-19T08:28:39Z</time>
      </trkpt>
      <trkpt lat="43.61229" lon="3.4105">
        <ele>157.2</ele>
        <time>2022-05-19T08:28:40Z</time>
      </trkpt>
      <trkpt lat="43.61222" lon="3.41045">
        <ele>157.4</ele>
        <time>2022-05-19T08:28:44Z</time>
      </trkpt>
      <trkpt lat="43.61209" lon="3.41033">
        <ele>158.2</ele>
        <time>2022-05-19T08:28:50Z</time>
      </trkpt>
      <trkpt lat="43.61207" lon="3.41032">
        <ele>158.6</ele>
        <time>2022-05-19T08:28:51Z</time>
      </trkpt>
      <trkpt lat="43.612" lon="3.41025">
        <ele>159.6</ele>
        <time>2022-05-19T08:28:55Z</time>
      </trkpt>
      <trkpt lat="43.61197" lon="3.41024">
        <ele>159.8</ele>
        <time>2022-05-19T08:28:56Z</time>
      </trkpt>
      <trkpt lat="43.61184" lon="3.4101">
        <ele>160.6</ele>
        <time>2022-05-19T08:29:03Z</time>
      </trkpt>
      <trkpt lat="43.61174" lon="3.41003">
        <ele>161.4</ele>
        <time>2022-05-19T08:29:08Z</time>
      </trkpt>
      <trkpt lat="43.61171" lon="3.41001">
        <ele>161.4</ele>
        <time>2022-05-19T08:29:09Z</time>
      </trkpt>
      <trkpt lat="43.61168" lon="3.40998">
        <ele>161.6</ele>
        <time>2022-05-19T08:29:10Z</time>
      </trkpt>
      <trkpt lat="43.61151" lon="3.40983">
        <ele>161.8</ele>
        <time>2022-05-19T08:29:15Z</time>
      </trkpt>
      <trkpt lat="43.6114" lon="3.40976">
        <ele>161.8</ele>
        <time>2022-05-19T08:29:20Z</time>
      </trkpt>
      <trkpt lat="43.61123" lon="3.40964">
        <ele>162.2</ele>
        <time>2022-05-19T08:29:27Z</time>
      </trkpt>
      <trkpt lat="43.61109" lon="3.4095">
        <ele>162.4</ele>
        <time>2022-05-19T08:29:32Z</time>
      </trkpt>
      <trkpt lat="43.61107" lon="3.40949">
        <ele>162.6</ele>
        <time>2022-05-19T08:29:33Z</time>
      </trkpt>
      <trkpt lat="43.61094" lon="3.40947">
        <ele>163.2</ele>
        <time>2022-05-19T08:29:39Z</time>
      </trkpt>
      <trkpt lat="43.61087" lon="3.4095">
        <ele>163.6</ele>
        <time>2022-05-19T08:29:43Z</time>
      </trkpt>
      <trkpt lat="43.61082" lon="3.40951">
        <ele>163.8</ele>
        <time>2022-05-19T08:29:46Z</time>
      </trkpt>
      <trkpt lat="43.6108" lon="3.40952">
        <ele>164</ele>
        <time>2022-05-19T08:29:47Z</time>
      </trkpt>
      <trkpt lat="43.6107" lon="3.40953">
        <ele>164.2</ele>
        <time>2022-05-19T08:29:50Z</time>
      </trkpt>
      <trkpt lat="43.61061" lon="3.40942">
        <ele>164.2</ele>
        <time>2022-05-19T08:29:54Z</time>
      </trkpt>
      <trkpt lat="43.61064" lon="3.40928">
        <ele>164.4</ele>
        <time>2022-05-19T08:29:58Z</time>
      </trkpt>
      <trkpt lat="43.6106" lon="3.40921">
        <ele>164.6</ele>
        <time>2022-05-19T08:30:00Z</time>
      </trkpt>
      <trkpt lat="43.61054" lon="3.40915">
        <ele>164.8</ele>
        <time>2022-05-19T08:30:02Z</time>
      </trkpt>
      <trkpt lat="43.61047" lon="3.40909">
        <ele>164.8</ele>
        <time>2022-05-19T08:30:04Z</time>
      </trkpt>
      <trkpt lat="43.61037" lon="3.40905">
        <ele>164.8</ele>
        <time>2022-05-19T08:30:06Z</time>
      </trkpt>
      <trkpt lat="43.6102" lon="3.40903">
        <ele>164.8</ele>
        <time>2022-05-19T08:30:11Z</time>
      </trkpt>
      <trkpt lat="43.61006" lon="3.40904">
        <ele>165.2</ele>
        <time>2022-05-19T08:30:16Z</time>
      </trkpt>
      <trkpt lat="43.60995" lon="3.40905">
        <ele>165.6</ele>
        <time>2022-05-19T08:30:20Z</time>
      </trkpt>
      <trkpt lat="43.60981" lon="3.40904">
        <ele>165.8</ele>
        <time>2022-05-19T08:30:24Z</time>
      </trkpt>
      <trkpt lat="43.6096" lon="3.409">
        <ele>165.8</ele>
        <time>2022-05-19T08:30:30Z</time>
      </trkpt>
      <trkpt lat="43.60947" lon="3.40903">
        <ele>165.8</ele>
        <time>2022-05-19T08:30:35Z</time>
      </trkpt>
      <trkpt lat="43.60946" lon="3.40905">
        <ele>165.8</ele>
        <time>2022-05-19T08:30:36Z</time>
      </trkpt>
      <trkpt lat="43.60942" lon="3.4091">
        <ele>166</ele>
        <time>2022-05-19T08:30:39Z</time>
      </trkpt>
      <trkpt lat="43.60935" lon="3.40915">
        <ele>166.2</ele>
        <time>2022-05-19T08:30:42Z</time>
      </trkpt>
      <trkpt lat="43.60931" lon="3.40916">
        <ele>166.4</ele>
        <time>2022-05-19T08:30:44Z</time>
      </trkpt>
      <trkpt lat="43.60925" lon="3.40918">
        <ele>166.8</ele>
        <time>2022-05-19T08:30:47Z</time>
      </trkpt>
      <trkpt lat="43.60917" lon="3.40922">
        <ele>168</ele>
        <time>2022-05-19T08:30:52Z</time>
      </trkpt>
      <trkpt lat="43.60915" lon="3.40923">
        <ele>168.2</ele>
        <time>2022-05-19T08:30:53Z</time>
      </trkpt>
      <trkpt lat="43.60914" lon="3.40923">
        <ele>168.4</ele>
        <time>2022-05-19T08:30:54Z</time>
      </trkpt>
      <trkpt lat="43.60911" lon="3.40925">
        <ele>168.6</ele>
        <time>2022-05-19T08:30:57Z</time>
      </trkpt>
      <trkpt lat="43.60909" lon="3.40926">
        <ele>169</ele>
        <time>2022-05-19T08:30:58Z</time>
      </trkpt>
      <trkpt lat="43.60906" lon="3.40928">
        <ele>169.2</ele>
        <time>2022-05-19T08:31:00Z</time>
      </trkpt>
      <trkpt lat="43.60896" lon="3.40931">
        <ele>170</ele>
        <time>2022-05-19T08:31:05Z</time>
      </trkpt>
      <trkpt lat="43.60892" lon="3.40932">
        <ele>170.2</ele>
        <time>2022-05-19T08:31:07Z</time>
      </trkpt>
      <trkpt lat="43.60886" lon="3.40932">
        <ele>170.8</ele>
        <time>2022-05-19T08:31:11Z</time>
      </trkpt>
      <trkpt lat="43.60875" lon="3.40935">
        <ele>171.4</ele>
        <time>2022-05-19T08:31:17Z</time>
      </trkpt>
      <trkpt lat="43.60872" lon="3.40935">
        <ele>171.4</ele>
        <time>2022-05-19T08:31:18Z</time>
      </trkpt>
      <trkpt lat="43.6087" lon="3.40935">
        <ele>171.6</ele>
        <time>2022-05-19T08:31:19Z</time>
      </trkpt>
      <trkpt lat="43.60857" lon="3.40935">
        <ele>172.4</ele>
        <time>2022-05-19T08:31:25Z</time>
      </trkpt>
      <trkpt lat="43.60846" lon="3.40939">
        <ele>173.2</ele>
        <time>2022-05-19T08:31:32Z</time>
      </trkpt>
      <trkpt lat="43.60845" lon="3.40939">
        <ele>173.4</ele>
        <time>2022-05-19T08:31:33Z</time>
      </trkpt>
      <trkpt lat="43.60833" lon="3.40939">
        <ele>174.2</ele>
        <time>2022-05-19T08:31:40Z</time>
      </trkpt>
      <trkpt lat="43.60832" lon="3.4094">
        <ele>174.6</ele>
        <time>2022-05-19T08:31:41Z</time>
      </trkpt>
      <trkpt lat="43.60826" lon="3.40944">
        <ele>175.2</ele>
        <time>2022-05-19T08:31:45Z</time>
      </trkpt>
      <trkpt lat="43.6082" lon="3.40948">
        <ele>175.6</ele>
        <time>2022-05-19T08:31:49Z</time>
      </trkpt>
      <trkpt lat="43.60815" lon="3.4095">
        <ele>176.4</ele>
        <time>2022-05-19T08:31:53Z</time>
      </trkpt>
      <trkpt lat="43.60809" lon="3.40952">
        <ele>176.8</ele>
        <time>2022-05-19T08:31:56Z</time>
      </trkpt>
      <trkpt lat="43.608" lon="3.40951">
        <ele>177.2</ele>
        <time>2022-05-19T08:32:00Z</time>
      </trkpt>
      <trkpt lat="43.60779" lon="3.40948">
        <ele>176.8</ele>
        <time>2022-05-19T08:32:06Z</time>
      </trkpt>
      <trkpt lat="43.60763" lon="3.40933">
        <ele>176</ele>
        <time>2022-05-19T08:32:11Z</time>
      </trkpt>
      <trkpt lat="43.60758" lon="3.40929">
        <ele>175.4</ele>
        <time>2022-05-19T08:32:13Z</time>
      </trkpt>
      <trkpt lat="43.60755" lon="3.40926">
        <ele>174.8</ele>
        <time>2022-05-19T08:32:15Z</time>
      </trkpt>
      <trkpt lat="43.60755" lon="3.40923">
        <ele>174.2</ele>
        <time>2022-05-19T08:32:16Z</time>
      </trkpt>
      <trkpt lat="43.60753" lon="3.40921">
        <ele>173.8</ele>
        <time>2022-05-19T08:32:17Z</time>
      </trkpt>
      <trkpt lat="43.60749" lon="3.4092">
        <ele>173.2</ele>
        <time>2022-05-19T08:32:19Z</time>
      </trkpt>
      <trkpt lat="43.60744" lon="3.40918">
        <ele>172.4</ele>
        <time>2022-05-19T08:32:21Z</time>
      </trkpt>
      <trkpt lat="43.60741" lon="3.40916">
        <ele>172</ele>
        <time>2022-05-19T08:32:22Z</time>
      </trkpt>
      <trkpt lat="43.60737" lon="3.40913">
        <ele>171.8</ele>
        <time>2022-05-19T08:32:23Z</time>
      </trkpt>
      <trkpt lat="43.60728" lon="3.40907">
        <ele>171.2</ele>
        <time>2022-05-19T08:32:25Z</time>
      </trkpt>
      <trkpt lat="43.60724" lon="3.40903">
        <ele>170.4</ele>
        <time>2022-05-19T08:32:26Z</time>
      </trkpt>
      <trkpt lat="43.6072" lon="3.40901">
        <ele>170.2</ele>
        <time>2022-05-19T08:32:27Z</time>
      </trkpt>
      <trkpt lat="43.60716" lon="3.40903">
        <ele>169</ele>
        <time>2022-05-19T08:32:28Z</time>
      </trkpt>
      <trkpt lat="43.60713" lon="3.40904">
        <ele>168</ele>
        <time>2022-05-19T08:32:29Z</time>
      </trkpt>
      <trkpt lat="43.60705" lon="3.40907">
        <ele>166.6</ele>
        <time>2022-05-19T08:32:31Z</time>
      </trkpt>
      <trkpt lat="43.60691" lon="3.40915">
        <ele>165.8</ele>
        <time>2022-05-19T08:32:35Z</time>
      </trkpt>
      <trkpt lat="43.60686" lon="3.40918">
        <ele>165.6</ele>
        <time>2022-05-19T08:32:37Z</time>
      </trkpt>
      <trkpt lat="43.60682" lon="3.40919">
        <ele>165.4</ele>
        <time>2022-05-19T08:32:39Z</time>
      </trkpt>
      <trkpt lat="43.60675" lon="3.4092">
        <ele>165.4</ele>
        <time>2022-05-19T08:32:43Z</time>
      </trkpt>
      <trkpt lat="43.60675" lon="3.40922">
        <ele>165.4</ele>
        <time>2022-05-19T08:32:46Z</time>
      </trkpt>
      <trkpt lat="43.60664" lon="3.40932">
        <ele>165.4</ele>
        <time>2022-05-19T08:32:54Z</time>
      </trkpt>
      <trkpt lat="43.60659" lon="3.40939">
        <ele>165.6</ele>
        <time>2022-05-19T08:33:00Z</time>
      </trkpt>
      <trkpt lat="43.60646" lon="3.4095">
        <ele>165.6</ele>
        <time>2022-05-19T08:33:07Z</time>
      </trkpt>
      <trkpt lat="43.60627" lon="3.40961">
        <ele>165.8</ele>
        <time>2022-05-19T08:33:14Z</time>
      </trkpt>
      <trkpt lat="43.60624" lon="3.4096">
        <ele>165.8</ele>
        <time>2022-05-19T08:33:15Z</time>
      </trkpt>
      <trkpt lat="43.60616" lon="3.40955">
        <ele>165.8</ele>
        <time>2022-05-19T08:33:18Z</time>
      </trkpt>
      <trkpt lat="43.60598" lon="3.40943">
        <ele>165.4</ele>
        <time>2022-05-19T08:33:22Z</time>
      </trkpt>
      <trkpt lat="43.60583" lon="3.40937">
        <ele>164.4</ele>
        <time>2022-05-19T08:33:25Z</time>
      </trkpt>
      <trkpt lat="43.60574" lon="3.40933">
        <ele>163</ele>
        <time>2022-05-19T08:33:27Z</time>
      </trkpt>
      <trkpt lat="43.60569" lon="3.40931">
        <ele>161</ele>
        <time>2022-05-19T08:33:29Z</time>
      </trkpt>
      <trkpt lat="43.60564" lon="3.4093">
        <ele>158.8</ele>
        <time>2022-05-19T08:33:31Z</time>
      </trkpt>
      <trkpt lat="43.60561" lon="3.40929">
        <ele>157.6</ele>
        <time>2022-05-19T08:33:33Z</time>
      </trkpt>
      <trkpt lat="43.60558" lon="3.40927">
        <ele>156.6</ele>
        <time>2022-05-19T08:33:35Z</time>
      </trkpt>
      <trkpt lat="43.60557" lon="3.40926">
        <ele>156.4</ele>
        <time>2022-05-19T08:33:36Z</time>
      </trkpt>
      <trkpt lat="43.60554" lon="3.40916">
        <ele>155.6</ele>
        <time>2022-05-19T08:33:39Z</time>
      </trkpt>
      <trkpt lat="43.60555" lon="3.40912">
        <ele>155.2</ele>
        <time>2022-05-19T08:33:41Z</time>
      </trkpt>
      <trkpt lat="43.60559" lon="3.40911">
        <ele>155</ele>
        <time>2022-05-19T08:33:43Z</time>
      </trkpt>
      <trkpt lat="43.60563" lon="3.40908">
        <ele>153.6</ele>
        <time>2022-05-19T08:33:46Z</time>
      </trkpt>
      <trkpt lat="43.60566" lon="3.40905">
        <ele>153</ele>
        <time>2022-05-19T08:33:48Z</time>
      </trkpt>
      <trkpt lat="43.60567" lon="3.409">
        <ele>152.4</ele>
        <time>2022-05-19T08:33:50Z</time>
      </trkpt>
      <trkpt lat="43.60569" lon="3.40892">
        <ele>151.8</ele>
        <time>2022-05-19T08:33:53Z</time>
      </trkpt>
      <trkpt lat="43.6057" lon="3.4089">
        <ele>151.6</ele>
        <time>2022-05-19T08:33:54Z</time>
      </trkpt>
      <trkpt lat="43.60573" lon="3.40887">
        <ele>151.2</ele>
        <time>2022-05-19T08:33:56Z</time>
      </trkpt>
      <trkpt lat="43.60576" lon="3.40879">
        <ele>150.2</ele>
        <time>2022-05-19T08:33:59Z</time>
      </trkpt>
      <trkpt lat="43.6058" lon="3.40866">
        <ele>149</ele>
        <time>2022-05-19T08:34:03Z</time>
      </trkpt>
      <trkpt lat="43.60582" lon="3.40859">
        <ele>148.4</ele>
        <time>2022-05-19T08:34:05Z</time>
      </trkpt>
      <trkpt lat="43.60584" lon="3.40853">
        <ele>147.2</ele>
        <time>2022-05-19T08:34:07Z</time>
      </trkpt>
      <trkpt lat="43.60586" lon="3.40849">
        <ele>146</ele>
        <time>2022-05-19T08:34:09Z</time>
      </trkpt>
      <trkpt lat="43.60589" lon="3.40838">
        <ele>144.8</ele>
        <time>2022-05-19T08:34:12Z</time>
      </trkpt>
      <trkpt lat="43.6059" lon="3.40835">
        <ele>144.4</ele>
        <time>2022-05-19T08:34:13Z</time>
      </trkpt>
      <trkpt lat="43.60592" lon="3.40828">
        <ele>143.6</ele>
        <time>2022-05-19T08:34:15Z</time>
      </trkpt>
      <trkpt lat="43.60595" lon="3.40815">
        <ele>142.4</ele>
        <time>2022-05-19T08:34:18Z</time>
      </trkpt>
      <trkpt lat="43.60602" lon="3.40808">
        <ele>141.2</ele>
        <time>2022-05-19T08:34:21Z</time>
      </trkpt>
      <trkpt lat="43.60609" lon="3.408">
        <ele>140</ele>
        <time>2022-05-19T08:34:24Z</time>
      </trkpt>
      <trkpt lat="43.60612" lon="3.40796">
        <ele>139.8</ele>
        <time>2022-05-19T08:34:25Z</time>
      </trkpt>
      <trkpt lat="43.6062" lon="3.40786">
        <ele>138.6</ele>
        <time>2022-05-19T08:34:28Z</time>
      </trkpt>
      <trkpt lat="43.60626" lon="3.40766">
        <ele>137.6</ele>
        <time>2022-05-19T08:34:32Z</time>
      </trkpt>
      <trkpt lat="43.60631" lon="3.40739">
        <ele>136.8</ele>
        <time>2022-05-19T08:34:37Z</time>
      </trkpt>
      <trkpt lat="43.60634" lon="3.40729">
        <ele>136.6</ele>
        <time>2022-05-19T08:34:39Z</time>
      </trkpt>
      <trkpt lat="43.60635" lon="3.40725">
        <ele>136.4</ele>
        <time>2022-05-19T08:34:40Z</time>
      </trkpt>
      <trkpt lat="43.60639" lon="3.40715">
        <ele>136.2</ele>
        <time>2022-05-19T08:34:43Z</time>
      </trkpt>
      <trkpt lat="43.6064" lon="3.40711">
        <ele>135.8</ele>
        <time>2022-05-19T08:34:47Z</time>
      </trkpt>
      <trkpt lat="43.6064" lon="3.40711">
        <ele>135.4</ele>
        <time>2022-05-19T08:34:55Z</time>
      </trkpt>
      <trkpt lat="43.60641" lon="3.40709">
        <ele>135</ele>
        <time>2022-05-19T08:35:16Z</time>
      </trkpt>
      <trkpt lat="43.60645" lon="3.40689">
        <ele>135</ele>
        <time>2022-05-19T08:35:22Z</time>
      </trkpt>
      <trkpt lat="43.60655" lon="3.40675">
        <ele>134.4</ele>
        <time>2022-05-19T08:35:27Z</time>
      </trkpt>
      <trkpt lat="43.60669" lon="3.40666">
        <ele>133.6</ele>
        <time>2022-05-19T08:35:33Z</time>
      </trkpt>
      <trkpt lat="43.60672" lon="3.40662">
        <ele>133.2</ele>
        <time>2022-05-19T08:35:35Z</time>
      </trkpt>
      <trkpt lat="43.60674" lon="3.40658">
        <ele>132.8</ele>
        <time>2022-05-19T08:35:37Z</time>
      </trkpt>
      <trkpt lat="43.60675" lon="3.40656">
        <ele>132.6</ele>
        <time>2022-05-19T08:35:38Z</time>
      </trkpt>
      <trkpt lat="43.60675" lon="3.40655">
        <ele>132.2</ele>
        <time>2022-05-19T08:35:39Z</time>
      </trkpt>
      <trkpt lat="43.60678" lon="3.40646">
        <ele>131.6</ele>
        <time>2022-05-19T08:35:46Z</time>
      </trkpt>
      <trkpt lat="43.60678" lon="3.40645">
        <ele>131.4</ele>
        <time>2022-05-19T08:35:52Z</time>
      </trkpt>
      <trkpt lat="43.6068" lon="3.40641">
        <ele>131.2</ele>
        <time>2022-05-19T08:35:58Z</time>
      </trkpt>
      <trkpt lat="43.60681" lon="3.40641">
        <ele>131</ele>
        <time>2022-05-19T08:35:59Z</time>
      </trkpt>
      <trkpt lat="43.60682" lon="3.4064">
        <ele>131</ele>
        <time>2022-05-19T08:36:00Z</time>
      </trkpt>
      <trkpt lat="43.60682" lon="3.40639">
        <ele>130.4</ele>
        <time>2022-05-19T08:36:09Z</time>
      </trkpt>
      <trkpt lat="43.60682" lon="3.40639">
        <ele>130</ele>
        <time>2022-05-19T08:36:14Z</time>
      </trkpt>
      <trkpt lat="43.60689" lon="3.40635">
        <ele>129</ele>
        <time>2022-05-19T08:36:24Z</time>
      </trkpt>
      <trkpt lat="43.6069" lon="3.40635">
        <ele>128.8</ele>
        <time>2022-05-19T08:36:25Z</time>
      </trkpt>
      <trkpt lat="43.60691" lon="3.40634">
        <ele>128.8</ele>
        <time>2022-05-19T08:36:26Z</time>
      </trkpt>
      <trkpt lat="43.60701" lon="3.40624">
        <ele>128</ele>
        <time>2022-05-19T08:36:30Z</time>
      </trkpt>
      <trkpt lat="43.60708" lon="3.4062">
        <ele>127.8</ele>
        <time>2022-05-19T08:36:33Z</time>
      </trkpt>
      <trkpt lat="43.60711" lon="3.40618">
        <ele>127.2</ele>
        <time>2022-05-19T08:36:35Z</time>
      </trkpt>
      <trkpt lat="43.60715" lon="3.40619">
        <ele>126.6</ele>
        <time>2022-05-19T08:36:37Z</time>
      </trkpt>
      <trkpt lat="43.6072" lon="3.40618">
        <ele>126.2</ele>
        <time>2022-05-19T08:36:39Z</time>
      </trkpt>
      <trkpt lat="43.60721" lon="3.40617">
        <ele>125.8</ele>
        <time>2022-05-19T08:36:40Z</time>
      </trkpt>
      <trkpt lat="43.60721" lon="3.40616">
        <ele>125.6</ele>
        <time>2022-05-19T08:36:41Z</time>
      </trkpt>
      <trkpt lat="43.60721" lon="3.40616">
        <ele>124.2</ele>
        <time>2022-05-19T08:36:44Z</time>
      </trkpt>
      <trkpt lat="43.60721" lon="3.40616">
        <ele>123.8</ele>
        <time>2022-05-19T08:36:46Z</time>
      </trkpt>
      <trkpt lat="43.60722" lon="3.40616">
        <ele>123.6</ele>
        <time>2022-05-19T08:36:50Z</time>
      </trkpt>
      <trkpt lat="43.60721" lon="3.40615">
        <ele>123.4</ele>
        <time>2022-05-19T08:38:00Z</time>
      </trkpt>
      <trkpt lat="43.60715" lon="3.40615">
        <ele>123.2</ele>
        <time>2022-05-19T08:38:03Z</time>
      </trkpt>
      <trkpt lat="43.6071" lon="3.40614">
        <ele>123</ele>
        <time>2022-05-19T08:38:06Z</time>
      </trkpt>
      <trkpt lat="43.60703" lon="3.4061">
        <ele>122.2</ele>
        <time>2022-05-19T08:38:10Z</time>
      </trkpt>
      <trkpt lat="43.60701" lon="3.4061">
        <ele>122.2</ele>
        <time>2022-05-19T08:38:11Z</time>
      </trkpt>
      <trkpt lat="43.607" lon="3.40608">
        <ele>121.6</ele>
        <time>2022-05-19T08:38:16Z</time>
      </trkpt>
      <trkpt lat="43.60693" lon="3.40605">
        <ele>121</ele>
        <time>2022-05-19T08:38:20Z</time>
      </trkpt>
      <trkpt lat="43.60689" lon="3.40604">
        <ele>120.8</ele>
        <time>2022-05-19T08:38:22Z</time>
      </trkpt>
      <trkpt lat="43.60682" lon="3.406">
        <ele>120.6</ele>
        <time>2022-05-19T08:38:26Z</time>
      </trkpt>
      <trkpt lat="43.60677" lon="3.40597">
        <ele>120</ele>
        <time>2022-05-19T08:38:29Z</time>
      </trkpt>
      <trkpt lat="43.60675" lon="3.40594">
        <ele>119.8</ele>
        <time>2022-05-19T08:38:30Z</time>
      </trkpt>
      <trkpt lat="43.6067" lon="3.40589">
        <ele>119.4</ele>
        <time>2022-05-19T08:38:32Z</time>
      </trkpt>
      <trkpt lat="43.6066" lon="3.40586">
        <ele>118.8</ele>
        <time>2022-05-19T08:38:35Z</time>
      </trkpt>
      <trkpt lat="43.60651" lon="3.40584">
        <ele>117.6</ele>
        <time>2022-05-19T08:38:38Z</time>
      </trkpt>
      <trkpt lat="43.60647" lon="3.40583">
        <ele>117.4</ele>
        <time>2022-05-19T08:38:39Z</time>
      </trkpt>
      <trkpt lat="43.60645" lon="3.40581">
        <ele>116.8</ele>
        <time>2022-05-19T08:38:43Z</time>
      </trkpt>
      <trkpt lat="43.60645" lon="3.40581">
        <ele>116.4</ele>
        <time>2022-05-19T08:38:48Z</time>
      </trkpt>
      <trkpt lat="43.60645" lon="3.40581">
        <ele>116</ele>
        <time>2022-05-19T08:38:57Z</time>
      </trkpt>
      <trkpt lat="43.60647" lon="3.40578">
        <ele>116.2</ele>
        <time>2022-05-19T08:40:16Z</time>
      </trkpt>
      <trkpt lat="43.6065" lon="3.40575">
        <ele>116.2</ele>
        <time>2022-05-19T08:40:18Z</time>
      </trkpt>
      <trkpt lat="43.6066" lon="3.40565">
        <ele>116.2</ele>
        <time>2022-05-19T08:40:24Z</time>
      </trkpt>
      <trkpt lat="43.60675" lon="3.40555">
        <ele>116.2</ele>
        <time>2022-05-19T08:40:31Z</time>
      </trkpt>
      <trkpt lat="43.60699" lon="3.4054">
        <ele>116.4</ele>
        <time>2022-05-19T08:40:38Z</time>
      </trkpt>
      <trkpt lat="43.60721" lon="3.40526">
        <ele>116.6</ele>
        <time>2022-05-19T08:40:44Z</time>
      </trkpt>
      <trkpt lat="43.60744" lon="3.40508">
        <ele>116.8</ele>
        <time>2022-05-19T08:40:52Z</time>
      </trkpt>
      <trkpt lat="43.60767" lon="3.40492">
        <ele>117.2</ele>
        <time>2022-05-19T08:40:59Z</time>
      </trkpt>
      <trkpt lat="43.60785" lon="3.40477">
        <ele>117.8</ele>
        <time>2022-05-19T08:41:05Z</time>
      </trkpt>
      <trkpt lat="43.60803" lon="3.40463">
        <ele>118.2</ele>
        <time>2022-05-19T08:41:11Z</time>
      </trkpt>
      <trkpt lat="43.6081" lon="3.40457">
        <ele>118.4</ele>
        <time>2022-05-19T08:41:13Z</time>
      </trkpt>
      <trkpt lat="43.60833" lon="3.40431">
        <ele>118.8</ele>
        <time>2022-05-19T08:41:22Z</time>
      </trkpt>
      <trkpt lat="43.60846" lon="3.40415">
        <ele>119</ele>
        <time>2022-05-19T08:41:27Z</time>
      </trkpt>
      <trkpt lat="43.60851" lon="3.40408">
        <ele>119.2</ele>
        <time>2022-05-19T08:41:29Z</time>
      </trkpt>
      <trkpt lat="43.6086" lon="3.40394">
        <ele>120.2</ele>
        <time>2022-05-19T08:41:34Z</time>
      </trkpt>
      <trkpt lat="43.6087" lon="3.40381">
        <ele>121</ele>
        <time>2022-05-19T08:41:39Z</time>
      </trkpt>
      <trkpt lat="43.60872" lon="3.40379">
        <ele>121.2</ele>
        <time>2022-05-19T08:41:40Z</time>
      </trkpt>
      <trkpt lat="43.60888" lon="3.40359">
        <ele>122.4</ele>
        <time>2022-05-19T08:41:48Z</time>
      </trkpt>
      <trkpt lat="43.60893" lon="3.40351">
        <ele>123.2</ele>
        <time>2022-05-19T08:41:52Z</time>
      </trkpt>
      <trkpt lat="43.60899" lon="3.40343">
        <ele>123.8</ele>
        <time>2022-05-19T08:41:55Z</time>
      </trkpt>
      <trkpt lat="43.60905" lon="3.40335">
        <ele>124.4</ele>
        <time>2022-05-19T08:41:58Z</time>
      </trkpt>
      <trkpt lat="43.60912" lon="3.40327">
        <ele>125</ele>
        <time>2022-05-19T08:42:01Z</time>
      </trkpt>
      <trkpt lat="43.60921" lon="3.40315">
        <ele>125.8</ele>
        <time>2022-05-19T08:42:06Z</time>
      </trkpt>
      <trkpt lat="43.60929" lon="3.40305">
        <ele>126</ele>
        <time>2022-05-19T08:42:09Z</time>
      </trkpt>
      <trkpt lat="43.60935" lon="3.40298">
        <ele>126.2</ele>
        <time>2022-05-19T08:42:11Z</time>
      </trkpt>
      <trkpt lat="43.60948" lon="3.40283">
        <ele>126.6</ele>
        <time>2022-05-19T08:42:15Z</time>
      </trkpt>
      <trkpt lat="43.60963" lon="3.40262">
        <ele>127</ele>
        <time>2022-05-19T08:42:22Z</time>
      </trkpt>
      <trkpt lat="43.60982" lon="3.40241">
        <ele>127.4</ele>
        <time>2022-05-19T08:42:30Z</time>
      </trkpt>
      <trkpt lat="43.60987" lon="3.40236">
        <ele>127.6</ele>
        <time>2022-05-19T08:42:34Z</time>
      </trkpt>
      <trkpt lat="43.60988" lon="3.40235">
        <ele>127.6</ele>
        <time>2022-05-19T08:42:35Z</time>
      </trkpt>
      <trkpt lat="43.60989" lon="3.40235">
        <ele>127.6</ele>
        <time>2022-05-19T08:42:36Z</time>
      </trkpt>
      <trkpt lat="43.6099" lon="3.40234">
        <ele>127.6</ele>
        <time>2022-05-19T08:42:40Z</time>
      </trkpt>
      <trkpt lat="43.60994" lon="3.40226">
        <ele>127.6</ele>
        <time>2022-05-19T08:43:02Z</time>
      </trkpt>
      <trkpt lat="43.60996" lon="3.4022">
        <ele>127.6</ele>
        <time>2022-05-19T08:43:04Z</time>
      </trkpt>
      <trkpt lat="43.61002" lon="3.40214">
        <ele>127.6</ele>
        <time>2022-05-19T08:43:07Z</time>
      </trkpt>
      <trkpt lat="43.61017" lon="3.40198">
        <ele>128.2</ele>
        <time>2022-05-19T08:43:14Z</time>
      </trkpt>
      <trkpt lat="43.61028" lon="3.40184">
        <ele>129</ele>
        <time>2022-05-19T08:43:20Z</time>
      </trkpt>
      <trkpt lat="43.61029" lon="3.40182">
        <ele>129.2</ele>
        <time>2022-05-19T08:43:21Z</time>
      </trkpt>
      <trkpt lat="43.61037" lon="3.40171">
        <ele>129.8</ele>
        <time>2022-05-19T08:43:26Z</time>
      </trkpt>
      <trkpt lat="43.61044" lon="3.40163">
        <ele>130</ele>
        <time>2022-05-19T08:43:32Z</time>
      </trkpt>
      <trkpt lat="43.61045" lon="3.40163">
        <ele>130</ele>
        <time>2022-05-19T08:43:33Z</time>
      </trkpt>
      <trkpt lat="43.61048" lon="3.40165">
        <ele>130.2</ele>
        <time>2022-05-19T08:43:37Z</time>
      </trkpt>
      <trkpt lat="43.61049" lon="3.40165">
        <ele>130.2</ele>
        <time>2022-05-19T08:43:41Z</time>
      </trkpt>
      <trkpt lat="43.61052" lon="3.40166">
        <ele>130</ele>
        <time>2022-05-19T08:43:46Z</time>
      </trkpt>
      <trkpt lat="43.61049" lon="3.40169">
        <ele>130</ele>
        <time>2022-05-19T08:43:49Z</time>
      </trkpt>
      <trkpt lat="43.61048" lon="3.40172">
        <ele>130</ele>
        <time>2022-05-19T08:43:51Z</time>
      </trkpt>
      <trkpt lat="43.61044" lon="3.40173">
        <ele>130</ele>
        <time>2022-05-19T08:43:58Z</time>
      </trkpt>
      <trkpt lat="43.61045" lon="3.4017">
        <ele>130</ele>
        <time>2022-05-19T08:44:06Z</time>
      </trkpt>
      <trkpt lat="43.61045" lon="3.4017">
        <ele>130.4</ele>
        <time>2022-05-19T08:44:17Z</time>
      </trkpt>
      <trkpt lat="43.61045" lon="3.4017">
        <ele>130.4</ele>
        <time>2022-05-19T08:44:46Z</time>
      </trkpt>
      <trkpt lat="43.61045" lon="3.40168">
        <ele>130.6</ele>
        <time>2022-05-19T08:45:07Z</time>
      </trkpt>
      <trkpt lat="43.61043" lon="3.40167">
        <ele>130.6</ele>
        <time>2022-05-19T08:45:09Z</time>
      </trkpt>
      <trkpt lat="43.61041" lon="3.40171">
        <ele>130.2</ele>
        <time>2022-05-19T08:45:16Z</time>
      </trkpt>
      <trkpt lat="43.61031" lon="3.40177">
        <ele>130.2</ele>
        <time>2022-05-19T08:45:21Z</time>
      </trkpt>
      <trkpt lat="43.61019" lon="3.40192">
        <ele>130</ele>
        <time>2022-05-19T08:45:27Z</time>
      </trkpt>
      <trkpt lat="43.60999" lon="3.40213">
        <ele>129.4</ele>
        <time>2022-05-19T08:45:35Z</time>
      </trkpt>
      <trkpt lat="43.60993" lon="3.40218">
        <ele>128.8</ele>
        <time>2022-05-19T08:45:39Z</time>
      </trkpt>
      <trkpt lat="43.60991" lon="3.4022">
        <ele>128.2</ele>
        <time>2022-05-19T08:45:40Z</time>
      </trkpt>
      <trkpt lat="43.60987" lon="3.40225">
        <ele>127.6</ele>
        <time>2022-05-19T08:45:42Z</time>
      </trkpt>
      <trkpt lat="43.6098" lon="3.40235">
        <ele>127.4</ele>
        <time>2022-05-19T08:45:45Z</time>
      </trkpt>
      <trkpt lat="43.60967" lon="3.40247">
        <ele>127.4</ele>
        <time>2022-05-19T08:45:50Z</time>
      </trkpt>
      <trkpt lat="43.60958" lon="3.40261">
        <ele>127.6</ele>
        <time>2022-05-19T08:45:55Z</time>
      </trkpt>
      <trkpt lat="43.60944" lon="3.4028">
        <ele>127.2</ele>
        <time>2022-05-19T08:46:00Z</time>
      </trkpt>
      <trkpt lat="43.60926" lon="3.403">
        <ele>126.6</ele>
        <time>2022-05-19T08:46:06Z</time>
      </trkpt>
      <trkpt lat="43.6092" lon="3.40309">
        <ele>126.4</ele>
        <time>2022-05-19T08:46:09Z</time>
      </trkpt>
      <trkpt lat="43.60912" lon="3.40318">
        <ele>126.4</ele>
        <time>2022-05-19T08:46:12Z</time>
      </trkpt>
      <trkpt lat="43.60887" lon="3.40349">
        <ele>125.8</ele>
        <time>2022-05-19T08:46:19Z</time>
      </trkpt>
      <trkpt lat="43.60882" lon="3.40356">
        <ele>125.6</ele>
        <time>2022-05-19T08:46:20Z</time>
      </trkpt>
      <trkpt lat="43.60861" lon="3.40385">
        <ele>124.6</ele>
        <time>2022-05-19T08:46:24Z</time>
      </trkpt>
      <trkpt lat="43.60855" lon="3.40391">
        <ele>124.6</ele>
        <time>2022-05-19T08:46:25Z</time>
      </trkpt>
      <trkpt lat="43.60839" lon="3.40413">
        <ele>123.4</ele>
        <time>2022-05-19T08:46:28Z</time>
      </trkpt>
      <trkpt lat="43.60828" lon="3.40426">
        <ele>122.8</ele>
        <time>2022-05-19T08:46:30Z</time>
      </trkpt>
      <trkpt lat="43.60816" lon="3.4044">
        <ele>122.2</ele>
        <time>2022-05-19T08:46:32Z</time>
      </trkpt>
      <trkpt lat="43.60789" lon="3.40462">
        <ele>120.8</ele>
        <time>2022-05-19T08:46:36Z</time>
      </trkpt>
      <trkpt lat="43.60765" lon="3.4048">
        <ele>119.6</ele>
        <time>2022-05-19T08:46:41Z</time>
      </trkpt>
      <trkpt lat="43.60755" lon="3.40489">
        <ele>119.2</ele>
        <time>2022-05-19T08:46:43Z</time>
      </trkpt>
      <trkpt lat="43.60749" lon="3.40493">
        <ele>119.2</ele>
        <time>2022-05-19T08:46:44Z</time>
      </trkpt>
      <trkpt lat="43.60735" lon="3.40504">
        <ele>118.4</ele>
        <time>2022-05-19T08:46:47Z</time>
      </trkpt>
      <trkpt lat="43.60724" lon="3.40511">
        <ele>118.2</ele>
        <time>2022-05-19T08:46:49Z</time>
      </trkpt>
      <trkpt lat="43.60706" lon="3.40524">
        <ele>117.8</ele>
        <time>2022-05-19T08:46:53Z</time>
      </trkpt>
      <trkpt lat="43.60697" lon="3.4053">
        <ele>117.4</ele>
        <time>2022-05-19T08:46:55Z</time>
      </trkpt>
      <trkpt lat="43.60693" lon="3.40533">
        <ele>117.2</ele>
        <time>2022-05-19T08:46:56Z</time>
      </trkpt>
      <trkpt lat="43.60674" lon="3.40546">
        <ele>116.8</ele>
        <time>2022-05-19T08:47:01Z</time>
      </trkpt>
      <trkpt lat="43.60657" lon="3.40556">
        <ele>116.6</ele>
        <time>2022-05-19T08:47:07Z</time>
      </trkpt>
      <trkpt lat="43.60636" lon="3.40568">
        <ele>116.6</ele>
        <time>2022-05-19T08:47:14Z</time>
      </trkpt>
      <trkpt lat="43.60631" lon="3.40576">
        <ele>116.6</ele>
        <time>2022-05-19T08:47:16Z</time>
      </trkpt>
      <trkpt lat="43.60619" lon="3.40592">
        <ele>116.4</ele>
        <time>2022-05-19T08:47:19Z</time>
      </trkpt>
      <trkpt lat="43.6061" lon="3.40613">
        <ele>116.4</ele>
        <time>2022-05-19T08:47:23Z</time>
      </trkpt>
      <trkpt lat="43.60608" lon="3.40616">
        <ele>116.4</ele>
        <time>2022-05-19T08:47:24Z</time>
      </trkpt>
      <trkpt lat="43.60603" lon="3.40626">
        <ele>116</ele>
        <time>2022-05-19T08:47:27Z</time>
      </trkpt>
      <trkpt lat="43.60599" lon="3.40631">
        <ele>115.4</ele>
        <time>2022-05-19T08:47:30Z</time>
      </trkpt>
      <trkpt lat="43.60591" lon="3.40637">
        <ele>115.2</ele>
        <time>2022-05-19T08:47:33Z</time>
      </trkpt>
      <trkpt lat="43.60588" lon="3.40639">
        <ele>115</ele>
        <time>2022-05-19T08:47:34Z</time>
      </trkpt>
      <trkpt lat="43.60578" lon="3.40649">
        <ele>114.2</ele>
        <time>2022-05-19T08:47:38Z</time>
      </trkpt>
      <trkpt lat="43.60573" lon="3.40648">
        <ele>114</ele>
        <time>2022-05-19T08:47:40Z</time>
      </trkpt>
      <trkpt lat="43.60565" lon="3.40649">
        <ele>113.2</ele>
        <time>2022-05-19T08:47:43Z</time>
      </trkpt>
      <trkpt lat="43.60561" lon="3.40648">
        <ele>113</ele>
        <time>2022-05-19T08:47:45Z</time>
      </trkpt>
      <trkpt lat="43.60555" lon="3.40647">
        <ele>112.4</ele>
        <time>2022-05-19T08:47:49Z</time>
      </trkpt>
      <trkpt lat="43.60555" lon="3.40647">
        <ele>111.8</ele>
        <time>2022-05-19T08:47:51Z</time>
      </trkpt>
      <trkpt lat="43.60555" lon="3.40647">
        <ele>111.2</ele>
        <time>2022-05-19T08:48:00Z</time>
      </trkpt>
      <trkpt lat="43.60555" lon="3.40647">
        <ele>110.8</ele>
        <time>2022-05-19T08:48:05Z</time>
      </trkpt>
      <trkpt lat="43.60555" lon="3.40646">
        <ele>110.2</ele>
        <time>2022-05-19T08:48:26Z</time>
      </trkpt>
      <trkpt lat="43.60555" lon="3.40646">
        <ele>110.6</ele>
        <time>2022-05-19T08:50:37Z</time>
      </trkpt>
      <trkpt lat="43.60557" lon="3.40647">
        <ele>111</ele>
        <time>2022-05-19T08:51:10Z</time>
      </trkpt>
      <trkpt lat="43.60557" lon="3.40647">
        <ele>111</ele>
        <time>2022-05-19T08:51:12Z</time>
      </trkpt>
      <trkpt lat="43.60557" lon="3.40648">
        <ele>112</ele>
        <time>2022-05-19T08:51:23Z</time>
      </trkpt>
      <trkpt lat="43.60558" lon="3.40648">
        <ele>112.2</ele>
        <time>2022-05-19T08:51:25Z</time>
      </trkpt>
      <trkpt lat="43.60563" lon="3.40648">
        <ele>112.2</ele>
        <time>2022-05-19T08:51:27Z</time>
      </trkpt>
      <trkpt lat="43.60565" lon="3.40649">
        <ele>112.2</ele>
        <time>2022-05-19T08:51:28Z</time>
      </trkpt>
      <trkpt lat="43.60571" lon="3.4065">
        <ele>112.4</ele>
        <time>2022-05-19T08:51:30Z</time>
      </trkpt>
      <trkpt lat="43.60576" lon="3.40647">
        <ele>112.4</ele>
        <time>2022-05-19T08:51:32Z</time>
      </trkpt>
      <trkpt lat="43.60585" lon="3.40641">
        <ele>113</ele>
        <time>2022-05-19T08:51:37Z</time>
      </trkpt>
      <trkpt lat="43.60597" lon="3.40637">
        <ele>113.6</ele>
        <time>2022-05-19T08:51:42Z</time>
      </trkpt>
      <trkpt lat="43.60598" lon="3.40636">
        <ele>113.6</ele>
        <time>2022-05-19T08:51:43Z</time>
      </trkpt>
      <trkpt lat="43.606" lon="3.40634">
        <ele>114</ele>
        <time>2022-05-19T08:51:45Z</time>
      </trkpt>
      <trkpt lat="43.60601" lon="3.40632">
        <ele>114.6</ele>
        <time>2022-05-19T08:51:46Z</time>
      </trkpt>
      <trkpt lat="43.60602" lon="3.4063">
        <ele>114.6</ele>
        <time>2022-05-19T08:51:47Z</time>
      </trkpt>
      <trkpt lat="43.60606" lon="3.40627">
        <ele>115</ele>
        <time>2022-05-19T08:51:49Z</time>
      </trkpt>
      <trkpt lat="43.60608" lon="3.40621">
        <ele>115.2</ele>
        <time>2022-05-19T08:51:52Z</time>
      </trkpt>
      <trkpt lat="43.60612" lon="3.40616">
        <ele>115.4</ele>
        <time>2022-05-19T08:51:56Z</time>
      </trkpt>
      <trkpt lat="43.60616" lon="3.40608">
        <ele>115.6</ele>
        <time>2022-05-19T08:52:01Z</time>
      </trkpt>
      <trkpt lat="43.60618" lon="3.40604">
        <ele>115.6</ele>
        <time>2022-05-19T08:52:03Z</time>
      </trkpt>
      <trkpt lat="43.60619" lon="3.40603">
        <ele>115.8</ele>
        <time>2022-05-19T08:52:04Z</time>
      </trkpt>
      <trkpt lat="43.60621" lon="3.40601">
        <ele>115.6</ele>
        <time>2022-05-19T08:52:06Z</time>
      </trkpt>
      <trkpt lat="43.60627" lon="3.40596">
        <ele>115.6</ele>
        <time>2022-05-19T08:52:10Z</time>
      </trkpt>
      <trkpt lat="43.60637" lon="3.40585">
        <ele>116</ele>
        <time>2022-05-19T08:52:15Z</time>
      </trkpt>
      <trkpt lat="43.60652" lon="3.40571">
        <ele>116.4</ele>
        <time>2022-05-19T08:52:21Z</time>
      </trkpt>
      <trkpt lat="43.60668" lon="3.40559">
        <ele>116.6</ele>
        <time>2022-05-19T08:52:26Z</time>
      </trkpt>
      <trkpt lat="43.60693" lon="3.40543">
        <ele>116.6</ele>
        <time>2022-05-19T08:52:33Z</time>
      </trkpt>
      <trkpt lat="43.60721" lon="3.40527">
        <ele>116.6</ele>
        <time>2022-05-19T08:52:40Z</time>
      </trkpt>
      <trkpt lat="43.60745" lon="3.40507">
        <ele>117</ele>
        <time>2022-05-19T08:52:48Z</time>
      </trkpt>
      <trkpt lat="43.60765" lon="3.40491">
        <ele>117.4</ele>
        <time>2022-05-19T08:52:55Z</time>
      </trkpt>
      <trkpt lat="43.60771" lon="3.40487">
        <ele>117.6</ele>
        <time>2022-05-19T08:52:57Z</time>
      </trkpt>
      <trkpt lat="43.60802" lon="3.40462">
        <ele>118.2</ele>
        <time>2022-05-19T08:53:07Z</time>
      </trkpt>
      <trkpt lat="43.60805" lon="3.4046">
        <ele>118.4</ele>
        <time>2022-05-19T08:53:08Z</time>
      </trkpt>
      <trkpt lat="43.60823" lon="3.40442">
        <ele>118.8</ele>
        <time>2022-05-19T08:53:14Z</time>
      </trkpt>
      <trkpt lat="43.60838" lon="3.40422">
        <ele>119.4</ele>
        <time>2022-05-19T08:53:20Z</time>
      </trkpt>
      <trkpt lat="43.60841" lon="3.40418">
        <ele>119.6</ele>
        <time>2022-05-19T08:53:21Z</time>
      </trkpt>
      <trkpt lat="43.60853" lon="3.40405">
        <ele>120.2</ele>
        <time>2022-05-19T08:53:25Z</time>
      </trkpt>
      <trkpt lat="43.60861" lon="3.40395">
        <ele>120.4</ele>
        <time>2022-05-19T08:53:28Z</time>
      </trkpt>
      <trkpt lat="43.60863" lon="3.40392">
        <ele>120.6</ele>
        <time>2022-05-19T08:53:29Z</time>
      </trkpt>
      <trkpt lat="43.60876" lon="3.40377">
        <ele>121.6</ele>
        <time>2022-05-19T08:53:34Z</time>
      </trkpt>
      <trkpt lat="43.60881" lon="3.40371">
        <ele>121.8</ele>
        <time>2022-05-19T08:53:36Z</time>
      </trkpt>
      <trkpt lat="43.60892" lon="3.40356">
        <ele>122.6</ele>
        <time>2022-05-19T08:53:41Z</time>
      </trkpt>
      <trkpt lat="43.60894" lon="3.40353">
        <ele>123</ele>
        <time>2022-05-19T08:53:42Z</time>
      </trkpt>
      <trkpt lat="43.60901" lon="3.40342">
        <ele>123.8</ele>
        <time>2022-05-19T08:53:46Z</time>
      </trkpt>
      <trkpt lat="43.60905" lon="3.40338">
        <ele>124.2</ele>
        <time>2022-05-19T08:53:48Z</time>
      </trkpt>
      <trkpt lat="43.60911" lon="3.40329">
        <ele>125</ele>
        <time>2022-05-19T08:53:51Z</time>
      </trkpt>
      <trkpt lat="43.6092" lon="3.40318">
        <ele>125.6</ele>
        <time>2022-05-19T08:53:55Z</time>
      </trkpt>
      <trkpt lat="43.60935" lon="3.40299">
        <ele>126.2</ele>
        <time>2022-05-19T08:54:01Z</time>
      </trkpt>
      <trkpt lat="43.60954" lon="3.40275">
        <ele>127</ele>
        <time>2022-05-19T08:54:08Z</time>
      </trkpt>
      <trkpt lat="43.60968" lon="3.40255">
        <ele>127.4</ele>
        <time>2022-05-19T08:54:14Z</time>
      </trkpt>
      <trkpt lat="43.60971" lon="3.40249">
        <ele>127.6</ele>
        <time>2022-05-19T08:54:16Z</time>
      </trkpt>
      <trkpt lat="43.60984" lon="3.40231">
        <ele>128</ele>
        <time>2022-05-19T08:54:23Z</time>
      </trkpt>
      <trkpt lat="43.60994" lon="3.40219">
        <ele>128.2</ele>
        <time>2022-05-19T08:54:29Z</time>
      </trkpt>
      <trkpt lat="43.61005" lon="3.40205">
        <ele>128.4</ele>
        <time>2022-05-19T08:54:34Z</time>
      </trkpt>
      <trkpt lat="43.61008" lon="3.40201">
        <ele>128.6</ele>
        <time>2022-05-19T08:54:36Z</time>
      </trkpt>
      <trkpt lat="43.61013" lon="3.40194">
        <ele>129</ele>
        <time>2022-05-19T08:54:39Z</time>
      </trkpt>
      <trkpt lat="43.61024" lon="3.40181">
        <ele>129.6</ele>
        <time>2022-05-19T08:54:44Z</time>
      </trkpt>
      <trkpt lat="43.6103" lon="3.40174">
        <ele>130</ele>
        <time>2022-05-19T08:54:47Z</time>
      </trkpt>
      <trkpt lat="43.61039" lon="3.40164">
        <ele>130.6</ele>
        <time>2022-05-19T08:54:52Z</time>
      </trkpt>
      <trkpt lat="43.61043" lon="3.40169">
        <ele>130.8</ele>
        <time>2022-05-19T08:54:54Z</time>
      </trkpt>
      <trkpt lat="43.61046" lon="3.40176">
        <ele>131</ele>
        <time>2022-05-19T08:54:56Z</time>
      </trkpt>
      <trkpt lat="43.6106" lon="3.40196">
        <ele>131.2</ele>
        <time>2022-05-19T08:55:01Z</time>
      </trkpt>
      <trkpt lat="43.6107" lon="3.40219">
        <ele>130.8</ele>
        <time>2022-05-19T08:55:06Z</time>
      </trkpt>
      <trkpt lat="43.6108" lon="3.40243">
        <ele>130.6</ele>
        <time>2022-05-19T08:55:11Z</time>
      </trkpt>
      <trkpt lat="43.61093" lon="3.40278">
        <ele>130</ele>
        <time>2022-05-19T08:55:18Z</time>
      </trkpt>
      <trkpt lat="43.61096" lon="3.40287">
        <ele>130</ele>
        <time>2022-05-19T08:55:20Z</time>
      </trkpt>
      <trkpt lat="43.61102" lon="3.40296">
        <ele>130</ele>
        <time>2022-05-19T08:55:22Z</time>
      </trkpt>
      <trkpt lat="43.61105" lon="3.40301">
        <ele>129.6</ele>
        <time>2022-05-19T08:55:23Z</time>
      </trkpt>
      <trkpt lat="43.61109" lon="3.40313">
        <ele>129.6</ele>
        <time>2022-05-19T08:55:25Z</time>
      </trkpt>
      <trkpt lat="43.61113" lon="3.40325">
        <ele>129.6</ele>
        <time>2022-05-19T08:55:27Z</time>
      </trkpt>
      <trkpt lat="43.61124" lon="3.40352">
        <ele>129.2</ele>
        <time>2022-05-19T08:55:32Z</time>
      </trkpt>
      <trkpt lat="43.6113" lon="3.40362">
        <ele>129</ele>
        <time>2022-05-19T08:55:34Z</time>
      </trkpt>
      <trkpt lat="43.61141" lon="3.4039">
        <ele>128.8</ele>
        <time>2022-05-19T08:55:39Z</time>
      </trkpt>
      <trkpt lat="43.61145" lon="3.40401">
        <ele>128.4</ele>
        <time>2022-05-19T08:55:41Z</time>
      </trkpt>
      <trkpt lat="43.61157" lon="3.40425">
        <ele>127.8</ele>
        <time>2022-05-19T08:55:47Z</time>
      </trkpt>
      <trkpt lat="43.61159" lon="3.4043">
        <ele>127.6</ele>
        <time>2022-05-19T08:55:49Z</time>
      </trkpt>
      <trkpt lat="43.61161" lon="3.40437">
        <ele>127.6</ele>
        <time>2022-05-19T08:55:51Z</time>
      </trkpt>
      <trkpt lat="43.61169" lon="3.4045">
        <ele>127.2</ele>
        <time>2022-05-19T08:55:57Z</time>
      </trkpt>
      <trkpt lat="43.61178" lon="3.40469">
        <ele>127</ele>
        <time>2022-05-19T08:56:03Z</time>
      </trkpt>
      <trkpt lat="43.61191" lon="3.40488">
        <ele>127.2</ele>
        <time>2022-05-19T08:56:09Z</time>
      </trkpt>
      <trkpt lat="43.61201" lon="3.40499">
        <ele>127.2</ele>
        <time>2022-05-19T08:56:15Z</time>
      </trkpt>
      <trkpt lat="43.61206" lon="3.40505">
        <ele>127.2</ele>
        <time>2022-05-19T08:56:21Z</time>
      </trkpt>
      <trkpt lat="43.61207" lon="3.40507">
        <ele>127.2</ele>
        <time>2022-05-19T08:56:34Z</time>
      </trkpt>
      <trkpt lat="43.61207" lon="3.40506">
        <ele>126.8</ele>
        <time>2022-05-19T08:56:56Z</time>
      </trkpt>
      <trkpt lat="43.61203" lon="3.40504">
        <ele>126.8</ele>
        <time>2022-05-19T08:57:00Z</time>
      </trkpt>
      <trkpt lat="43.61193" lon="3.40494">
        <ele>126.8</ele>
        <time>2022-05-19T08:57:08Z</time>
      </trkpt>
      <trkpt lat="43.61178" lon="3.40474">
        <ele>126.8</ele>
        <time>2022-05-19T08:57:15Z</time>
      </trkpt>
      <trkpt lat="43.61167" lon="3.40447">
        <ele>126.8</ele>
        <time>2022-05-19T08:57:23Z</time>
      </trkpt>
      <trkpt lat="43.61165" lon="3.40439">
        <ele>126.8</ele>
        <time>2022-05-19T08:57:26Z</time>
      </trkpt>
      <trkpt lat="43.61167" lon="3.40435">
        <ele>126.8</ele>
        <time>2022-05-19T08:57:28Z</time>
      </trkpt>
      <trkpt lat="43.6117" lon="3.40431">
        <ele>126.6</ele>
        <time>2022-05-19T08:57:31Z</time>
      </trkpt>
      <trkpt lat="43.6117" lon="3.40431">
        <ele>126.6</ele>
        <time>2022-05-19T08:57:32Z</time>
      </trkpt>
      <trkpt lat="43.61175" lon="3.40425">
        <ele>126.2</ele>
        <time>2022-05-19T08:57:40Z</time>
      </trkpt>
      <trkpt lat="43.61176" lon="3.40424">
        <ele>126</ele>
        <time>2022-05-19T08:57:46Z</time>
      </trkpt>
      <trkpt lat="43.61173" lon="3.40423">
        <ele>125.8</ele>
        <time>2022-05-19T08:57:55Z</time>
      </trkpt>
      <trkpt lat="43.6117" lon="3.40426">
        <ele>125.8</ele>
        <time>2022-05-19T08:57:59Z</time>
      </trkpt>
      <trkpt lat="43.61168" lon="3.40429">
        <ele>125.8</ele>
        <time>2022-05-19T08:58:01Z</time>
      </trkpt>
      <trkpt lat="43.61164" lon="3.40433">
        <ele>126</ele>
        <time>2022-05-19T08:58:04Z</time>
      </trkpt>
      <trkpt lat="43.61162" lon="3.40432">
        <ele>126</ele>
        <time>2022-05-19T08:58:06Z</time>
      </trkpt>
      <trkpt lat="43.61156" lon="3.40417">
        <ele>126.6</ele>
        <time>2022-05-19T08:58:13Z</time>
      </trkpt>
      <trkpt lat="43.61148" lon="3.40399">
        <ele>126.6</ele>
        <time>2022-05-19T08:58:18Z</time>
      </trkpt>
      <trkpt lat="43.61147" lon="3.40395">
        <ele>126.6</ele>
        <time>2022-05-19T08:58:19Z</time>
      </trkpt>
      <trkpt lat="43.61133" lon="3.40364">
        <ele>127</ele>
        <time>2022-05-19T08:58:26Z</time>
      </trkpt>
      <trkpt lat="43.61118" lon="3.40326">
        <ele>127.6</ele>
        <time>2022-05-19T08:58:34Z</time>
      </trkpt>
      <trkpt lat="43.61115" lon="3.40319">
        <ele>127.8</ele>
        <time>2022-05-19T08:58:36Z</time>
      </trkpt>
      <trkpt lat="43.61099" lon="3.40282">
        <ele>128.2</ele>
        <time>2022-05-19T08:58:44Z</time>
      </trkpt>
      <trkpt lat="43.61094" lon="3.40268">
        <ele>128.8</ele>
        <time>2022-05-19T08:58:48Z</time>
      </trkpt>
      <trkpt lat="43.61088" lon="3.40251">
        <ele>129</ele>
        <time>2022-05-19T08:58:53Z</time>
      </trkpt>
      <trkpt lat="43.61081" lon="3.40233">
        <ele>129.4</ele>
        <time>2022-05-19T08:58:59Z</time>
      </trkpt>
      <trkpt lat="43.61073" lon="3.40216">
        <ele>129.8</ele>
        <time>2022-05-19T08:59:03Z</time>
      </trkpt>
      <trkpt lat="43.61066" lon="3.40197">
        <ele>130</ele>
        <time>2022-05-19T08:59:07Z</time>
      </trkpt>
      <trkpt lat="43.61052" lon="3.40169">
        <ele>130.6</ele>
        <time>2022-05-19T08:59:13Z</time>
      </trkpt>
      <trkpt lat="43.61053" lon="3.40158">
        <ele>130.8</ele>
        <time>2022-05-19T08:59:16Z</time>
      </trkpt>
      <trkpt lat="43.61057" lon="3.40145">
        <ele>130.8</ele>
        <time>2022-05-19T08:59:19Z</time>
      </trkpt>
      <trkpt lat="43.61067" lon="3.40118">
        <ele>130.8</ele>
        <time>2022-05-19T08:59:24Z</time>
      </trkpt>
      <trkpt lat="43.61083" lon="3.40089">
        <ele>131.4</ele>
        <time>2022-05-19T08:59:31Z</time>
      </trkpt>
      <trkpt lat="43.61095" lon="3.4008">
        <ele>131.6</ele>
        <time>2022-05-19T08:59:35Z</time>
      </trkpt>
      <trkpt lat="43.61125" lon="3.40057">
        <ele>131.4</ele>
        <time>2022-05-19T08:59:44Z</time>
      </trkpt>
      <trkpt lat="43.61139" lon="3.4005">
        <ele>130.8</ele>
        <time>2022-05-19T08:59:50Z</time>
      </trkpt>
      <trkpt lat="43.61154" lon="3.40039">
        <ele>130.2</ele>
        <time>2022-05-19T08:59:56Z</time>
      </trkpt>
      <trkpt lat="43.61173" lon="3.40027">
        <ele>129.8</ele>
        <time>2022-05-19T09:00:03Z</time>
      </trkpt>
      <trkpt lat="43.61191" lon="3.40017">
        <ele>129.8</ele>
        <time>2022-05-19T09:00:09Z</time>
      </trkpt>
      <trkpt lat="43.61209" lon="3.40005">
        <ele>129.8</ele>
        <time>2022-05-19T09:00:14Z</time>
      </trkpt>
      <trkpt lat="43.61216" lon="3.40001">
        <ele>129.8</ele>
        <time>2022-05-19T09:00:16Z</time>
      </trkpt>
      <trkpt lat="43.61232" lon="3.39989">
        <ele>129.8</ele>
        <time>2022-05-19T09:00:21Z</time>
      </trkpt>
      <trkpt lat="43.61235" lon="3.39982">
        <ele>129.8</ele>
        <time>2022-05-19T09:00:23Z</time>
      </trkpt>
      <trkpt lat="43.61233" lon="3.39975">
        <ele>129.8</ele>
        <time>2022-05-19T09:00:25Z</time>
      </trkpt>
      <trkpt lat="43.6123" lon="3.39957">
        <ele>130</ele>
        <time>2022-05-19T09:00:29Z</time>
      </trkpt>
      <trkpt lat="43.61231" lon="3.39953">
        <ele>130</ele>
        <time>2022-05-19T09:00:30Z</time>
      </trkpt>
      <trkpt lat="43.61241" lon="3.39937">
        <ele>130</ele>
        <time>2022-05-19T09:00:34Z</time>
      </trkpt>
      <trkpt lat="43.6126" lon="3.39923">
        <ele>130.4</ele>
        <time>2022-05-19T09:00:40Z</time>
      </trkpt>
      <trkpt lat="43.61282" lon="3.39908">
        <ele>130.8</ele>
        <time>2022-05-19T09:00:47Z</time>
      </trkpt>
      <trkpt lat="43.61285" lon="3.39905">
        <ele>130.8</ele>
        <time>2022-05-19T09:00:48Z</time>
      </trkpt>
      <trkpt lat="43.61303" lon="3.39893">
        <ele>131</ele>
        <time>2022-05-19T09:00:53Z</time>
      </trkpt>
      <trkpt lat="43.61328" lon="3.39876">
        <ele>131</ele>
        <time>2022-05-19T09:01:00Z</time>
      </trkpt>
      <trkpt lat="43.61349" lon="3.39864">
        <ele>131.6</ele>
        <time>2022-05-19T09:01:06Z</time>
      </trkpt>
      <trkpt lat="43.61351" lon="3.39862">
        <ele>132</ele>
        <time>2022-05-19T09:01:08Z</time>
      </trkpt>
      <trkpt lat="43.61359" lon="3.39856">
        <ele>132</ele>
        <time>2022-05-19T09:01:11Z</time>
      </trkpt>
      <trkpt lat="43.61368" lon="3.39849">
        <ele>132.4</ele>
        <time>2022-05-19T09:01:16Z</time>
      </trkpt>
      <trkpt lat="43.61379" lon="3.3984">
        <ele>133</ele>
        <time>2022-05-19T09:01:22Z</time>
      </trkpt>
      <trkpt lat="43.61382" lon="3.39836">
        <ele>133.2</ele>
        <time>2022-05-19T09:01:24Z</time>
      </trkpt>
      <trkpt lat="43.61399" lon="3.39827">
        <ele>133.8</ele>
        <time>2022-05-19T09:01:30Z</time>
      </trkpt>
      <trkpt lat="43.6141" lon="3.39823">
        <ele>134</ele>
        <time>2022-05-19T09:01:33Z</time>
      </trkpt>
      <trkpt lat="43.61418" lon="3.39819">
        <ele>134.2</ele>
        <time>2022-05-19T09:01:36Z</time>
      </trkpt>
      <trkpt lat="43.61442" lon="3.39807">
        <ele>134.8</ele>
        <time>2022-05-19T09:01:43Z</time>
      </trkpt>
      <trkpt lat="43.61451" lon="3.39801">
        <ele>135.2</ele>
        <time>2022-05-19T09:01:46Z</time>
      </trkpt>
      <trkpt lat="43.61458" lon="3.398">
        <ele>135.4</ele>
        <time>2022-05-19T09:01:50Z</time>
      </trkpt>
      <trkpt lat="43.61467" lon="3.39803">
        <ele>135.6</ele>
        <time>2022-05-19T09:01:55Z</time>
      </trkpt>
      <trkpt lat="43.61468" lon="3.39804">
        <ele>135.6</ele>
        <time>2022-05-19T09:01:56Z</time>
      </trkpt>
      <trkpt lat="43.61471" lon="3.39807">
        <ele>135.8</ele>
        <time>2022-05-19T09:01:58Z</time>
      </trkpt>
      <trkpt lat="43.61478" lon="3.39813">
        <ele>135.8</ele>
        <time>2022-05-19T09:02:01Z</time>
      </trkpt>
      <trkpt lat="43.6148" lon="3.39813">
        <ele>136</ele>
        <time>2022-05-19T09:02:03Z</time>
      </trkpt>
      <trkpt lat="43.61499" lon="3.39824">
        <ele>135.8</ele>
        <time>2022-05-19T09:02:11Z</time>
      </trkpt>
      <trkpt lat="43.61501" lon="3.39825">
        <ele>135.8</ele>
        <time>2022-05-19T09:02:12Z</time>
      </trkpt>
      <trkpt lat="43.61506" lon="3.39834">
        <ele>135.6</ele>
        <time>2022-05-19T09:02:16Z</time>
      </trkpt>
      <trkpt lat="43.61505" lon="3.39837">
        <ele>135.6</ele>
        <time>2022-05-19T09:02:17Z</time>
      </trkpt>
      <trkpt lat="43.61507" lon="3.39844">
        <ele>135.4</ele>
        <time>2022-05-19T09:02:19Z</time>
      </trkpt>
      <trkpt lat="43.61519" lon="3.39861">
        <ele>135.2</ele>
        <time>2022-05-19T09:02:23Z</time>
      </trkpt>
      <trkpt lat="43.61538" lon="3.39892">
        <ele>134.6</ele>
        <time>2022-05-19T09:02:30Z</time>
      </trkpt>
      <trkpt lat="43.61549" lon="3.39911">
        <ele>134</ele>
        <time>2022-05-19T09:02:35Z</time>
      </trkpt>
      <trkpt lat="43.6155" lon="3.39915">
        <ele>134</ele>
        <time>2022-05-19T09:02:36Z</time>
      </trkpt>
      <trkpt lat="43.61558" lon="3.39932">
        <ele>133.6</ele>
        <time>2022-05-19T09:02:41Z</time>
      </trkpt>
      <trkpt lat="43.6157" lon="3.39956">
        <ele>133.8</ele>
        <time>2022-05-19T09:02:46Z</time>
      </trkpt>
      <trkpt lat="43.61595" lon="3.39999">
        <ele>133</ele>
        <time>2022-05-19T09:02:55Z</time>
      </trkpt>
      <trkpt lat="43.61606" lon="3.40018">
        <ele>132.6</ele>
        <time>2022-05-19T09:03:00Z</time>
      </trkpt>
      <trkpt lat="43.61615" lon="3.4004">
        <ele>132.4</ele>
        <time>2022-05-19T09:03:05Z</time>
      </trkpt>
      <trkpt lat="43.61621" lon="3.40064">
        <ele>133.2</ele>
        <time>2022-05-19T09:03:11Z</time>
      </trkpt>
      <trkpt lat="43.6163" lon="3.40096">
        <ele>133.6</ele>
        <time>2022-05-19T09:03:17Z</time>
      </trkpt>
      <trkpt lat="43.61632" lon="3.40108">
        <ele>133.6</ele>
        <time>2022-05-19T09:03:19Z</time>
      </trkpt>
      <trkpt lat="43.6164" lon="3.4013">
        <ele>133.8</ele>
        <time>2022-05-19T09:03:23Z</time>
      </trkpt>
      <trkpt lat="43.61654" lon="3.40162">
        <ele>133.8</ele>
        <time>2022-05-19T09:03:29Z</time>
      </trkpt>
      <trkpt lat="43.61656" lon="3.40168">
        <ele>133.8</ele>
        <time>2022-05-19T09:03:30Z</time>
      </trkpt>
      <trkpt lat="43.61673" lon="3.40209">
        <ele>133.4</ele>
        <time>2022-05-19T09:03:38Z</time>
      </trkpt>
      <trkpt lat="43.61698" lon="3.40261">
        <ele>133.2</ele>
        <time>2022-05-19T09:03:49Z</time>
      </trkpt>
      <trkpt lat="43.61712" lon="3.4029">
        <ele>133.8</ele>
        <time>2022-05-19T09:03:55Z</time>
      </trkpt>
      <trkpt lat="43.61715" lon="3.403">
        <ele>134</ele>
        <time>2022-05-19T09:03:57Z</time>
      </trkpt>
      <trkpt lat="43.61728" lon="3.40332">
        <ele>134.8</ele>
        <time>2022-05-19T09:04:04Z</time>
      </trkpt>
      <trkpt lat="43.6173" lon="3.40351">
        <ele>135</ele>
        <time>2022-05-19T09:04:08Z</time>
      </trkpt>
      <trkpt lat="43.61729" lon="3.40362">
        <ele>135.2</ele>
        <time>2022-05-19T09:04:10Z</time>
      </trkpt>
      <trkpt lat="43.61729" lon="3.40378">
        <ele>135.8</ele>
        <time>2022-05-19T09:04:15Z</time>
      </trkpt>
      <trkpt lat="43.6173" lon="3.40383">
        <ele>136.2</ele>
        <time>2022-05-19T09:04:17Z</time>
      </trkpt>
      <trkpt lat="43.61733" lon="3.40385">
        <ele>136.4</ele>
        <time>2022-05-19T09:04:19Z</time>
      </trkpt>
      <trkpt lat="43.61738" lon="3.40377">
        <ele>137.4</ele>
        <time>2022-05-19T09:04:22Z</time>
      </trkpt>
      <trkpt lat="43.61739" lon="3.40373">
        <ele>137.8</ele>
        <time>2022-05-19T09:04:23Z</time>
      </trkpt>
      <trkpt lat="43.6175" lon="3.40356">
        <ele>138.2</ele>
        <time>2022-05-19T09:04:28Z</time>
      </trkpt>
      <trkpt lat="43.61755" lon="3.40349">
        <ele>138.4</ele>
        <time>2022-05-19T09:04:30Z</time>
      </trkpt>
      <trkpt lat="43.61767" lon="3.40333">
        <ele>138.6</ele>
        <time>2022-05-19T09:04:35Z</time>
      </trkpt>
      <trkpt lat="43.61791" lon="3.40301">
        <ele>139</ele>
        <time>2022-05-19T09:04:44Z</time>
      </trkpt>
      <trkpt lat="43.61804" lon="3.4028">
        <ele>139.4</ele>
        <time>2022-05-19T09:04:50Z</time>
      </trkpt>
      <trkpt lat="43.61812" lon="3.40266">
        <ele>139.8</ele>
        <time>2022-05-19T09:04:54Z</time>
      </trkpt>
      <trkpt lat="43.61825" lon="3.40234">
        <ele>140.4</ele>
        <time>2022-05-19T09:05:01Z</time>
      </trkpt>
      <trkpt lat="43.61829" lon="3.40223">
        <ele>140.4</ele>
        <time>2022-05-19T09:05:03Z</time>
      </trkpt>
      <trkpt lat="43.61838" lon="3.40198">
        <ele>140.4</ele>
        <time>2022-05-19T09:05:08Z</time>
      </trkpt>
      <trkpt lat="43.61846" lon="3.40152">
        <ele>140.4</ele>
        <time>2022-05-19T09:05:16Z</time>
      </trkpt>
      <trkpt lat="43.61856" lon="3.40093">
        <ele>140.6</ele>
        <time>2022-05-19T09:05:25Z</time>
      </trkpt>
      <trkpt lat="43.61858" lon="3.4008">
        <ele>140.6</ele>
        <time>2022-05-19T09:05:27Z</time>
      </trkpt>
      <trkpt lat="43.61863" lon="3.40063">
        <ele>140.8</ele>
        <time>2022-05-19T09:05:30Z</time>
      </trkpt>
      <trkpt lat="43.61866" lon="3.4005">
        <ele>140.8</ele>
        <time>2022-05-19T09:05:32Z</time>
      </trkpt>
      <trkpt lat="43.61879" lon="3.39992">
        <ele>141.2</ele>
        <time>2022-05-19T09:05:41Z</time>
      </trkpt>
      <trkpt lat="43.61884" lon="3.39974">
        <ele>141.4</ele>
        <time>2022-05-19T09:05:44Z</time>
      </trkpt>
      <trkpt lat="43.61896" lon="3.39932">
        <ele>141.8</ele>
        <time>2022-05-19T09:05:52Z</time>
      </trkpt>
      <trkpt lat="43.61909" lon="3.39886">
        <ele>142.2</ele>
        <time>2022-05-19T09:06:00Z</time>
      </trkpt>
      <trkpt lat="43.61914" lon="3.39843">
        <ele>142.8</ele>
        <time>2022-05-19T09:06:07Z</time>
      </trkpt>
      <trkpt lat="43.61921" lon="3.39804">
        <ele>143.4</ele>
        <time>2022-05-19T09:06:14Z</time>
      </trkpt>
      <trkpt lat="43.61928" lon="3.3978">
        <ele>144</ele>
        <time>2022-05-19T09:06:19Z</time>
      </trkpt>
      <trkpt lat="43.61935" lon="3.39757">
        <ele>144.8</ele>
        <time>2022-05-19T09:06:24Z</time>
      </trkpt>
      <trkpt lat="43.61938" lon="3.39749">
        <ele>145.2</ele>
        <time>2022-05-19T09:06:26Z</time>
      </trkpt>
      <trkpt lat="43.61941" lon="3.39742">
        <ele>145.6</ele>
        <time>2022-05-19T09:06:28Z</time>
      </trkpt>
      <trkpt lat="43.61943" lon="3.39741">
        <ele>145.6</ele>
        <time>2022-05-19T09:06:29Z</time>
      </trkpt>
      <trkpt lat="43.61955" lon="3.39743">
        <ele>146.2</ele>
        <time>2022-05-19T09:06:33Z</time>
      </trkpt>
      <trkpt lat="43.61957" lon="3.39744">
        <ele>146.2</ele>
        <time>2022-05-19T09:06:34Z</time>
      </trkpt>
      <trkpt lat="43.6197" lon="3.3975">
        <ele>147.2</ele>
        <time>2022-05-19T09:06:39Z</time>
      </trkpt>
      <trkpt lat="43.61978" lon="3.39752">
        <ele>147.4</ele>
        <time>2022-05-19T09:06:42Z</time>
      </trkpt>
      <trkpt lat="43.61996" lon="3.39749">
        <ele>148.2</ele>
        <time>2022-05-19T09:06:49Z</time>
      </trkpt>
      <trkpt lat="43.61999" lon="3.39749">
        <ele>148.4</ele>
        <time>2022-05-19T09:06:50Z</time>
      </trkpt>
      <trkpt lat="43.62012" lon="3.39747">
        <ele>149.4</ele>
        <time>2022-05-19T09:06:56Z</time>
      </trkpt>
      <trkpt lat="43.62015" lon="3.39746">
        <ele>149.4</ele>
        <time>2022-05-19T09:06:57Z</time>
      </trkpt>
      <trkpt lat="43.6203" lon="3.39745">
        <ele>150.4</ele>
        <time>2022-05-19T09:07:04Z</time>
      </trkpt>
      <trkpt lat="43.62033" lon="3.39744">
        <ele>150.6</ele>
        <time>2022-05-19T09:07:05Z</time>
      </trkpt>
      <trkpt lat="43.62048" lon="3.39743">
        <ele>151.6</ele>
        <time>2022-05-19T09:07:12Z</time>
      </trkpt>
      <trkpt lat="43.62055" lon="3.39742">
        <ele>152</ele>
        <time>2022-05-19T09:07:16Z</time>
      </trkpt>
      <trkpt lat="43.62062" lon="3.39742">
        <ele>152.6</ele>
        <time>2022-05-19T09:07:20Z</time>
      </trkpt>
      <trkpt lat="43.62071" lon="3.39739">
        <ele>153.6</ele>
        <time>2022-05-19T09:07:25Z</time>
      </trkpt>
      <trkpt lat="43.62073" lon="3.39738">
        <ele>153.8</ele>
        <time>2022-05-19T09:07:26Z</time>
      </trkpt>
      <trkpt lat="43.62081" lon="3.39735">
        <ele>154.6</ele>
        <time>2022-05-19T09:07:31Z</time>
      </trkpt>
      <trkpt lat="43.62086" lon="3.39734">
        <ele>155</ele>
        <time>2022-05-19T09:07:34Z</time>
      </trkpt>
      <trkpt lat="43.62091" lon="3.39732">
        <ele>155.6</ele>
        <time>2022-05-19T09:07:38Z</time>
      </trkpt>
      <trkpt lat="43.62094" lon="3.39732">
        <ele>156</ele>
        <time>2022-05-19T09:07:41Z</time>
      </trkpt>
      <trkpt lat="43.621" lon="3.39734">
        <ele>157.2</ele>
        <time>2022-05-19T09:07:46Z</time>
      </trkpt>
      <trkpt lat="43.62101" lon="3.39735">
        <ele>157.4</ele>
        <time>2022-05-19T09:07:47Z</time>
      </trkpt>
      <trkpt lat="43.62106" lon="3.39738">
        <ele>158.2</ele>
        <time>2022-05-19T09:07:51Z</time>
      </trkpt>
      <trkpt lat="43.62107" lon="3.39739">
        <ele>158.6</ele>
        <time>2022-05-19T09:07:52Z</time>
      </trkpt>
      <trkpt lat="43.62109" lon="3.39742">
        <ele>158.8</ele>
        <time>2022-05-19T09:07:54Z</time>
      </trkpt>
      <trkpt lat="43.62111" lon="3.39745">
        <ele>159</ele>
        <time>2022-05-19T09:07:56Z</time>
      </trkpt>
      <trkpt lat="43.62117" lon="3.39754">
        <ele>159.6</ele>
        <time>2022-05-19T09:08:01Z</time>
      </trkpt>
      <trkpt lat="43.62119" lon="3.39757">
        <ele>160</ele>
        <time>2022-05-19T09:08:03Z</time>
      </trkpt>
      <trkpt lat="43.62124" lon="3.39765">
        <ele>160.8</ele>
        <time>2022-05-19T09:08:08Z</time>
      </trkpt>
      <trkpt lat="43.62126" lon="3.39769">
        <ele>161.4</ele>
        <time>2022-05-19T09:08:11Z</time>
      </trkpt>
      <trkpt lat="43.62127" lon="3.39771">
        <ele>161.8</ele>
        <time>2022-05-19T09:08:12Z</time>
      </trkpt>
      <trkpt lat="43.62131" lon="3.39776">
        <ele>162.4</ele>
        <time>2022-05-19T09:08:16Z</time>
      </trkpt>
      <trkpt lat="43.62132" lon="3.39779">
        <ele>163</ele>
        <time>2022-05-19T09:08:18Z</time>
      </trkpt>
      <trkpt lat="43.62133" lon="3.39781">
        <ele>163.2</ele>
        <time>2022-05-19T09:08:19Z</time>
      </trkpt>
      <trkpt lat="43.62138" lon="3.39802">
        <ele>163.6</ele>
        <time>2022-05-19T09:08:26Z</time>
      </trkpt>
      <trkpt lat="43.62141" lon="3.39832">
        <ele>163.6</ele>
        <time>2022-05-19T09:08:31Z</time>
      </trkpt>
      <trkpt lat="43.6214" lon="3.39879">
        <ele>162.8</ele>
        <time>2022-05-19T09:08:36Z</time>
      </trkpt>
      <trkpt lat="43.62138" lon="3.39899">
        <ele>162.4</ele>
        <time>2022-05-19T09:08:38Z</time>
      </trkpt>
      <trkpt lat="43.62136" lon="3.39906">
        <ele>161.8</ele>
        <time>2022-05-19T09:08:39Z</time>
      </trkpt>
      <trkpt lat="43.62133" lon="3.39913">
        <ele>161.2</ele>
        <time>2022-05-19T09:08:40Z</time>
      </trkpt>
      <trkpt lat="43.62125" lon="3.39925">
        <ele>160</ele>
        <time>2022-05-19T09:08:42Z</time>
      </trkpt>
      <trkpt lat="43.62119" lon="3.39934">
        <ele>159</ele>
        <time>2022-05-19T09:08:44Z</time>
      </trkpt>
      <trkpt lat="43.62107" lon="3.39949">
        <ele>158.6</ele>
        <time>2022-05-19T09:08:49Z</time>
      </trkpt>
      <trkpt lat="43.62096" lon="3.39967">
        <ele>158.8</ele>
        <time>2022-05-19T09:08:54Z</time>
      </trkpt>
      <trkpt lat="43.62085" lon="3.39985">
        <ele>160</ele>
        <time>2022-05-19T09:09:01Z</time>
      </trkpt>
      <trkpt lat="43.62072" lon="3.40001">
        <ele>160.8</ele>
        <time>2022-05-19T09:09:09Z</time>
      </trkpt>
      <trkpt lat="43.62059" lon="3.40017">
        <ele>160.8</ele>
        <time>2022-05-19T09:09:14Z</time>
      </trkpt>
      <trkpt lat="43.6205" lon="3.40031">
        <ele>160.8</ele>
        <time>2022-05-19T09:09:19Z</time>
      </trkpt>
      <trkpt lat="43.62042" lon="3.40046">
        <ele>161</ele>
        <time>2022-05-19T09:09:25Z</time>
      </trkpt>
      <trkpt lat="43.6204" lon="3.4005">
        <ele>161</ele>
        <time>2022-05-19T09:09:27Z</time>
      </trkpt>
      <trkpt lat="43.62034" lon="3.40059">
        <ele>162</ele>
        <time>2022-05-19T09:09:32Z</time>
      </trkpt>
      <trkpt lat="43.62033" lon="3.40061">
        <ele>162.2</ele>
        <time>2022-05-19T09:09:33Z</time>
      </trkpt>
      <trkpt lat="43.62027" lon="3.40073">
        <ele>163.4</ele>
        <time>2022-05-19T09:09:38Z</time>
      </trkpt>
      <trkpt lat="43.62017" lon="3.40087">
        <ele>164.4</ele>
        <time>2022-05-19T09:09:45Z</time>
      </trkpt>
      <trkpt lat="43.62016" lon="3.40088">
        <ele>164.6</ele>
        <time>2022-05-19T09:09:46Z</time>
      </trkpt>
      <trkpt lat="43.6201" lon="3.40098">
        <ele>165.6</ele>
        <time>2022-05-19T09:09:51Z</time>
      </trkpt>
      <trkpt lat="43.62008" lon="3.40103">
        <ele>166.2</ele>
        <time>2022-05-19T09:09:53Z</time>
      </trkpt>
      <trkpt lat="43.62004" lon="3.40111">
        <ele>167</ele>
        <time>2022-05-19T09:09:57Z</time>
      </trkpt>
      <trkpt lat="43.62003" lon="3.40115">
        <ele>167.4</ele>
        <time>2022-05-19T09:09:59Z</time>
      </trkpt>
      <trkpt lat="43.61999" lon="3.40123">
        <ele>168.2</ele>
        <time>2022-05-19T09:10:03Z</time>
      </trkpt>
      <trkpt lat="43.61997" lon="3.40127">
        <ele>168.4</ele>
        <time>2022-05-19T09:10:05Z</time>
      </trkpt>
      <trkpt lat="43.6199" lon="3.40138">
        <ele>169.2</ele>
        <time>2022-05-19T09:10:10Z</time>
      </trkpt>
      <trkpt lat="43.61988" lon="3.40142">
        <ele>169.6</ele>
        <time>2022-05-19T09:10:12Z</time>
      </trkpt>
      <trkpt lat="43.61981" lon="3.40153">
        <ele>170.4</ele>
        <time>2022-05-19T09:10:17Z</time>
      </trkpt>
      <trkpt lat="43.61979" lon="3.40157">
        <ele>170.6</ele>
        <time>2022-05-19T09:10:19Z</time>
      </trkpt>
      <trkpt lat="43.61973" lon="3.40171">
        <ele>171.6</ele>
        <time>2022-05-19T09:10:25Z</time>
      </trkpt>
      <trkpt lat="43.61972" lon="3.40173">
        <ele>171.6</ele>
        <time>2022-05-19T09:10:26Z</time>
      </trkpt>
      <trkpt lat="43.61967" lon="3.40185">
        <ele>172.6</ele>
        <time>2022-05-19T09:10:33Z</time>
      </trkpt>
      <trkpt lat="43.61967" lon="3.40186">
        <ele>172.6</ele>
        <time>2022-05-19T09:10:34Z</time>
      </trkpt>
      <trkpt lat="43.6196" lon="3.40196">
        <ele>173.4</ele>
        <time>2022-05-19T09:10:39Z</time>
      </trkpt>
      <trkpt lat="43.61959" lon="3.40198">
        <ele>173.8</ele>
        <time>2022-05-19T09:10:40Z</time>
      </trkpt>
      <trkpt lat="43.61953" lon="3.4021">
        <ele>175</ele>
        <time>2022-05-19T09:10:46Z</time>
      </trkpt>
      <trkpt lat="43.61953" lon="3.40212">
        <ele>175.2</ele>
        <time>2022-05-19T09:10:47Z</time>
      </trkpt>
      <trkpt lat="43.61951" lon="3.40221">
        <ele>176.2</ele>
        <time>2022-05-19T09:10:51Z</time>
      </trkpt>
      <trkpt lat="43.61951" lon="3.40224">
        <ele>176.6</ele>
        <time>2022-05-19T09:10:53Z</time>
      </trkpt>
      <trkpt lat="43.61951" lon="3.40228">
        <ele>177</ele>
        <time>2022-05-19T09:10:55Z</time>
      </trkpt>
      <trkpt lat="43.61951" lon="3.4023">
        <ele>177.2</ele>
        <time>2022-05-19T09:10:56Z</time>
      </trkpt>
      <trkpt lat="43.6195" lon="3.40236">
        <ele>177.6</ele>
        <time>2022-05-19T09:10:59Z</time>
      </trkpt>
      <trkpt lat="43.61949" lon="3.40242">
        <ele>178.4</ele>
        <time>2022-05-19T09:11:02Z</time>
      </trkpt>
      <trkpt lat="43.61947" lon="3.40255">
        <ele>179.4</ele>
        <time>2022-05-19T09:11:08Z</time>
      </trkpt>
      <trkpt lat="43.61946" lon="3.40256">
        <ele>179.6</ele>
        <time>2022-05-19T09:11:09Z</time>
      </trkpt>
      <trkpt lat="43.61946" lon="3.40257">
        <ele>180.2</ele>
        <time>2022-05-19T09:11:15Z</time>
      </trkpt>
      <trkpt lat="43.61946" lon="3.40257">
        <ele>180.4</ele>
        <time>2022-05-19T09:11:38Z</time>
      </trkpt>
      <trkpt lat="43.61946" lon="3.40257">
        <ele>180.4</ele>
        <time>2022-05-19T09:11:52Z</time>
      </trkpt>
      <trkpt lat="43.61947" lon="3.40268">
        <ele>180.4</ele>
        <time>2022-05-19T09:11:55Z</time>
      </trkpt>
      <trkpt lat="43.6195" lon="3.4029">
        <ele>180.8</ele>
        <time>2022-05-19T09:12:02Z</time>
      </trkpt>
      <trkpt lat="43.61951" lon="3.40311">
        <ele>181</ele>
        <time>2022-05-19T09:12:09Z</time>
      </trkpt>
      <trkpt lat="43.61952" lon="3.40324">
        <ele>181.8</ele>
        <time>2022-05-19T09:12:13Z</time>
      </trkpt>
      <trkpt lat="43.61949" lon="3.40339">
        <ele>182.2</ele>
        <time>2022-05-19T09:12:18Z</time>
      </trkpt>
      <trkpt lat="43.61946" lon="3.40366">
        <ele>182.8</ele>
        <time>2022-05-19T09:12:26Z</time>
      </trkpt>
      <trkpt lat="43.61943" lon="3.40386">
        <ele>183.2</ele>
        <time>2022-05-19T09:12:32Z</time>
      </trkpt>
      <trkpt lat="43.6194" lon="3.40407">
        <ele>183.8</ele>
        <time>2022-05-19T09:12:38Z</time>
      </trkpt>
      <trkpt lat="43.61941" lon="3.40418">
        <ele>183.8</ele>
        <time>2022-05-19T09:12:41Z</time>
      </trkpt>
      <trkpt lat="43.61943" lon="3.40439">
        <ele>184</ele>
        <time>2022-05-19T09:12:46Z</time>
      </trkpt>
      <trkpt lat="43.61947" lon="3.40467">
        <ele>184.2</ele>
        <time>2022-05-19T09:12:53Z</time>
      </trkpt>
      <trkpt lat="43.61954" lon="3.40501">
        <ele>184</ele>
        <time>2022-05-19T09:13:01Z</time>
      </trkpt>
      <trkpt lat="43.61957" lon="3.40523">
        <ele>184</ele>
        <time>2022-05-19T09:13:06Z</time>
      </trkpt>
      <trkpt lat="43.61959" lon="3.40525">
        <ele>184</ele>
        <time>2022-05-19T09:13:07Z</time>
      </trkpt>
      <trkpt lat="43.6197" lon="3.40535">
        <ele>183.8</ele>
        <time>2022-05-19T09:13:13Z</time>
      </trkpt>
      <trkpt lat="43.61985" lon="3.40545">
        <ele>183.4</ele>
        <time>2022-05-19T09:13:20Z</time>
      </trkpt>
      <trkpt lat="43.61993" lon="3.40549">
        <ele>182.8</ele>
        <time>2022-05-19T09:13:23Z</time>
      </trkpt>
      <trkpt lat="43.61999" lon="3.40552">
        <ele>182.4</ele>
        <time>2022-05-19T09:13:25Z</time>
      </trkpt>
      <trkpt lat="43.62004" lon="3.40554">
        <ele>181.6</ele>
        <time>2022-05-19T09:13:27Z</time>
      </trkpt>
      <trkpt lat="43.6201" lon="3.40554">
        <ele>180.6</ele>
        <time>2022-05-19T09:13:29Z</time>
      </trkpt>
      <trkpt lat="43.62018" lon="3.40552">
        <ele>180.2</ele>
        <time>2022-05-19T09:13:31Z</time>
      </trkpt>
      <trkpt lat="43.62027" lon="3.40551">
        <ele>179.2</ele>
        <time>2022-05-19T09:13:33Z</time>
      </trkpt>
      <trkpt lat="43.62042" lon="3.40547">
        <ele>177.8</ele>
        <time>2022-05-19T09:13:36Z</time>
      </trkpt>
      <trkpt lat="43.62047" lon="3.40545">
        <ele>177</ele>
        <time>2022-05-19T09:13:37Z</time>
      </trkpt>
      <trkpt lat="43.62053" lon="3.40545">
        <ele>176.8</ele>
        <time>2022-05-19T09:13:38Z</time>
      </trkpt>
      <trkpt lat="43.62059" lon="3.40545">
        <ele>175.4</ele>
        <time>2022-05-19T09:13:39Z</time>
      </trkpt>
      <trkpt lat="43.62064" lon="3.40546">
        <ele>175</ele>
        <time>2022-05-19T09:13:40Z</time>
      </trkpt>
      <trkpt lat="43.62069" lon="3.40548">
        <ele>174.2</ele>
        <time>2022-05-19T09:13:41Z</time>
      </trkpt>
      <trkpt lat="43.62075" lon="3.40551">
        <ele>173.2</ele>
        <time>2022-05-19T09:13:42Z</time>
      </trkpt>
      <trkpt lat="43.62082" lon="3.40557">
        <ele>172.8</ele>
        <time>2022-05-19T09:13:43Z</time>
      </trkpt>
      <trkpt lat="43.62093" lon="3.40567">
        <ele>172</ele>
        <time>2022-05-19T09:13:45Z</time>
      </trkpt>
      <trkpt lat="43.62102" lon="3.40576">
        <ele>170.8</ele>
        <time>2022-05-19T09:13:47Z</time>
      </trkpt>
      <trkpt lat="43.62111" lon="3.40589">
        <ele>169.8</ele>
        <time>2022-05-19T09:13:49Z</time>
      </trkpt>
      <trkpt lat="43.62115" lon="3.40596">
        <ele>169</ele>
        <time>2022-05-19T09:13:50Z</time>
      </trkpt>
      <trkpt lat="43.62122" lon="3.40608">
        <ele>167.4</ele>
        <time>2022-05-19T09:13:52Z</time>
      </trkpt>
      <trkpt lat="43.62133" lon="3.40632">
        <ele>166.4</ele>
        <time>2022-05-19T09:13:55Z</time>
      </trkpt>
      <trkpt lat="43.62135" lon="3.40639">
        <ele>166</ele>
        <time>2022-05-19T09:13:56Z</time>
      </trkpt>
      <trkpt lat="43.62144" lon="3.40664">
        <ele>165</ele>
        <time>2022-05-19T09:13:59Z</time>
      </trkpt>
      <trkpt lat="43.62151" lon="3.40689">
        <ele>164.4</ele>
        <time>2022-05-19T09:14:02Z</time>
      </trkpt>
      <trkpt lat="43.62157" lon="3.40716">
        <ele>163.8</ele>
        <time>2022-05-19T09:14:05Z</time>
      </trkpt>
      <trkpt lat="43.62164" lon="3.40755">
        <ele>162.6</ele>
        <time>2022-05-19T09:14:09Z</time>
      </trkpt>
      <trkpt lat="43.62166" lon="3.40763">
        <ele>162.4</ele>
        <time>2022-05-19T09:14:10Z</time>
      </trkpt>
      <trkpt lat="43.62169" lon="3.4078">
        <ele>162</ele>
        <time>2022-05-19T09:14:12Z</time>
      </trkpt>
      <trkpt lat="43.62173" lon="3.408">
        <ele>161.6</ele>
        <time>2022-05-19T09:14:14Z</time>
      </trkpt>
      <trkpt lat="43.62174" lon="3.40808">
        <ele>161.6</ele>
        <time>2022-05-19T09:14:15Z</time>
      </trkpt>
      <trkpt lat="43.62181" lon="3.40839">
        <ele>160.4</ele>
        <time>2022-05-19T09:14:18Z</time>
      </trkpt>
      <trkpt lat="43.62189" lon="3.40873">
        <ele>159.6</ele>
        <time>2022-05-19T09:14:22Z</time>
      </trkpt>
      <trkpt lat="43.6219" lon="3.40883">
        <ele>159</ele>
        <time>2022-05-19T09:14:23Z</time>
      </trkpt>
      <trkpt lat="43.62192" lon="3.4089">
        <ele>158.8</ele>
        <time>2022-05-19T09:14:24Z</time>
      </trkpt>
      <trkpt lat="43.62197" lon="3.40903">
        <ele>158.2</ele>
        <time>2022-05-19T09:14:26Z</time>
      </trkpt>
      <trkpt lat="43.62201" lon="3.40911">
        <ele>157.4</ele>
        <time>2022-05-19T09:14:27Z</time>
      </trkpt>
      <trkpt lat="43.62217" lon="3.40936">
        <ele>156.2</ele>
        <time>2022-05-19T09:14:31Z</time>
      </trkpt>
      <trkpt lat="43.62221" lon="3.40943">
        <ele>156</ele>
        <time>2022-05-19T09:14:32Z</time>
      </trkpt>
      <trkpt lat="43.62243" lon="3.40977">
        <ele>155</ele>
        <time>2022-05-19T09:14:37Z</time>
      </trkpt>
      <trkpt lat="43.62255" lon="3.40999">
        <ele>154.2</ele>
        <time>2022-05-19T09:14:40Z</time>
      </trkpt>
      <trkpt lat="43.62262" lon="3.41014">
        <ele>153.8</ele>
        <time>2022-05-19T09:14:42Z</time>
      </trkpt>
      <trkpt lat="43.62275" lon="3.41047">
        <ele>152.4</ele>
        <time>2022-05-19T09:14:46Z</time>
      </trkpt>
      <trkpt lat="43.6228" lon="3.41063">
        <ele>152</ele>
        <time>2022-05-19T09:14:48Z</time>
      </trkpt>
      <trkpt lat="43.62289" lon="3.41091">
        <ele>151.4</ele>
        <time>2022-05-19T09:14:51Z</time>
      </trkpt>
      <trkpt lat="43.62296" lon="3.41118">
        <ele>150.8</ele>
        <time>2022-05-19T09:14:54Z</time>
      </trkpt>
      <trkpt lat="43.62297" lon="3.41127">
        <ele>150.4</ele>
        <time>2022-05-19T09:14:55Z</time>
      </trkpt>
      <trkpt lat="43.62297" lon="3.41139">
        <ele>150.2</ele>
        <time>2022-05-19T09:14:56Z</time>
      </trkpt>
      <trkpt lat="43.62297" lon="3.41165">
        <ele>149</ele>
        <time>2022-05-19T09:14:59Z</time>
      </trkpt>
      <trkpt lat="43.62296" lon="3.41174">
        <ele>148.6</ele>
        <time>2022-05-19T09:15:00Z</time>
      </trkpt>
      <trkpt lat="43.62295" lon="3.41183">
        <ele>147.8</ele>
        <time>2022-05-19T09:15:01Z</time>
      </trkpt>
      <trkpt lat="43.62294" lon="3.41203">
        <ele>146.6</ele>
        <time>2022-05-19T09:15:04Z</time>
      </trkpt>
      <trkpt lat="43.62294" lon="3.41215">
        <ele>145.4</ele>
        <time>2022-05-19T09:15:06Z</time>
      </trkpt>
      <trkpt lat="43.62295" lon="3.41225">
        <ele>144.8</ele>
        <time>2022-05-19T09:15:08Z</time>
      </trkpt>
      <trkpt lat="43.62295" lon="3.41237">
        <ele>144.2</ele>
        <time>2022-05-19T09:15:10Z</time>
      </trkpt>
      <trkpt lat="43.62295" lon="3.41251">
        <ele>143.8</ele>
        <time>2022-05-19T09:15:12Z</time>
      </trkpt>
      <trkpt lat="43.62295" lon="3.41262">
        <ele>143.2</ele>
        <time>2022-05-19T09:15:14Z</time>
      </trkpt>
      <trkpt lat="43.62294" lon="3.4129">
        <ele>142.6</ele>
        <time>2022-05-19T09:15:18Z</time>
      </trkpt>
      <trkpt lat="43.62295" lon="3.41316">
        <ele>142.4</ele>
        <time>2022-05-19T09:15:21Z</time>
      </trkpt>
      <trkpt lat="43.62296" lon="3.4133">
        <ele>142</ele>
        <time>2022-05-19T09:15:23Z</time>
      </trkpt>
      <trkpt lat="43.62301" lon="3.41369">
        <ele>141.8</ele>
        <time>2022-05-19T09:15:28Z</time>
      </trkpt>
      <trkpt lat="43.62307" lon="3.41409">
        <ele>141</ele>
        <time>2022-05-19T09:15:33Z</time>
      </trkpt>
      <trkpt lat="43.62309" lon="3.41424">
        <ele>140.8</ele>
        <time>2022-05-19T09:15:35Z</time>
      </trkpt>
      <trkpt lat="43.6231" lon="3.41446">
        <ele>140.4</ele>
        <time>2022-05-19T09:15:38Z</time>
      </trkpt>
      <trkpt lat="43.6231" lon="3.41464">
        <ele>140.2</ele>
        <time>2022-05-19T09:15:41Z</time>
      </trkpt>
      <trkpt lat="43.62311" lon="3.41473">
        <ele>139.8</ele>
        <time>2022-05-19T09:15:44Z</time>
      </trkpt>
      <trkpt lat="43.62311" lon="3.41475">
        <ele>139.8</ele>
        <time>2022-05-19T09:15:45Z</time>
      </trkpt>
      <trkpt lat="43.62311" lon="3.41478">
        <ele>139.4</ele>
        <time>2022-05-19T09:15:47Z</time>
      </trkpt>
      <trkpt lat="43.62314" lon="3.41488">
        <ele>138.8</ele>
        <time>2022-05-19T09:15:51Z</time>
      </trkpt>
      <trkpt lat="43.62326" lon="3.41505">
        <ele>138.2</ele>
        <time>2022-05-19T09:15:57Z</time>
      </trkpt>
      <trkpt lat="43.62336" lon="3.41519">
        <ele>137.8</ele>
        <time>2022-05-19T09:16:01Z</time>
      </trkpt>
      <trkpt lat="43.6234" lon="3.41521">
        <ele>137.6</ele>
        <time>2022-05-19T09:16:02Z</time>
      </trkpt>
      <trkpt lat="43.62348" lon="3.41524">
        <ele>137.2</ele>
        <time>2022-05-19T09:16:04Z</time>
      </trkpt>
      <trkpt lat="43.62363" lon="3.41527">
        <ele>136.8</ele>
        <time>2022-05-19T09:16:07Z</time>
      </trkpt>
      <trkpt lat="43.62368" lon="3.41528">
        <ele>136.4</ele>
        <time>2022-05-19T09:16:08Z</time>
      </trkpt>
      <trkpt lat="43.62377" lon="3.41535">
        <ele>136</ele>
        <time>2022-05-19T09:16:10Z</time>
      </trkpt>
      <trkpt lat="43.6238" lon="3.41541">
        <ele>135.8</ele>
        <time>2022-05-19T09:16:11Z</time>
      </trkpt>
      <trkpt lat="43.62385" lon="3.41555">
        <ele>135.6</ele>
        <time>2022-05-19T09:16:13Z</time>
      </trkpt>
      <trkpt lat="43.62391" lon="3.41569">
        <ele>135</ele>
        <time>2022-05-19T09:16:15Z</time>
      </trkpt>
      <trkpt lat="43.62399" lon="3.41582">
        <ele>134.8</ele>
        <time>2022-05-19T09:16:17Z</time>
      </trkpt>
      <trkpt lat="43.62403" lon="3.41588">
        <ele>134.8</ele>
        <time>2022-05-19T09:16:18Z</time>
      </trkpt>
      <trkpt lat="43.62412" lon="3.41601">
        <ele>134.2</ele>
        <time>2022-05-19T09:16:20Z</time>
      </trkpt>
      <trkpt lat="43.62416" lon="3.41616">
        <ele>133.8</ele>
        <time>2022-05-19T09:16:22Z</time>
      </trkpt>
      <trkpt lat="43.62416" lon="3.41622">
        <ele>133.6</ele>
        <time>2022-05-19T09:16:23Z</time>
      </trkpt>
      <trkpt lat="43.62416" lon="3.41634">
        <ele>133.2</ele>
        <time>2022-05-19T09:16:25Z</time>
      </trkpt>
      <trkpt lat="43.62416" lon="3.41639">
        <ele>133</ele>
        <time>2022-05-19T09:16:26Z</time>
      </trkpt>
      <trkpt lat="43.62413" lon="3.41653">
        <ele>132.8</ele>
        <time>2022-05-19T09:16:30Z</time>
      </trkpt>
      <trkpt lat="43.62401" lon="3.41669">
        <ele>133.2</ele>
        <time>2022-05-19T09:16:36Z</time>
      </trkpt>
      <trkpt lat="43.62393" lon="3.41674">
        <ele>134.2</ele>
        <time>2022-05-19T09:16:42Z</time>
      </trkpt>
      <trkpt lat="43.6239" lon="3.41675">
        <ele>134.4</ele>
        <time>2022-05-19T09:16:44Z</time>
      </trkpt>
      <trkpt lat="43.62382" lon="3.41671">
        <ele>134.6</ele>
        <time>2022-05-19T09:16:47Z</time>
      </trkpt>
      <trkpt lat="43.6238" lon="3.41671">
        <ele>134.6</ele>
        <time>2022-05-19T09:16:48Z</time>
      </trkpt>
      <trkpt lat="43.62378" lon="3.41672">
        <ele>134.8</ele>
        <time>2022-05-19T09:16:49Z</time>
      </trkpt>
      <trkpt lat="43.62376" lon="3.41675">
        <ele>135</ele>
        <time>2022-05-19T09:16:50Z</time>
      </trkpt>
      <trkpt lat="43.6238" lon="3.41685">
        <ele>135.4</ele>
        <time>2022-05-19T09:16:53Z</time>
      </trkpt>
      <trkpt lat="43.62392" lon="3.41704">
        <ele>135.8</ele>
        <time>2022-05-19T09:16:58Z</time>
      </trkpt>
      <trkpt lat="43.62403" lon="3.41723">
        <ele>135.8</ele>
        <time>2022-05-19T09:17:02Z</time>
      </trkpt>
      <trkpt lat="43.62409" lon="3.41733">
        <ele>135.6</ele>
        <time>2022-05-19T09:17:04Z</time>
      </trkpt>
      <trkpt lat="43.62425" lon="3.41763">
        <ele>135</ele>
        <time>2022-05-19T09:17:09Z</time>
      </trkpt>
      <trkpt lat="43.62445" lon="3.41813">
        <ele>133.8</ele>
        <time>2022-05-19T09:17:16Z</time>
      </trkpt>
      <trkpt lat="43.62448" lon="3.41821">
        <ele>133.8</ele>
        <time>2022-05-19T09:17:17Z</time>
      </trkpt>
      <trkpt lat="43.62457" lon="3.41865">
        <ele>133.2</ele>
        <time>2022-05-19T09:17:22Z</time>
      </trkpt>
      <trkpt lat="43.62458" lon="3.41873">
        <ele>132.8</ele>
        <time>2022-05-19T09:17:23Z</time>
      </trkpt>
      <trkpt lat="43.62458" lon="3.41881">
        <ele>132.6</ele>
        <time>2022-05-19T09:17:24Z</time>
      </trkpt>
      <trkpt lat="43.62465" lon="3.41933">
        <ele>131.4</ele>
        <time>2022-05-19T09:17:30Z</time>
      </trkpt>
      <trkpt lat="43.62469" lon="3.4197">
        <ele>130.2</ele>
        <time>2022-05-19T09:17:34Z</time>
      </trkpt>
      <trkpt lat="43.62471" lon="3.41988">
        <ele>129.8</ele>
        <time>2022-05-19T09:17:36Z</time>
      </trkpt>
      <trkpt lat="43.62474" lon="3.42006">
        <ele>129.2</ele>
        <time>2022-05-19T09:17:38Z</time>
      </trkpt>
      <trkpt lat="43.62476" lon="3.42015">
        <ele>128.6</ele>
        <time>2022-05-19T09:17:39Z</time>
      </trkpt>
      <trkpt lat="43.62483" lon="3.42041">
        <ele>128</ele>
        <time>2022-05-19T09:17:42Z</time>
      </trkpt>
      <trkpt lat="43.62501" lon="3.42085">
        <ele>126.8</ele>
        <time>2022-05-19T09:17:47Z</time>
      </trkpt>
      <trkpt lat="43.62505" lon="3.42094">
        <ele>126.4</ele>
        <time>2022-05-19T09:17:48Z</time>
      </trkpt>
      <trkpt lat="43.62513" lon="3.42111">
        <ele>125.8</ele>
        <time>2022-05-19T09:17:50Z</time>
      </trkpt>
      <trkpt lat="43.62528" lon="3.42147">
        <ele>124.6</ele>
        <time>2022-05-19T09:17:54Z</time>
      </trkpt>
      <trkpt lat="43.62532" lon="3.42156">
        <ele>124.4</ele>
        <time>2022-05-19T09:17:55Z</time>
      </trkpt>
      <trkpt lat="43.62543" lon="3.42183">
        <ele>123.4</ele>
        <time>2022-05-19T09:17:58Z</time>
      </trkpt>
      <trkpt lat="43.62561" lon="3.42232">
        <ele>122.2</ele>
        <time>2022-05-19T09:18:03Z</time>
      </trkpt>
      <trkpt lat="43.62566" lon="3.42264">
        <ele>121.6</ele>
        <time>2022-05-19T09:18:06Z</time>
      </trkpt>
      <trkpt lat="43.62569" lon="3.42285">
        <ele>121.2</ele>
        <time>2022-05-19T09:18:08Z</time>
      </trkpt>
      <trkpt lat="43.62569" lon="3.42338">
        <ele>120</ele>
        <time>2022-05-19T09:18:13Z</time>
      </trkpt>
      <trkpt lat="43.62569" lon="3.4236">
        <ele>119.4</ele>
        <time>2022-05-19T09:18:15Z</time>
      </trkpt>
      <trkpt lat="43.62569" lon="3.42378">
        <ele>119</ele>
        <time>2022-05-19T09:18:17Z</time>
      </trkpt>
      <trkpt lat="43.6257" lon="3.42415">
        <ele>118</ele>
        <time>2022-05-19T09:18:21Z</time>
      </trkpt>
      <trkpt lat="43.6257" lon="3.42466">
        <ele>116.8</ele>
        <time>2022-05-19T09:18:26Z</time>
      </trkpt>
      <trkpt lat="43.62572" lon="3.42502">
        <ele>115.6</ele>
        <time>2022-05-19T09:18:30Z</time>
      </trkpt>
      <trkpt lat="43.62572" lon="3.42509">
        <ele>115.6</ele>
        <time>2022-05-19T09:18:31Z</time>
      </trkpt>
      <trkpt lat="43.62573" lon="3.42518">
        <ele>115.2</ele>
        <time>2022-05-19T09:18:32Z</time>
      </trkpt>
      <trkpt lat="43.62573" lon="3.42529">
        <ele>114.6</ele>
        <time>2022-05-19T09:18:34Z</time>
      </trkpt>
      <trkpt lat="43.62573" lon="3.42536">
        <ele>114.2</ele>
        <time>2022-05-19T09:18:35Z</time>
      </trkpt>
      <trkpt lat="43.62576" lon="3.42566">
        <ele>113.4</ele>
        <time>2022-05-19T09:18:40Z</time>
      </trkpt>
      <trkpt lat="43.62578" lon="3.42571">
        <ele>113.4</ele>
        <time>2022-05-19T09:18:41Z</time>
      </trkpt>
      <trkpt lat="43.62586" lon="3.42573">
        <ele>113</ele>
        <time>2022-05-19T09:18:43Z</time>
      </trkpt>
      <trkpt lat="43.62591" lon="3.42571">
        <ele>113</ele>
        <time>2022-05-19T09:18:44Z</time>
      </trkpt>
      <trkpt lat="43.62605" lon="3.42561">
        <ele>112.6</ele>
        <time>2022-05-19T09:18:47Z</time>
      </trkpt>
      <trkpt lat="43.62609" lon="3.42557">
        <ele>112.4</ele>
        <time>2022-05-19T09:18:48Z</time>
      </trkpt>
      <trkpt lat="43.62617" lon="3.42549">
        <ele>112.2</ele>
        <time>2022-05-19T09:18:50Z</time>
      </trkpt>
      <trkpt lat="43.62624" lon="3.42539">
        <ele>112.2</ele>
        <time>2022-05-19T09:18:52Z</time>
      </trkpt>
      <trkpt lat="43.62627" lon="3.42533">
        <ele>112</ele>
        <time>2022-05-19T09:18:53Z</time>
      </trkpt>
      <trkpt lat="43.62629" lon="3.42527">
        <ele>112</ele>
        <time>2022-05-19T09:18:54Z</time>
      </trkpt>
      <trkpt lat="43.62638" lon="3.42497">
        <ele>112</ele>
        <time>2022-05-19T09:18:59Z</time>
      </trkpt>
      <trkpt lat="43.62645" lon="3.42472">
        <ele>112.2</ele>
        <time>2022-05-19T09:19:04Z</time>
      </trkpt>
      <trkpt lat="43.62652" lon="3.42451">
        <ele>113</ele>
        <time>2022-05-19T09:19:09Z</time>
      </trkpt>
      <trkpt lat="43.62656" lon="3.42442">
        <ele>113.4</ele>
        <time>2022-05-19T09:19:11Z</time>
      </trkpt>
      <trkpt lat="43.62664" lon="3.42425">
        <ele>114.2</ele>
        <time>2022-05-19T09:19:15Z</time>
      </trkpt>
      <trkpt lat="43.6267" lon="3.42408">
        <ele>114.6</ele>
        <time>2022-05-19T09:19:19Z</time>
      </trkpt>
      <trkpt lat="43.62676" lon="3.42397">
        <ele>114.8</ele>
        <time>2022-05-19T09:19:22Z</time>
      </trkpt>
      <trkpt lat="43.62682" lon="3.42379">
        <ele>115.8</ele>
        <time>2022-05-19T09:19:26Z</time>
      </trkpt>
      <trkpt lat="43.62689" lon="3.42363">
        <ele>116.6</ele>
        <time>2022-05-19T09:19:30Z</time>
      </trkpt>
      <trkpt lat="43.6269" lon="3.4236">
        <ele>116.8</ele>
        <time>2022-05-19T09:19:31Z</time>
      </trkpt>
      <trkpt lat="43.62698" lon="3.42345">
        <ele>117.8</ele>
        <time>2022-05-19T09:19:35Z</time>
      </trkpt>
      <trkpt lat="43.627" lon="3.42341">
        <ele>118</ele>
        <time>2022-05-19T09:19:36Z</time>
      </trkpt>
      <trkpt lat="43.62711" lon="3.42313">
        <ele>118.8</ele>
        <time>2022-05-19T09:19:42Z</time>
      </trkpt>
      <trkpt lat="43.62714" lon="3.42303">
        <ele>119.2</ele>
        <time>2022-05-19T09:19:44Z</time>
      </trkpt>
      <trkpt lat="43.62718" lon="3.42291">
        <ele>119.6</ele>
        <time>2022-05-19T09:19:47Z</time>
      </trkpt>
      <trkpt lat="43.62729" lon="3.42267">
        <ele>120.2</ele>
        <time>2022-05-19T09:19:53Z</time>
      </trkpt>
      <trkpt lat="43.62732" lon="3.42263">
        <ele>120.2</ele>
        <time>2022-05-19T09:19:54Z</time>
      </trkpt>
      <trkpt lat="43.62747" lon="3.42238">
        <ele>121.2</ele>
        <time>2022-05-19T09:20:01Z</time>
      </trkpt>
      <trkpt lat="43.62749" lon="3.42235">
        <ele>121.4</ele>
        <time>2022-05-19T09:20:02Z</time>
      </trkpt>
      <trkpt lat="43.62762" lon="3.42211">
        <ele>122.2</ele>
        <time>2022-05-19T09:20:09Z</time>
      </trkpt>
      <trkpt lat="43.62777" lon="3.42191">
        <ele>123</ele>
        <time>2022-05-19T09:20:16Z</time>
      </trkpt>
      <trkpt lat="43.62781" lon="3.42186">
        <ele>123.2</ele>
        <time>2022-05-19T09:20:18Z</time>
      </trkpt>
      <trkpt lat="43.62789" lon="3.42171">
        <ele>124</ele>
        <time>2022-05-19T09:20:22Z</time>
      </trkpt>
      <trkpt lat="43.62794" lon="3.42159">
        <ele>124.4</ele>
        <time>2022-05-19T09:20:25Z</time>
      </trkpt>
      <trkpt lat="43.62806" lon="3.42134">
        <ele>125.4</ele>
        <time>2022-05-19T09:20:31Z</time>
      </trkpt>
      <trkpt lat="43.62808" lon="3.4213">
        <ele>125.6</ele>
        <time>2022-05-19T09:20:32Z</time>
      </trkpt>
      <trkpt lat="43.62816" lon="3.42116">
        <ele>126.2</ele>
        <time>2022-05-19T09:20:36Z</time>
      </trkpt>
      <trkpt lat="43.62823" lon="3.42106">
        <ele>126.6</ele>
        <time>2022-05-19T09:20:39Z</time>
      </trkpt>
      <trkpt lat="43.62833" lon="3.42088">
        <ele>127.2</ele>
        <time>2022-05-19T09:20:44Z</time>
      </trkpt>
      <trkpt lat="43.62844" lon="3.42073">
        <ele>127.6</ele>
        <time>2022-05-19T09:20:49Z</time>
      </trkpt>
      <trkpt lat="43.62853" lon="3.42062">
        <ele>128</ele>
        <time>2022-05-19T09:20:53Z</time>
      </trkpt>
      <trkpt lat="43.62855" lon="3.42058">
        <ele>128</ele>
        <time>2022-05-19T09:20:54Z</time>
      </trkpt>
      <trkpt lat="43.62866" lon="3.42043">
        <ele>128.8</ele>
        <time>2022-05-19T09:20:59Z</time>
      </trkpt>
      <trkpt lat="43.6288" lon="3.42022">
        <ele>129.8</ele>
        <time>2022-05-19T09:21:06Z</time>
      </trkpt>
      <trkpt lat="43.62882" lon="3.42019">
        <ele>129.8</ele>
        <time>2022-05-19T09:21:07Z</time>
      </trkpt>
      <trkpt lat="43.62896" lon="3.41999">
        <ele>130.8</ele>
        <time>2022-05-19T09:21:14Z</time>
      </trkpt>
      <trkpt lat="43.62899" lon="3.41993">
        <ele>131</ele>
        <time>2022-05-19T09:21:16Z</time>
      </trkpt>
      <trkpt lat="43.62914" lon="3.41974">
        <ele>132</ele>
        <time>2022-05-19T09:21:23Z</time>
      </trkpt>
      <trkpt lat="43.62937" lon="3.4196">
        <ele>133.2</ele>
        <time>2022-05-19T09:21:31Z</time>
      </trkpt>
      <trkpt lat="43.62959" lon="3.41949">
        <ele>134.2</ele>
        <time>2022-05-19T09:21:38Z</time>
      </trkpt>
      <trkpt lat="43.62969" lon="3.41943">
        <ele>134.4</ele>
        <time>2022-05-19T09:21:41Z</time>
      </trkpt>
      <trkpt lat="43.62984" lon="3.41936">
        <ele>135.2</ele>
        <time>2022-05-19T09:21:46Z</time>
      </trkpt>
      <trkpt lat="43.62987" lon="3.41935">
        <ele>135.6</ele>
        <time>2022-05-19T09:21:47Z</time>
      </trkpt>
      <trkpt lat="43.63004" lon="3.41925">
        <ele>136.2</ele>
        <time>2022-05-19T09:21:52Z</time>
      </trkpt>
      <trkpt lat="43.63007" lon="3.41923">
        <ele>136.4</ele>
        <time>2022-05-19T09:21:53Z</time>
      </trkpt>
      <trkpt lat="43.63021" lon="3.41917">
        <ele>136.8</ele>
        <time>2022-05-19T09:21:57Z</time>
      </trkpt>
      <trkpt lat="43.63036" lon="3.41908">
        <ele>137.4</ele>
        <time>2022-05-19T09:22:02Z</time>
      </trkpt>
      <trkpt lat="43.63042" lon="3.41904">
        <ele>137.6</ele>
        <time>2022-05-19T09:22:04Z</time>
      </trkpt>
      <trkpt lat="43.63068" lon="3.41891">
        <ele>138.4</ele>
        <time>2022-05-19T09:22:12Z</time>
      </trkpt>
      <trkpt lat="43.63071" lon="3.4189">
        <ele>138.6</ele>
        <time>2022-05-19T09:22:13Z</time>
      </trkpt>
      <trkpt lat="43.63102" lon="3.41874">
        <ele>139.4</ele>
        <time>2022-05-19T09:22:22Z</time>
      </trkpt>
      <trkpt lat="43.63127" lon="3.4186">
        <ele>140.6</ele>
        <time>2022-05-19T09:22:29Z</time>
      </trkpt>
      <trkpt lat="43.63135" lon="3.41857">
        <ele>140.6</ele>
        <time>2022-05-19T09:22:31Z</time>
      </trkpt>
      <trkpt lat="43.63154" lon="3.41848">
        <ele>141.2</ele>
        <time>2022-05-19T09:22:36Z</time>
      </trkpt>
      <trkpt lat="43.63161" lon="3.41844">
        <ele>141.6</ele>
        <time>2022-05-19T09:22:38Z</time>
      </trkpt>
      <trkpt lat="43.63179" lon="3.41834">
        <ele>142.2</ele>
        <time>2022-05-19T09:22:43Z</time>
      </trkpt>
      <trkpt lat="43.63189" lon="3.41829">
        <ele>142.6</ele>
        <time>2022-05-19T09:22:46Z</time>
      </trkpt>
      <trkpt lat="43.63213" lon="3.41818">
        <ele>143.2</ele>
        <time>2022-05-19T09:22:53Z</time>
      </trkpt>
      <trkpt lat="43.63226" lon="3.41812">
        <ele>143.6</ele>
        <time>2022-05-19T09:22:57Z</time>
      </trkpt>
      <trkpt lat="43.63237" lon="3.4181">
        <ele>143.8</ele>
        <time>2022-05-19T09:23:00Z</time>
      </trkpt>
      <trkpt lat="43.63256" lon="3.4181">
        <ele>144.6</ele>
        <time>2022-05-19T09:23:06Z</time>
      </trkpt>
      <trkpt lat="43.63281" lon="3.41809">
        <ele>145.4</ele>
        <time>2022-05-19T09:23:13Z</time>
      </trkpt>
      <trkpt lat="43.63294" lon="3.41812">
        <ele>145.8</ele>
        <time>2022-05-19T09:23:17Z</time>
      </trkpt>
      <trkpt lat="43.63298" lon="3.41813">
        <ele>145.8</ele>
        <time>2022-05-19T09:23:18Z</time>
      </trkpt>
      <trkpt lat="43.63317" lon="3.41814">
        <ele>146.8</ele>
        <time>2022-05-19T09:23:24Z</time>
      </trkpt>
      <trkpt lat="43.63324" lon="3.41815">
        <ele>147</ele>
        <time>2022-05-19T09:23:26Z</time>
      </trkpt>
      <trkpt lat="43.63345" lon="3.41817">
        <ele>147.8</ele>
        <time>2022-05-19T09:23:32Z</time>
      </trkpt>
      <trkpt lat="43.63356" lon="3.41818">
        <ele>148</ele>
        <time>2022-05-19T09:23:35Z</time>
      </trkpt>
      <trkpt lat="43.63389" lon="3.41821">
        <ele>148.8</ele>
        <time>2022-05-19T09:23:44Z</time>
      </trkpt>
      <trkpt lat="43.63414" lon="3.41823">
        <ele>149.6</ele>
        <time>2022-05-19T09:23:51Z</time>
      </trkpt>
      <trkpt lat="43.63417" lon="3.41824">
        <ele>149.8</ele>
        <time>2022-05-19T09:23:52Z</time>
      </trkpt>
      <trkpt lat="43.6344" lon="3.4183">
        <ele>150.8</ele>
        <time>2022-05-19T09:23:58Z</time>
      </trkpt>
      <trkpt lat="43.63462" lon="3.41838">
        <ele>151.6</ele>
        <time>2022-05-19T09:24:04Z</time>
      </trkpt>
      <trkpt lat="43.63473" lon="3.41839">
        <ele>151.8</ele>
        <time>2022-05-19T09:24:07Z</time>
      </trkpt>
      <trkpt lat="43.63483" lon="3.41842">
        <ele>152</ele>
        <time>2022-05-19T09:24:10Z</time>
      </trkpt>
      <trkpt lat="43.63513" lon="3.41844">
        <ele>153</ele>
        <time>2022-05-19T09:24:18Z</time>
      </trkpt>
      <trkpt lat="43.63516" lon="3.41844">
        <ele>153</ele>
        <time>2022-05-19T09:24:19Z</time>
      </trkpt>
      <trkpt lat="43.63553" lon="3.41845">
        <ele>153.8</ele>
        <time>2022-05-19T09:24:29Z</time>
      </trkpt>
      <trkpt lat="43.63563" lon="3.41847">
        <ele>154</ele>
        <time>2022-05-19T09:24:32Z</time>
      </trkpt>
      <trkpt lat="43.63568" lon="3.41852">
        <ele>154.2</ele>
        <time>2022-05-19T09:24:34Z</time>
      </trkpt>
      <trkpt lat="43.63581" lon="3.41867">
        <ele>155</ele>
        <time>2022-05-19T09:24:39Z</time>
      </trkpt>
      <trkpt lat="43.63589" lon="3.41864">
        <ele>155.2</ele>
        <time>2022-05-19T09:24:41Z</time>
      </trkpt>
      <trkpt lat="43.63592" lon="3.4186">
        <ele>155.2</ele>
        <time>2022-05-19T09:24:42Z</time>
      </trkpt>
      <trkpt lat="43.63611" lon="3.41845">
        <ele>155.6</ele>
        <time>2022-05-19T09:24:48Z</time>
      </trkpt>
      <trkpt lat="43.63637" lon="3.41843">
        <ele>156</ele>
        <time>2022-05-19T09:24:56Z</time>
      </trkpt>
      <trkpt lat="43.6364" lon="3.41844">
        <ele>156</ele>
        <time>2022-05-19T09:24:57Z</time>
      </trkpt>
      <trkpt lat="43.63643" lon="3.41845">
        <ele>156.4</ele>
        <time>2022-05-19T09:24:58Z</time>
      </trkpt>
      <trkpt lat="43.63663" lon="3.41846">
        <ele>157.4</ele>
        <time>2022-05-19T09:25:04Z</time>
      </trkpt>
      <trkpt lat="43.63669" lon="3.41846">
        <ele>157.8</ele>
        <time>2022-05-19T09:25:06Z</time>
      </trkpt>
      <trkpt lat="43.63683" lon="3.41847">
        <ele>158.6</ele>
        <time>2022-05-19T09:25:10Z</time>
      </trkpt>
      <trkpt lat="43.63695" lon="3.41848">
        <ele>159.2</ele>
        <time>2022-05-19T09:25:14Z</time>
      </trkpt>
      <trkpt lat="43.63702" lon="3.41848">
        <ele>159.6</ele>
        <time>2022-05-19T09:25:16Z</time>
      </trkpt>
      <trkpt lat="43.63722" lon="3.41849">
        <ele>160.6</ele>
        <time>2022-05-19T09:25:22Z</time>
      </trkpt>
      <trkpt lat="43.63732" lon="3.4185">
        <ele>161</ele>
        <time>2022-05-19T09:25:25Z</time>
      </trkpt>
      <trkpt lat="43.63751" lon="3.41852">
        <ele>161.8</ele>
        <time>2022-05-19T09:25:31Z</time>
      </trkpt>
      <trkpt lat="43.63763" lon="3.41853">
        <ele>162.4</ele>
        <time>2022-05-19T09:25:35Z</time>
      </trkpt>
      <trkpt lat="43.63768" lon="3.41853">
        <ele>162.8</ele>
        <time>2022-05-19T09:25:37Z</time>
      </trkpt>
      <trkpt lat="43.63785" lon="3.41855">
        <ele>163.8</ele>
        <time>2022-05-19T09:25:43Z</time>
      </trkpt>
      <trkpt lat="43.63788" lon="3.41855">
        <ele>163.8</ele>
        <time>2022-05-19T09:25:44Z</time>
      </trkpt>
      <trkpt lat="43.6381" lon="3.41856">
        <ele>165</ele>
        <time>2022-05-19T09:25:52Z</time>
      </trkpt>
      <trkpt lat="43.63815" lon="3.41857">
        <ele>165.4</ele>
        <time>2022-05-19T09:25:54Z</time>
      </trkpt>
      <trkpt lat="43.63828" lon="3.41857">
        <ele>166.2</ele>
        <time>2022-05-19T09:25:58Z</time>
      </trkpt>
      <trkpt lat="43.63839" lon="3.41858">
        <ele>167</ele>
        <time>2022-05-19T09:26:02Z</time>
      </trkpt>
      <trkpt lat="43.63842" lon="3.41858">
        <ele>167.2</ele>
        <time>2022-05-19T09:26:03Z</time>
      </trkpt>
      <trkpt lat="43.63861" lon="3.41861">
        <ele>168.4</ele>
        <time>2022-05-19T09:26:09Z</time>
      </trkpt>
      <trkpt lat="43.63867" lon="3.41861">
        <ele>168.8</ele>
        <time>2022-05-19T09:26:11Z</time>
      </trkpt>
      <trkpt lat="43.63877" lon="3.41861">
        <ele>169.4</ele>
        <time>2022-05-19T09:26:14Z</time>
      </trkpt>
      <trkpt lat="43.63889" lon="3.41862">
        <ele>170.4</ele>
        <time>2022-05-19T09:26:18Z</time>
      </trkpt>
      <trkpt lat="43.63892" lon="3.41862">
        <ele>170.6</ele>
        <time>2022-05-19T09:26:19Z</time>
      </trkpt>
      <trkpt lat="43.63904" lon="3.41863">
        <ele>171.4</ele>
        <time>2022-05-19T09:26:23Z</time>
      </trkpt>
      <trkpt lat="43.63915" lon="3.41864">
        <ele>172.2</ele>
        <time>2022-05-19T09:26:27Z</time>
      </trkpt>
      <trkpt lat="43.63919" lon="3.41864">
        <ele>172.6</ele>
        <time>2022-05-19T09:26:28Z</time>
      </trkpt>
      <trkpt lat="43.63934" lon="3.41865">
        <ele>173.6</ele>
        <time>2022-05-19T09:26:33Z</time>
      </trkpt>
      <trkpt lat="43.6394" lon="3.41866">
        <ele>173.8</ele>
        <time>2022-05-19T09:26:35Z</time>
      </trkpt>
      <trkpt lat="43.63942" lon="3.41866">
        <ele>174</ele>
        <time>2022-05-19T09:26:36Z</time>
      </trkpt>
      <trkpt lat="43.63955" lon="3.41867">
        <ele>174.6</ele>
        <time>2022-05-19T09:26:40Z</time>
      </trkpt>
      <trkpt lat="43.6397" lon="3.41866">
        <ele>175.6</ele>
        <time>2022-05-19T09:26:45Z</time>
      </trkpt>
      <trkpt lat="43.63972" lon="3.41866">
        <ele>175.8</ele>
        <time>2022-05-19T09:26:46Z</time>
      </trkpt>
      <trkpt lat="43.63989" lon="3.41854">
        <ele>176.6</ele>
        <time>2022-05-19T09:26:52Z</time>
      </trkpt>
      <trkpt lat="43.63994" lon="3.41848">
        <ele>176.8</ele>
        <time>2022-05-19T09:26:54Z</time>
      </trkpt>
      <trkpt lat="43.64009" lon="3.41833">
        <ele>177.8</ele>
        <time>2022-05-19T09:27:00Z</time>
      </trkpt>
      <trkpt lat="43.64016" lon="3.41825">
        <ele>178.2</ele>
        <time>2022-05-19T09:27:02Z</time>
      </trkpt>
      <trkpt lat="43.64026" lon="3.41814">
        <ele>179</ele>
        <time>2022-05-19T09:27:06Z</time>
      </trkpt>
      <trkpt lat="43.64031" lon="3.4181">
        <ele>179.6</ele>
        <time>2022-05-19T09:27:08Z</time>
      </trkpt>
      <trkpt lat="43.64033" lon="3.41808">
        <ele>180.2</ele>
        <time>2022-05-19T09:27:09Z</time>
      </trkpt>
      <trkpt lat="43.64038" lon="3.41802">
        <ele>181.2</ele>
        <time>2022-05-19T09:27:12Z</time>
      </trkpt>
      <trkpt lat="43.64044" lon="3.41796">
        <ele>181.6</ele>
        <time>2022-05-19T09:27:15Z</time>
      </trkpt>
      <trkpt lat="43.64048" lon="3.41791">
        <ele>182.2</ele>
        <time>2022-05-19T09:27:18Z</time>
      </trkpt>
      <trkpt lat="43.64057" lon="3.41781">
        <ele>183.2</ele>
        <time>2022-05-19T09:27:24Z</time>
      </trkpt>
      <trkpt lat="43.64066" lon="3.41762">
        <ele>183.8</ele>
        <time>2022-05-19T09:27:32Z</time>
      </trkpt>
      <trkpt lat="43.64068" lon="3.41738">
        <ele>184</ele>
        <time>2022-05-19T09:27:39Z</time>
      </trkpt>
      <trkpt lat="43.64067" lon="3.41729">
        <ele>184</ele>
        <time>2022-05-19T09:27:41Z</time>
      </trkpt>
      <trkpt lat="43.64064" lon="3.41711">
        <ele>183.8</ele>
        <time>2022-05-19T09:27:46Z</time>
      </trkpt>
      <trkpt lat="43.64059" lon="3.41687">
        <ele>183.8</ele>
        <time>2022-05-19T09:27:52Z</time>
      </trkpt>
      <trkpt lat="43.64049" lon="3.41655">
        <ele>184</ele>
        <time>2022-05-19T09:28:00Z</time>
      </trkpt>
      <trkpt lat="43.6404" lon="3.41632">
        <ele>183.6</ele>
        <time>2022-05-19T09:28:06Z</time>
      </trkpt>
      <trkpt lat="43.64027" lon="3.41595">
        <ele>183</ele>
        <time>2022-05-19T09:28:14Z</time>
      </trkpt>
      <trkpt lat="43.64017" lon="3.4155">
        <ele>182.6</ele>
        <time>2022-05-19T09:28:23Z</time>
      </trkpt>
      <trkpt lat="43.64015" lon="3.41497">
        <ele>182.4</ele>
        <time>2022-05-19T09:28:32Z</time>
      </trkpt>
      <trkpt lat="43.64012" lon="3.4146">
        <ele>182.2</ele>
        <time>2022-05-19T09:28:38Z</time>
      </trkpt>
      <trkpt lat="43.64011" lon="3.41454">
        <ele>182.2</ele>
        <time>2022-05-19T09:28:39Z</time>
      </trkpt>
      <trkpt lat="43.64002" lon="3.414">
        <ele>181.6</ele>
        <time>2022-05-19T09:28:48Z</time>
      </trkpt>
      <trkpt lat="43.64001" lon="3.41389">
        <ele>181.6</ele>
        <time>2022-05-19T09:28:50Z</time>
      </trkpt>
      <trkpt lat="43.63999" lon="3.41372">
        <ele>181.6</ele>
        <time>2022-05-19T09:28:53Z</time>
      </trkpt>
      <trkpt lat="43.63999" lon="3.41366">
        <ele>181.6</ele>
        <time>2022-05-19T09:28:54Z</time>
      </trkpt>
      <trkpt lat="43.64" lon="3.41361">
        <ele>181.6</ele>
        <time>2022-05-19T09:28:55Z</time>
      </trkpt>
      <trkpt lat="43.64005" lon="3.4135">
        <ele>181.6</ele>
        <time>2022-05-19T09:28:57Z</time>
      </trkpt>
      <trkpt lat="43.64009" lon="3.41345">
        <ele>181.4</ele>
        <time>2022-05-19T09:28:58Z</time>
      </trkpt>
      <trkpt lat="43.64014" lon="3.41342">
        <ele>181.6</ele>
        <time>2022-05-19T09:28:59Z</time>
      </trkpt>
      <trkpt lat="43.64032" lon="3.41329">
        <ele>181.6</ele>
        <time>2022-05-19T09:29:03Z</time>
      </trkpt>
      <trkpt lat="43.64036" lon="3.41326">
        <ele>181.6</ele>
        <time>2022-05-19T09:29:04Z</time>
      </trkpt>
      <trkpt lat="43.64042" lon="3.41316">
        <ele>181.8</ele>
        <time>2022-05-19T09:29:06Z</time>
      </trkpt>
      <trkpt lat="43.64045" lon="3.41311">
        <ele>181.8</ele>
        <time>2022-05-19T09:29:07Z</time>
      </trkpt>
      <trkpt lat="43.64054" lon="3.41285">
        <ele>182.6</ele>
        <time>2022-05-19T09:29:12Z</time>
      </trkpt>
      <trkpt lat="43.64058" lon="3.41272">
        <ele>183.2</ele>
        <time>2022-05-19T09:29:14Z</time>
      </trkpt>
      <trkpt lat="43.64067" lon="3.41242">
        <ele>184.4</ele>
        <time>2022-05-19T09:29:19Z</time>
      </trkpt>
      <trkpt lat="43.6408" lon="3.41196">
        <ele>185.6</ele>
        <time>2022-05-19T09:29:27Z</time>
      </trkpt>
      <trkpt lat="43.64082" lon="3.4119">
        <ele>185.8</ele>
        <time>2022-05-19T09:29:28Z</time>
      </trkpt>
      <trkpt lat="43.64091" lon="3.41158">
        <ele>186.6</ele>
        <time>2022-05-19T09:29:34Z</time>
      </trkpt>
      <trkpt lat="43.64094" lon="3.41148">
        <ele>186.8</ele>
        <time>2022-05-19T09:29:36Z</time>
      </trkpt>
      <trkpt lat="43.64103" lon="3.41118">
        <ele>187.6</ele>
        <time>2022-05-19T09:29:42Z</time>
      </trkpt>
      <trkpt lat="43.64104" lon="3.41113">
        <ele>187.8</ele>
        <time>2022-05-19T09:29:43Z</time>
      </trkpt>
      <trkpt lat="43.64108" lon="3.41097">
        <ele>188.4</ele>
        <time>2022-05-19T09:29:46Z</time>
      </trkpt>
      <trkpt lat="43.64109" lon="3.41092">
        <ele>188.6</ele>
        <time>2022-05-19T09:29:47Z</time>
      </trkpt>
      <trkpt lat="43.64111" lon="3.41086">
        <ele>188.8</ele>
        <time>2022-05-19T09:29:48Z</time>
      </trkpt>
      <trkpt lat="43.64112" lon="3.41081">
        <ele>189</ele>
        <time>2022-05-19T09:29:49Z</time>
      </trkpt>
      <trkpt lat="43.64115" lon="3.41075">
        <ele>189</ele>
        <time>2022-05-19T09:29:50Z</time>
      </trkpt>
      <trkpt lat="43.64124" lon="3.41056">
        <ele>189.4</ele>
        <time>2022-05-19T09:29:53Z</time>
      </trkpt>
      <trkpt lat="43.64132" lon="3.41038">
        <ele>190</ele>
        <time>2022-05-19T09:29:56Z</time>
      </trkpt>
      <trkpt lat="43.64139" lon="3.41025">
        <ele>190.4</ele>
        <time>2022-05-19T09:29:58Z</time>
      </trkpt>
      <trkpt lat="43.64144" lon="3.4102">
        <ele>190.4</ele>
        <time>2022-05-19T09:29:59Z</time>
      </trkpt>
      <trkpt lat="43.64156" lon="3.41005">
        <ele>191.4</ele>
        <time>2022-05-19T09:30:02Z</time>
      </trkpt>
      <trkpt lat="43.64159" lon="3.41">
        <ele>191.6</ele>
        <time>2022-05-19T09:30:03Z</time>
      </trkpt>
      <trkpt lat="43.64166" lon="3.4099">
        <ele>192</ele>
        <time>2022-05-19T09:30:05Z</time>
      </trkpt>
      <trkpt lat="43.6417" lon="3.40985">
        <ele>192.2</ele>
        <time>2022-05-19T09:30:06Z</time>
      </trkpt>
      <trkpt lat="43.64174" lon="3.4098">
        <ele>192.4</ele>
        <time>2022-05-19T09:30:07Z</time>
      </trkpt>
      <trkpt lat="43.64178" lon="3.40973">
        <ele>192.4</ele>
        <time>2022-05-19T09:30:08Z</time>
      </trkpt>
      <trkpt lat="43.64181" lon="3.40967">
        <ele>192.6</ele>
        <time>2022-05-19T09:30:09Z</time>
      </trkpt>
      <trkpt lat="43.64189" lon="3.40944">
        <ele>193.6</ele>
        <time>2022-05-19T09:30:13Z</time>
      </trkpt>
      <trkpt lat="43.64194" lon="3.40926">
        <ele>194.2</ele>
        <time>2022-05-19T09:30:16Z</time>
      </trkpt>
      <trkpt lat="43.64197" lon="3.40909">
        <ele>194.6</ele>
        <time>2022-05-19T09:30:19Z</time>
      </trkpt>
      <trkpt lat="43.64198" lon="3.40903">
        <ele>194.8</ele>
        <time>2022-05-19T09:30:20Z</time>
      </trkpt>
      <trkpt lat="43.64205" lon="3.40878">
        <ele>195</ele>
        <time>2022-05-19T09:30:24Z</time>
      </trkpt>
      <trkpt lat="43.64214" lon="3.40838">
        <ele>195.8</ele>
        <time>2022-05-19T09:30:31Z</time>
      </trkpt>
      <trkpt lat="43.64218" lon="3.40821">
        <ele>196.2</ele>
        <time>2022-05-19T09:30:34Z</time>
      </trkpt>
      <trkpt lat="43.64225" lon="3.4079">
        <ele>197</ele>
        <time>2022-05-19T09:30:39Z</time>
      </trkpt>
      <trkpt lat="43.64233" lon="3.40754">
        <ele>197.6</ele>
        <time>2022-05-19T09:30:44Z</time>
      </trkpt>
      <trkpt lat="43.64245" lon="3.40702">
        <ele>197.4</ele>
        <time>2022-05-19T09:30:50Z</time>
      </trkpt>
      <trkpt lat="43.64251" lon="3.4066">
        <ele>196.4</ele>
        <time>2022-05-19T09:30:54Z</time>
      </trkpt>
      <trkpt lat="43.64254" lon="3.40624">
        <ele>195.8</ele>
        <time>2022-05-19T09:30:57Z</time>
      </trkpt>
      <trkpt lat="43.64253" lon="3.40612">
        <ele>195.4</ele>
        <time>2022-05-19T09:30:58Z</time>
      </trkpt>
      <trkpt lat="43.64244" lon="3.40548">
        <ele>194.6</ele>
        <time>2022-05-19T09:31:03Z</time>
      </trkpt>
      <trkpt lat="43.64233" lon="3.40495">
        <ele>193.2</ele>
        <time>2022-05-19T09:31:07Z</time>
      </trkpt>
      <trkpt lat="43.64228" lon="3.40469">
        <ele>192.6</ele>
        <time>2022-05-19T09:31:09Z</time>
      </trkpt>
      <trkpt lat="43.64223" lon="3.40443">
        <ele>191.8</ele>
        <time>2022-05-19T09:31:11Z</time>
      </trkpt>
      <trkpt lat="43.64218" lon="3.40418">
        <ele>191</ele>
        <time>2022-05-19T09:31:13Z</time>
      </trkpt>
      <trkpt lat="43.64216" lon="3.40405">
        <ele>190.4</ele>
        <time>2022-05-19T09:31:14Z</time>
      </trkpt>
      <trkpt lat="43.64206" lon="3.40355">
        <ele>189</ele>
        <time>2022-05-19T09:31:18Z</time>
      </trkpt>
      <trkpt lat="43.64197" lon="3.40304">
        <ele>187.8</ele>
        <time>2022-05-19T09:31:22Z</time>
      </trkpt>
      <trkpt lat="43.64194" lon="3.40291">
        <ele>187.6</ele>
        <time>2022-05-19T09:31:23Z</time>
      </trkpt>
      <trkpt lat="43.64189" lon="3.40265">
        <ele>186.6</ele>
        <time>2022-05-19T09:31:25Z</time>
      </trkpt>
      <trkpt lat="43.64178" lon="3.4021">
        <ele>185.4</ele>
        <time>2022-05-19T09:31:29Z</time>
      </trkpt>
      <trkpt lat="43.64169" lon="3.40167">
        <ele>184.4</ele>
        <time>2022-05-19T09:31:32Z</time>
      </trkpt>
      <trkpt lat="43.64166" lon="3.40152">
        <ele>183.6</ele>
        <time>2022-05-19T09:31:33Z</time>
      </trkpt>
      <trkpt lat="43.64153" lon="3.40094">
        <ele>182.2</ele>
        <time>2022-05-19T09:31:37Z</time>
      </trkpt>
      <trkpt lat="43.64146" lon="3.40066">
        <ele>181.4</ele>
        <time>2022-05-19T09:31:39Z</time>
      </trkpt>
      <trkpt lat="43.64143" lon="3.40052">
        <ele>181</ele>
        <time>2022-05-19T09:31:40Z</time>
      </trkpt>
      <trkpt lat="43.64137" lon="3.40024">
        <ele>179.2</ele>
        <time>2022-05-19T09:31:42Z</time>
      </trkpt>
      <trkpt lat="43.64128" lon="3.39983">
        <ele>178.4</ele>
        <time>2022-05-19T09:31:45Z</time>
      </trkpt>
      <trkpt lat="43.64125" lon="3.39956">
        <ele>177</ele>
        <time>2022-05-19T09:31:47Z</time>
      </trkpt>
      <trkpt lat="43.64118" lon="3.39887">
        <ele>176.2</ele>
        <time>2022-05-19T09:31:52Z</time>
      </trkpt>
      <trkpt lat="43.64119" lon="3.39873">
        <ele>175.8</ele>
        <time>2022-05-19T09:31:53Z</time>
      </trkpt>
      <trkpt lat="43.6412" lon="3.39859">
        <ele>175</ele>
        <time>2022-05-19T09:31:54Z</time>
      </trkpt>
      <trkpt lat="43.64123" lon="3.39845">
        <ele>174.4</ele>
        <time>2022-05-19T09:31:55Z</time>
      </trkpt>
      <trkpt lat="43.64128" lon="3.39832">
        <ele>174</ele>
        <time>2022-05-19T09:31:56Z</time>
      </trkpt>
      <trkpt lat="43.64133" lon="3.39819">
        <ele>173.2</ele>
        <time>2022-05-19T09:31:57Z</time>
      </trkpt>
      <trkpt lat="43.64149" lon="3.39781">
        <ele>172</ele>
        <time>2022-05-19T09:32:00Z</time>
      </trkpt>
      <trkpt lat="43.64159" lon="3.39755">
        <ele>170.8</ele>
        <time>2022-05-19T09:32:02Z</time>
      </trkpt>
      <trkpt lat="43.64165" lon="3.39743">
        <ele>169.8</ele>
        <time>2022-05-19T09:32:03Z</time>
      </trkpt>
      <trkpt lat="43.6417" lon="3.3973">
        <ele>169.6</ele>
        <time>2022-05-19T09:32:04Z</time>
      </trkpt>
      <trkpt lat="43.64186" lon="3.39689">
        <ele>168.6</ele>
        <time>2022-05-19T09:32:07Z</time>
      </trkpt>
      <trkpt lat="43.64204" lon="3.39648">
        <ele>167.8</ele>
        <time>2022-05-19T09:32:10Z</time>
      </trkpt>
      <trkpt lat="43.64209" lon="3.39635">
        <ele>167.4</ele>
        <time>2022-05-19T09:32:11Z</time>
      </trkpt>
      <trkpt lat="43.64227" lon="3.39594">
        <ele>166.2</ele>
        <time>2022-05-19T09:32:14Z</time>
      </trkpt>
      <trkpt lat="43.6425" lon="3.3954">
        <ele>164.6</ele>
        <time>2022-05-19T09:32:18Z</time>
      </trkpt>
      <trkpt lat="43.64267" lon="3.39498">
        <ele>163.4</ele>
        <time>2022-05-19T09:32:21Z</time>
      </trkpt>
      <trkpt lat="43.64279" lon="3.3947">
        <ele>162.2</ele>
        <time>2022-05-19T09:32:23Z</time>
      </trkpt>
      <trkpt lat="43.64291" lon="3.39441">
        <ele>161.2</ele>
        <time>2022-05-19T09:32:25Z</time>
      </trkpt>
      <trkpt lat="43.64297" lon="3.39427">
        <ele>161</ele>
        <time>2022-05-19T09:32:26Z</time>
      </trkpt>
      <trkpt lat="43.64314" lon="3.39384">
        <ele>159.6</ele>
        <time>2022-05-19T09:32:29Z</time>
      </trkpt>
      <trkpt lat="43.64326" lon="3.39356">
        <ele>158.2</ele>
        <time>2022-05-19T09:32:31Z</time>
      </trkpt>
      <trkpt lat="43.64337" lon="3.39327">
        <ele>156.8</ele>
        <time>2022-05-19T09:32:33Z</time>
      </trkpt>
      <trkpt lat="43.64349" lon="3.393">
        <ele>155.6</ele>
        <time>2022-05-19T09:32:35Z</time>
      </trkpt>
      <trkpt lat="43.64355" lon="3.39286">
        <ele>154.8</ele>
        <time>2022-05-19T09:32:36Z</time>
      </trkpt>
      <trkpt lat="43.6436" lon="3.39273">
        <ele>154.4</ele>
        <time>2022-05-19T09:32:37Z</time>
      </trkpt>
      <trkpt lat="43.64381" lon="3.39221">
        <ele>153.4</ele>
        <time>2022-05-19T09:32:41Z</time>
      </trkpt>
      <trkpt lat="43.64391" lon="3.39197">
        <ele>152.8</ele>
        <time>2022-05-19T09:32:43Z</time>
      </trkpt>
      <trkpt lat="43.64401" lon="3.39173">
        <ele>152.2</ele>
        <time>2022-05-19T09:32:45Z</time>
      </trkpt>
      <trkpt lat="43.64416" lon="3.39138">
        <ele>151</ele>
        <time>2022-05-19T09:32:48Z</time>
      </trkpt>
      <trkpt lat="43.6442" lon="3.39127">
        <ele>150.8</ele>
        <time>2022-05-19T09:32:49Z</time>
      </trkpt>
      <trkpt lat="43.64442" lon="3.39074">
        <ele>150</ele>
        <time>2022-05-19T09:32:54Z</time>
      </trkpt>
      <trkpt lat="43.64447" lon="3.39065">
        <ele>149.8</ele>
        <time>2022-05-19T09:32:55Z</time>
      </trkpt>
      <trkpt lat="43.64471" lon="3.39036">
        <ele>148.8</ele>
        <time>2022-05-19T09:32:59Z</time>
      </trkpt>
      <trkpt lat="43.64488" lon="3.39019">
        <ele>147.8</ele>
        <time>2022-05-19T09:33:02Z</time>
      </trkpt>
      <trkpt lat="43.645" lon="3.39008">
        <ele>146.6</ele>
        <time>2022-05-19T09:33:04Z</time>
      </trkpt>
      <trkpt lat="43.64506" lon="3.39002">
        <ele>146.4</ele>
        <time>2022-05-19T09:33:05Z</time>
      </trkpt>
      <trkpt lat="43.64533" lon="3.38979">
        <ele>145.8</ele>
        <time>2022-05-19T09:33:10Z</time>
      </trkpt>
      <trkpt lat="43.64535" lon="3.38976">
        <ele>145.6</ele>
        <time>2022-05-19T09:33:11Z</time>
      </trkpt>
      <trkpt lat="43.64536" lon="3.38974">
        <ele>145</ele>
        <time>2022-05-19T09:33:12Z</time>
      </trkpt>
      <trkpt lat="43.64536" lon="3.38972">
        <ele>144.6</ele>
        <time>2022-05-19T09:33:13Z</time>
      </trkpt>
      <trkpt lat="43.64535" lon="3.38971">
        <ele>144</ele>
        <time>2022-05-19T09:33:14Z</time>
      </trkpt>
      <trkpt lat="43.64535" lon="3.38971">
        <ele>143.4</ele>
        <time>2022-05-19T09:33:16Z</time>
      </trkpt>
      <trkpt lat="43.64535" lon="3.38971">
        <ele>142.8</ele>
        <time>2022-05-19T09:33:19Z</time>
      </trkpt>
      <trkpt lat="43.64535" lon="3.3897">
        <ele>142.4</ele>
        <time>2022-05-19T09:33:23Z</time>
      </trkpt>
      <trkpt lat="43.64535" lon="3.3897">
        <ele>143</ele>
        <time>2022-05-19T09:34:35Z</time>
      </trkpt>
      <trkpt lat="43.64535" lon="3.38971">
        <ele>144</ele>
        <time>2022-05-19T09:35:01Z</time>
      </trkpt>
      <trkpt lat="43.64535" lon="3.38971">
        <ele>145</ele>
        <time>2022-05-19T09:35:07Z</time>
      </trkpt>
      <trkpt lat="43.64535" lon="3.38971">
        <ele>146</ele>
        <time>2022-05-19T09:35:15Z</time>
      </trkpt>
      <trkpt lat="43.64535" lon="3.38971">
        <ele>146.4</ele>
        <time>2022-05-19T09:35:17Z</time>
      </trkpt>
      <trkpt lat="43.64535" lon="3.38971">
        <ele>147.2</ele>
        <time>2022-05-19T09:35:28Z</time>
      </trkpt>
      <trkpt lat="43.64536" lon="3.38971">
        <ele>148.2</ele>
        <time>2022-05-19T09:35:37Z</time>
      </trkpt>
      <trkpt lat="43.64536" lon="3.38972">
        <ele>149.4</ele>
        <time>2022-05-19T09:35:47Z</time>
      </trkpt>
      <trkpt lat="43.64536" lon="3.38972">
        <ele>150.6</ele>
        <time>2022-05-19T09:35:54Z</time>
      </trkpt>
      <trkpt lat="43.64536" lon="3.38972">
        <ele>151.6</ele>
        <time>2022-05-19T09:36:02Z</time>
      </trkpt>
      <trkpt lat="43.64536" lon="3.38972">
        <ele>152.8</ele>
        <time>2022-05-19T09:36:08Z</time>
      </trkpt>
      <trkpt lat="43.64536" lon="3.38972">
        <ele>153.8</ele>
        <time>2022-05-19T09:36:14Z</time>
      </trkpt>
      <trkpt lat="43.64536" lon="3.38972">
        <ele>155</ele>
        <time>2022-05-19T09:36:18Z</time>
      </trkpt>
      <trkpt lat="43.64536" lon="3.38972">
        <ele>156.4</ele>
        <time>2022-05-19T09:36:23Z</time>
      </trkpt>
      <trkpt lat="43.64536" lon="3.38972">
        <ele>157.4</ele>
        <time>2022-05-19T09:36:27Z</time>
      </trkpt>
      <trkpt lat="43.64536" lon="3.38972">
        <ele>158.8</ele>
        <time>2022-05-19T09:36:32Z</time>
      </trkpt>
      <trkpt lat="43.64536" lon="3.38972">
        <ele>160</ele>
        <time>2022-05-19T09:36:37Z</time>
      </trkpt>
      <trkpt lat="43.64536" lon="3.38972">
        <ele>161.2</ele>
        <time>2022-05-19T09:36:43Z</time>
      </trkpt>
      <trkpt lat="43.64536" lon="3.38972">
        <ele>162.4</ele>
        <time>2022-05-19T09:36:49Z</time>
      </trkpt>
      <trkpt lat="43.64536" lon="3.38972">
        <ele>163.4</ele>
        <time>2022-05-19T09:36:56Z</time>
      </trkpt>
      <trkpt lat="43.64536" lon="3.38972">
        <ele>164.8</ele>
        <time>2022-05-19T09:37:04Z</time>
      </trkpt>
      <trkpt lat="43.64536" lon="3.38972">
        <ele>165.6</ele>
        <time>2022-05-19T09:37:11Z</time>
      </trkpt>
    </trkseg>
  </trk>
</gpx>